Multibeam Report for 2005_Amundsen


Ship Name: Amundsen
Chief Scientist: Hughes Clarke, John
University of New Brunswick
Source Organization: University of New Brunswick (UNB), Ocean Mapping Group
Start Date: 2005-07-20
End Date: 2005-10-26


View ISO Metadata

Visit the full NCEI Bathymetry Viewer


Multibeam Bathymetry

Cruise Details

Project: ArcticNet NCE
Instrument: Kongsberg EM300

Data Quality

Number of Files: 2922
Number of Records: 4980569
BATHYMETRY DATA Quantity Percentage
Number of Beams 672228180 100%
Number of Good Beams 595199454 88.54%
Number of Zero Beams 77028726 11.46%
Number of Flagged Beams 0 0%
AMPLITUDE DATA Quantity Percentage
Number of Beams 672228180 100%
Number of Good Beams 595199454 88.54%
Number of Zero Beams 77028726 11.46%
Number of Flagged Beams 0 0%
SIDESCAN DATA Quantity Percentage
Number of Pixels 5098975232 100%
Number of Good Pixels 2614140685 51.27%
Number of Zero Pixels 0 0%
Number of Flagged Pixels 2484834547 48.73%

Navigation Totals

Total Time: 1388.4621 hours
Total Track Length: 25625.0588 km
Average Speed: 18.456 km/hr (9.9654 knots)

Cruise Bounds

Northern Extent: 78.34089
Southern Extent: 47.054398
Western Extent: -140.49046
Eastern Extent: -55.13143

Limits

Minimum Sonar Depth 0 Maximum Sonar Depth 11.31
Minimum Altitude 0 Maximum Altitude 3668.1599
Minimum Depth 0 Maximum Depth 4457.4302
Minimum Amplitude 0 Maximum Amplitude 32.5
Minimum Sidescan 0 Maximum Sidescan 63

File Information

Full Resolution Bathymetry as collected (raw): 2917

Files File Size Description
0001_20050805_052935_ShipName.all.mb56.gz 2.50MB Simrad multibeam vendor format
0001_20050806_150337_ShipName.all.mb56.gz 0.57MB Simrad multibeam vendor format
0001_20050808_194641_Amundsen.all.mb56.gz 10.46MB Simrad multibeam vendor format
0001_20050810_003946_Amundsen.all.mb56.gz 8.32MB Simrad multibeam vendor format
0001_20050811_065450_Amundsen.all.mb56.gz 9.61MB Simrad multibeam vendor format
0001_20050817_060919_Amundsen.all.mb56.gz 9.71MB Simrad multibeam vendor format
0001_20050822_070646_Amundsen.all.mb56.gz 14.50MB Simrad multibeam vendor format
0001_20050825_062858_Amundsen.all.mb56.gz 16.36MB Simrad multibeam vendor format
0001_20050827_055124_Amundsen.all.mb56.gz 10.51MB Simrad multibeam vendor format
0001_20050830_161502_Amundsen.all.mb56.gz 17.24MB Simrad multibeam vendor format
0001_20050901_040422_Amundsen.all.mb56.gz 15.32MB Simrad multibeam vendor format
0001_20050903_132211_Amundsen.all.mb56.gz 14.34MB Simrad multibeam vendor format
0001_20050904_200017_Amundsen.all.mb56.gz 13.30MB Simrad multibeam vendor format
0001_20050905_191559_Amundsen.all.mb56.gz 27.0KB Simrad multibeam vendor format
0001_20050911_003013_Amundsen.all.mb56.gz 25.4KB Simrad multibeam vendor format
0001_20050913_223236_Amundsen.all.mb56.gz 0.90MB Simrad multibeam vendor format
0001_20050914_155052_Amundsen.all.mb56.gz 31.87MB Simrad multibeam vendor format
0001_20050916_005657_Amundsen.all.mb56.gz 44.55MB Simrad multibeam vendor format
0001_20050918_171600_Amundsen.all.mb56.gz 18.21MB Simrad multibeam vendor format
0001_20050920_211822_Amundsen.all.mb56.gz 3.77MB Simrad multibeam vendor format
0001_20050922_134742_Amundsen.all.mb56.gz 26.34MB Simrad multibeam vendor format
0001_20050926_210924_Amundsen.all.mb56.gz 26.58MB Simrad multibeam vendor format
0001_20050930_184720_Amundsen.all.mb56.gz 37.97MB Simrad multibeam vendor format
0001_20051005_173740_Amundsen.all.mb56.gz 55.15MB Simrad multibeam vendor format
0001_20051010_000402_Amundsen.all.mb56.gz 52.31MB Simrad multibeam vendor format
0001_20051015_015919_Amundsen.all.mb56.gz 44.63MB Simrad multibeam vendor format
0001_20051018_045159_Amundsen.all.mb56.gz 16.06MB Simrad multibeam vendor format
0001_20051022_082443_Amundsen.all.mb56.gz 28.02MB Simrad multibeam vendor format
0001_20051024_121507_Amundsen.all.mb56.gz 47.17MB Simrad multibeam vendor format
0002_20050805_202630_ShipName.all.mb56.gz 32.25MB Simrad multibeam vendor format
0002_20050806_150528_ShipName.all.mb56.gz 27.51MB Simrad multibeam vendor format
0002_20050808_201641_Amundsen.all.mb56.gz 10.19MB Simrad multibeam vendor format
0002_20050810_010946_Amundsen.all.mb56.gz 8.59MB Simrad multibeam vendor format
0002_20050811_072450_Amundsen.all.mb56.gz 9.08MB Simrad multibeam vendor format
0002_20050817_072348_Amundsen.all.mb56.gz 11.65MB Simrad multibeam vendor format
0002_20050822_073646_Amundsen.all.mb56.gz 14.85MB Simrad multibeam vendor format
0002_20050825_065858_Amundsen.all.mb56.gz 16.86MB Simrad multibeam vendor format
0002_20050827_060001_Amundsen.all.mb56.gz 35.53MB Simrad multibeam vendor format
0002_20050830_163207_Amundsen.all.mb56.gz 37.19MB Simrad multibeam vendor format
0002_20050901_043423_Amundsen.all.mb56.gz 15.49MB Simrad multibeam vendor format
0002_20050903_135211_Amundsen.all.mb56.gz 10.86MB Simrad multibeam vendor format
0002_20050904_203018_Amundsen.all.mb56.gz 12.26MB Simrad multibeam vendor format
0002_20050905_213130_Amundsen.all.mb56.gz 8.07MB Simrad multibeam vendor format
0002_20050911_003244_Amundsen.all.mb56.gz 24.12MB Simrad multibeam vendor format
0002_20050914_022732_Amundsen.all.mb56.gz 32.69MB Simrad multibeam vendor format
0002_20050914_162052_Amundsen.all.mb56.gz 32.05MB Simrad multibeam vendor format
0002_20050916_012657_Amundsen.all.mb56.gz 42.19MB Simrad multibeam vendor format
0002_20050918_173850_Amundsen.all.mb56.gz 25.77MB Simrad multibeam vendor format
0002_20050920_212128_Amundsen.all.mb56.gz 55.12MB Simrad multibeam vendor format
0002_20050922_141742_Amundsen.all.mb56.gz 9.02MB Simrad multibeam vendor format
0002_20050926_213924_Amundsen.all.mb56.gz 26.58MB Simrad multibeam vendor format
0002_20050930_191721_Amundsen.all.mb56.gz 19.04MB Simrad multibeam vendor format
0002_20051005_180740_Amundsen.all.mb56.gz 54.80MB Simrad multibeam vendor format
0002_20051010_003402_Amundsen.all.mb56.gz 49.69MB Simrad multibeam vendor format
0002_20051015_022919_Amundsen.all.mb56.gz 51.97MB Simrad multibeam vendor format
0002_20051018_052159_Amundsen.all.mb56.gz 19.35MB Simrad multibeam vendor format
0002_20051021_165142_Amundsen.all.mb56.gz 32.78MB Simrad multibeam vendor format
0002_20051022_085443_Amundsen.all.mb56.gz 12.80MB Simrad multibeam vendor format
0002_20051024_124507_Amundsen.all.mb56.gz 42.12MB Simrad multibeam vendor format
0003_20050805_205630_ShipName.all.mb56.gz 38.15MB Simrad multibeam vendor format
0003_20050806_153528_ShipName.all.mb56.gz 24.35MB Simrad multibeam vendor format
0003_20050808_204641_Amundsen.all.mb56.gz 10.67MB Simrad multibeam vendor format
0003_20050810_013946_Amundsen.all.mb56.gz 8.56MB Simrad multibeam vendor format
0003_20050811_075359_Amundsen.all.mb56.gz 9.19MB Simrad multibeam vendor format
0003_20050817_075348_Amundsen.all.mb56.gz 13.66MB Simrad multibeam vendor format
0003_20050822_080646_Amundsen.all.mb56.gz 15.24MB Simrad multibeam vendor format
0003_20050825_072858_Amundsen.all.mb56.gz 23.64MB Simrad multibeam vendor format
0003_20050827_063001_Amundsen.all.mb56.gz 37.61MB Simrad multibeam vendor format
0003_20050830_170207_Amundsen.all.mb56.gz 35.93MB Simrad multibeam vendor format
0003_20050901_050423_Amundsen.all.mb56.gz 15.38MB Simrad multibeam vendor format
0003_20050903_141427_Amundsen.all.mb56.gz 13.92MB Simrad multibeam vendor format
0003_20050904_210018_Amundsen.all.mb56.gz 11.93MB Simrad multibeam vendor format
0003_20050905_220130_Amundsen.all.mb56.gz 8.35MB Simrad multibeam vendor format
0003_20050911_010244_Amundsen.all.mb56.gz 22.04MB Simrad multibeam vendor format
0003_20050914_025732_Amundsen.all.mb56.gz 33.06MB Simrad multibeam vendor format
0003_20050914_165052_Amundsen.all.mb56.gz 33.25MB Simrad multibeam vendor format
0003_20050916_015657_Amundsen.all.mb56.gz 41.66MB Simrad multibeam vendor format
0003_20050918_180850_Amundsen.all.mb56.gz 25.58MB Simrad multibeam vendor format
0003_20050920_215128_Amundsen.all.mb56.gz 46.65MB Simrad multibeam vendor format
0003_20050922_143815_Amundsen.all.mb56.gz 23.12MB Simrad multibeam vendor format
0003_20050926_220924_Amundsen.all.mb56.gz 3.99MB Simrad multibeam vendor format
0003_20051001_123337_Amundsen.all.mb56.gz 42.92MB Simrad multibeam vendor format
0003_20051005_183740_Amundsen.all.mb56.gz 54.58MB Simrad multibeam vendor format
0003_20051010_010402_Amundsen.all.mb56.gz 50.35MB Simrad multibeam vendor format
0003_20051015_025919_Amundsen.all.mb56.gz 50.05MB Simrad multibeam vendor format
0003_20051018_055159_Amundsen.all.mb56.gz 21.65MB Simrad multibeam vendor format
0003_20051021_172142_Amundsen.all.mb56.gz 27.04MB Simrad multibeam vendor format
0003_20051022_092443_Amundsen.all.mb56.gz 12.71MB Simrad multibeam vendor format
0003_20051024_131507_Amundsen.all.mb56.gz 39.70MB Simrad multibeam vendor format
0004_20050805_212630_ShipName.all.mb56.gz 42.20MB Simrad multibeam vendor format
0004_20050806_160528_ShipName.all.mb56.gz 24.02MB Simrad multibeam vendor format
0004_20050808_211641_Amundsen.all.mb56.gz 14.52MB Simrad multibeam vendor format
0004_20050810_020946_Amundsen.all.mb56.gz 8.69MB Simrad multibeam vendor format
0004_20050811_082400_Amundsen.all.mb56.gz 410.3KB Simrad multibeam vendor format
0004_20050817_082348_Amundsen.all.mb56.gz 0.59MB Simrad multibeam vendor format
0004_20050822_083646_Amundsen.all.mb56.gz 15.63MB Simrad multibeam vendor format
0004_20050825_075858_Amundsen.all.mb56.gz 20.64MB Simrad multibeam vendor format
0004_20050827_070001_Amundsen.all.mb56.gz 39.54MB Simrad multibeam vendor format
0004_20050830_173207_Amundsen.all.mb56.gz 34.16MB Simrad multibeam vendor format
0004_20050901_053423_Amundsen.all.mb56.gz 15.20MB Simrad multibeam vendor format
0004_20050903_144427_Amundsen.all.mb56.gz 13.80MB Simrad multibeam vendor format
0004_20050904_213018_Amundsen.all.mb56.gz 15.41MB Simrad multibeam vendor format
0004_20050905_223130_Amundsen.all.mb56.gz 7.87MB Simrad multibeam vendor format
0004_20050911_013244_Amundsen.all.mb56.gz 24.51MB Simrad multibeam vendor format
0004_20050914_032732_Amundsen.all.mb56.gz 28.24MB Simrad multibeam vendor format
0004_20050914_172052_Amundsen.all.mb56.gz 33.50MB Simrad multibeam vendor format
0004_20050916_022657_Amundsen.all.mb56.gz 36.53MB Simrad multibeam vendor format
0004_20050918_183850_Amundsen.all.mb56.gz 26.17MB Simrad multibeam vendor format
0004_20050920_222128_Amundsen.all.mb56.gz 52.16MB Simrad multibeam vendor format
0004_20050922_150815_Amundsen.all.mb56.gz 0.66MB Simrad multibeam vendor format
0004_20050926_222940_Amundsen.all.mb56.gz 26.29MB Simrad multibeam vendor format
0004_20051001_130337_Amundsen.all.mb56.gz 32.39MB Simrad multibeam vendor format
0004_20051005_190740_Amundsen.all.mb56.gz 56.85MB Simrad multibeam vendor format
0004_20051010_013402_Amundsen.all.mb56.gz 49.12MB Simrad multibeam vendor format
0004_20051015_032919_Amundsen.all.mb56.gz 48.22MB Simrad multibeam vendor format
0004_20051018_062159_Amundsen.all.mb56.gz 21.85MB Simrad multibeam vendor format
0004_20051021_175142_Amundsen.all.mb56.gz 19.04MB Simrad multibeam vendor format
0004_20051022_095443_Amundsen.all.mb56.gz 17.74MB Simrad multibeam vendor format
0004_20051024_134507_Amundsen.all.mb56.gz 36.13MB Simrad multibeam vendor format
0005_20050805_215630_ShipName.all.mb56.gz 42.15MB Simrad multibeam vendor format
0005_20050806_163528_ShipName.all.mb56.gz 25.23MB Simrad multibeam vendor format
0005_20050808_214641_Amundsen.all.mb56.gz 11.08MB Simrad multibeam vendor format
0005_20050810_023946_Amundsen.all.mb56.gz 8.72MB Simrad multibeam vendor format
0005_20050811_082514_Amundsen.all.mb56.gz 0.64MB Simrad multibeam vendor format
0005_20050817_090147_Amundsen.all.mb56.gz 13.83MB Simrad multibeam vendor format
0005_20050822_090646_Amundsen.all.mb56.gz 16.06MB Simrad multibeam vendor format
0005_20050825_083119_Amundsen.all.mb56.gz 26.48MB Simrad multibeam vendor format
0005_20050827_073001_Amundsen.all.mb56.gz 41.64MB Simrad multibeam vendor format
0005_20050830_180207_Amundsen.all.mb56.gz 22.75MB Simrad multibeam vendor format
0005_20050901_060423_Amundsen.all.mb56.gz 14.80MB Simrad multibeam vendor format
0005_20050903_151427_Amundsen.all.mb56.gz 3.59MB Simrad multibeam vendor format
0005_20050904_220018_Amundsen.all.mb56.gz 13.28MB Simrad multibeam vendor format
0005_20050905_230130_Amundsen.all.mb56.gz 7.97MB Simrad multibeam vendor format
0005_20050911_020244_Amundsen.all.mb56.gz 24.60MB Simrad multibeam vendor format
0005_20050914_035732_Amundsen.all.mb56.gz 26.36MB Simrad multibeam vendor format
0005_20050914_175052_Amundsen.all.mb56.gz 32.66MB Simrad multibeam vendor format
0005_20050916_025657_Amundsen.all.mb56.gz 30.51MB Simrad multibeam vendor format
0005_20050918_190850_Amundsen.all.mb56.gz 26.96MB Simrad multibeam vendor format
0005_20050920_225128_Amundsen.all.mb56.gz 46.41MB Simrad multibeam vendor format
0005_20050922_163006_Amundsen.all.mb56.gz 20.40MB Simrad multibeam vendor format
0005_20050926_225940_Amundsen.all.mb56.gz 26.58MB Simrad multibeam vendor format
0005_20051001_145132_Amundsen.all.mb56.gz 33.70MB Simrad multibeam vendor format
0005_20051005_193740_Amundsen.all.mb56.gz 56.03MB Simrad multibeam vendor format
0005_20051010_020402_Amundsen.all.mb56.gz 48.97MB Simrad multibeam vendor format
0005_20051015_035919_Amundsen.all.mb56.gz 49.56MB Simrad multibeam vendor format
0005_20051018_065159_Amundsen.all.mb56.gz 26.33MB Simrad multibeam vendor format
0005_20051021_181139_Amundsen.all.mb56.gz 27.44MB Simrad multibeam vendor format
0005_20051022_102443_Amundsen.all.mb56.gz 20.57MB Simrad multibeam vendor format
0005_20051024_141507_Amundsen.all.mb56.gz 38.21MB Simrad multibeam vendor format
0006_20050805_222630_ShipName.all.mb56.gz 29.73MB Simrad multibeam vendor format
0006_20050806_170528_ShipName.all.mb56.gz 8.17MB Simrad multibeam vendor format
0006_20050808_221641_Amundsen.all.mb56.gz 12.40MB Simrad multibeam vendor format
0006_20050810_030946_Amundsen.all.mb56.gz 8.45MB Simrad multibeam vendor format
0006_20050811_082754_Amundsen.all.mb56.gz 0.50MB Simrad multibeam vendor format
0006_20050817_093147_Amundsen.all.mb56.gz 7.51MB Simrad multibeam vendor format
0006_20050822_093646_Amundsen.all.mb56.gz 16.62MB Simrad multibeam vendor format
0006_20050825_090119_Amundsen.all.mb56.gz 26.12MB Simrad multibeam vendor format
0006_20050827_080001_Amundsen.all.mb56.gz 40.58MB Simrad multibeam vendor format
0006_20050830_192853_Amundsen.all.mb56.gz 38.37MB Simrad multibeam vendor format
0006_20050901_063423_Amundsen.all.mb56.gz 14.42MB Simrad multibeam vendor format
0006_20050903_152718_Amundsen.all.mb56.gz 20.98MB Simrad multibeam vendor format
0006_20050904_223018_Amundsen.all.mb56.gz 12.26MB Simrad multibeam vendor format
0006_20050905_233130_Amundsen.all.mb56.gz 8.31MB Simrad multibeam vendor format
0006_20050911_023244_Amundsen.all.mb56.gz 22.91MB Simrad multibeam vendor format
0006_20050914_042732_Amundsen.all.mb56.gz 21.36MB Simrad multibeam vendor format
0006_20050914_182052_Amundsen.all.mb56.gz 30.60MB Simrad multibeam vendor format
0006_20050916_032657_Amundsen.all.mb56.gz 27.45MB Simrad multibeam vendor format
0006_20050918_193850_Amundsen.all.mb56.gz 26.93MB Simrad multibeam vendor format
0006_20050920_232128_Amundsen.all.mb56.gz 47.50MB Simrad multibeam vendor format
0006_20050922_170006_Amundsen.all.mb56.gz 11.75MB Simrad multibeam vendor format
0006_20050926_232940_Amundsen.all.mb56.gz 26.22MB Simrad multibeam vendor format
0006_20051001_152132_Amundsen.all.mb56.gz 12.23MB Simrad multibeam vendor format
0006_20051005_200740_Amundsen.all.mb56.gz 55.91MB Simrad multibeam vendor format
0006_20051010_023402_Amundsen.all.mb56.gz 48.46MB Simrad multibeam vendor format
0006_20051015_042919_Amundsen.all.mb56.gz 47.21MB Simrad multibeam vendor format
0006_20051018_072159_Amundsen.all.mb56.gz 27.19MB Simrad multibeam vendor format
0006_20051021_184140_Amundsen.all.mb56.gz 12.75MB Simrad multibeam vendor format
0006_20051022_105443_Amundsen.all.mb56.gz 17.88MB Simrad multibeam vendor format
0006_20051024_144507_Amundsen.all.mb56.gz 35.29MB Simrad multibeam vendor format
0007_20050805_225630_ShipName.all.mb56.gz 19.40MB Simrad multibeam vendor format
0007_20050806_173303_ShipName.all.mb56.gz 25.32MB Simrad multibeam vendor format
0007_20050808_224641_Amundsen.all.mb56.gz 12.48MB Simrad multibeam vendor format
0007_20050810_033946_Amundsen.all.mb56.gz 8.51MB Simrad multibeam vendor format
0007_20050811_082930_Amundsen.all.mb56.gz 60.9KB Simrad multibeam vendor format
0007_20050817_105624_Amundsen.all.mb56.gz 12.92MB Simrad multibeam vendor format
0007_20050822_100646_Amundsen.all.mb56.gz 17.09MB Simrad multibeam vendor format
0007_20050825_093119_Amundsen.all.mb56.gz 26.56MB Simrad multibeam vendor format
0007_20050827_083001_Amundsen.all.mb56.gz 35.48MB Simrad multibeam vendor format
0007_20050830_195853_Amundsen.all.mb56.gz 11.71MB Simrad multibeam vendor format
0007_20050901_070423_Amundsen.all.mb56.gz 14.52MB Simrad multibeam vendor format
0007_20050903_155718_Amundsen.all.mb56.gz 14.29MB Simrad multibeam vendor format
0007_20050904_230018_Amundsen.all.mb56.gz 10.65MB Simrad multibeam vendor format
0007_20050906_000130_Amundsen.all.mb56.gz 8.08MB Simrad multibeam vendor format
0007_20050911_030244_Amundsen.all.mb56.gz 24.16MB Simrad multibeam vendor format
0007_20050914_045732_Amundsen.all.mb56.gz 22.06MB Simrad multibeam vendor format
0007_20050914_185052_Amundsen.all.mb56.gz 31.93MB Simrad multibeam vendor format
0007_20050916_035657_Amundsen.all.mb56.gz 30.29MB Simrad multibeam vendor format
0007_20050918_200850_Amundsen.all.mb56.gz 26.47MB Simrad multibeam vendor format
0007_20050920_235128_Amundsen.all.mb56.gz 40.45MB Simrad multibeam vendor format
0007_20050922_191210_Amundsen.all.mb56.gz 15.28MB Simrad multibeam vendor format
0007_20050926_235940_Amundsen.all.mb56.gz 26.27MB Simrad multibeam vendor format
0007_20051001_185705_Amundsen.all.mb56.gz 38.22MB Simrad multibeam vendor format
0007_20051005_203740_Amundsen.all.mb56.gz 54.02MB Simrad multibeam vendor format
0007_20051010_030402_Amundsen.all.mb56.gz 48.52MB Simrad multibeam vendor format
0007_20051015_045919_Amundsen.all.mb56.gz 45.66MB Simrad multibeam vendor format
0007_20051018_075159_Amundsen.all.mb56.gz 25.34MB Simrad multibeam vendor format
0007_20051021_202813_Amundsen.all.mb56.gz 22.88MB Simrad multibeam vendor format
0007_20051022_112443_Amundsen.all.mb56.gz 20.91MB Simrad multibeam vendor format
0007_20051024_151507_Amundsen.all.mb56.gz 34.57MB Simrad multibeam vendor format
0008_20050805_232630_ShipName.all.mb56.gz 16.71MB Simrad multibeam vendor format
0008_20050806_180303_ShipName.all.mb56.gz 24.06MB Simrad multibeam vendor format
0008_20050808_231641_Amundsen.all.mb56.gz 10.20MB Simrad multibeam vendor format
0008_20050810_040946_Amundsen.all.mb56.gz 8.50MB Simrad multibeam vendor format
0008_20050811_082940_Amundsen.all.mb56.gz 9.18MB Simrad multibeam vendor format
0008_20050817_112624_Amundsen.all.mb56.gz 13.79MB Simrad multibeam vendor format
0008_20050822_103646_Amundsen.all.mb56.gz 13.51MB Simrad multibeam vendor format
0008_20050825_100119_Amundsen.all.mb56.gz 26.70MB Simrad multibeam vendor format
0008_20050827_090001_Amundsen.all.mb56.gz 38.41MB Simrad multibeam vendor format
0008_20050830_210348_Amundsen.all.mb56.gz 41.02MB Simrad multibeam vendor format
0008_20050901_073423_Amundsen.all.mb56.gz 14.21MB Simrad multibeam vendor format
0008_20050903_162718_Amundsen.all.mb56.gz 15.73MB Simrad multibeam vendor format
0008_20050904_233018_Amundsen.all.mb56.gz 10.22MB Simrad multibeam vendor format
0008_20050906_003130_Amundsen.all.mb56.gz 2.24MB Simrad multibeam vendor format
0008_20050911_033244_Amundsen.all.mb56.gz 24.36MB Simrad multibeam vendor format
0008_20050914_052732_Amundsen.all.mb56.gz 16.31MB Simrad multibeam vendor format
0008_20050914_192052_Amundsen.all.mb56.gz 34.20MB Simrad multibeam vendor format
0008_20050916_042657_Amundsen.all.mb56.gz 29.18MB Simrad multibeam vendor format
0008_20050918_203850_Amundsen.all.mb56.gz 27.20MB Simrad multibeam vendor format
0008_20050921_002128_Amundsen.all.mb56.gz 43.68MB Simrad multibeam vendor format
0008_20050922_194210_Amundsen.all.mb56.gz 14.55MB Simrad multibeam vendor format
0008_20050927_002940_Amundsen.all.mb56.gz 26.51MB Simrad multibeam vendor format
0008_20051001_192705_Amundsen.all.mb56.gz 39.08MB Simrad multibeam vendor format
0008_20051005_210740_Amundsen.all.mb56.gz 55.09MB Simrad multibeam vendor format
0008_20051010_033402_Amundsen.all.mb56.gz 48.31MB Simrad multibeam vendor format
0008_20051015_052919_Amundsen.all.mb56.gz 40.06MB Simrad multibeam vendor format
0008_20051018_082159_Amundsen.all.mb56.gz 20.98MB Simrad multibeam vendor format
0008_20051021_213139_Amundsen.all.mb56.gz 25.64MB Simrad multibeam vendor format
0008_20051022_115443_Amundsen.all.mb56.gz 26.39MB Simrad multibeam vendor format
0008_20051024_154507_Amundsen.all.mb56.gz 34.26MB Simrad multibeam vendor format
0009_20050805_235630_ShipName.all.mb56.gz 21.64MB Simrad multibeam vendor format
0009_20050806_183303_ShipName.all.mb56.gz 24.72MB Simrad multibeam vendor format
0009_20050808_234641_Amundsen.all.mb56.gz 13.02MB Simrad multibeam vendor format
0009_20050810_043946_Amundsen.all.mb56.gz 8.62MB Simrad multibeam vendor format
0009_20050811_085940_Amundsen.all.mb56.gz 9.36MB Simrad multibeam vendor format
0009_20050817_115624_Amundsen.all.mb56.gz 13.82MB Simrad multibeam vendor format
0009_20050822_110035_Amundsen.all.mb56.gz 14.92MB Simrad multibeam vendor format
0009_20050825_103119_Amundsen.all.mb56.gz 2.01MB Simrad multibeam vendor format
0009_20050827_093001_Amundsen.all.mb56.gz 38.09MB Simrad multibeam vendor format
0009_20050830_213348_Amundsen.all.mb56.gz 40.41MB Simrad multibeam vendor format
0009_20050901_080423_Amundsen.all.mb56.gz 13.80MB Simrad multibeam vendor format
0009_20050903_165718_Amundsen.all.mb56.gz 14.86MB Simrad multibeam vendor format
0009_20050905_000018_Amundsen.all.mb56.gz 8.32MB Simrad multibeam vendor format
0009_20050906_013540_Amundsen.all.mb56.gz 5.24MB Simrad multibeam vendor format
0009_20050911_040244_Amundsen.all.mb56.gz 24.06MB Simrad multibeam vendor format
0009_20050914_055732_Amundsen.all.mb56.gz 22.45MB Simrad multibeam vendor format
0009_20050914_195052_Amundsen.all.mb56.gz 37.72MB Simrad multibeam vendor format
0009_20050916_045657_Amundsen.all.mb56.gz 33.29MB Simrad multibeam vendor format
0009_20050918_210850_Amundsen.all.mb56.gz 26.30MB Simrad multibeam vendor format
0009_20050921_005128_Amundsen.all.mb56.gz 18.31MB Simrad multibeam vendor format
0009_20050922_201210_Amundsen.all.mb56.gz 8.45MB Simrad multibeam vendor format
0009_20050927_005940_Amundsen.all.mb56.gz 26.81MB Simrad multibeam vendor format
0009_20051001_195705_Amundsen.all.mb56.gz 35.97MB Simrad multibeam vendor format
0009_20051005_213740_Amundsen.all.mb56.gz 55.29MB Simrad multibeam vendor format
0009_20051010_040402_Amundsen.all.mb56.gz 49.01MB Simrad multibeam vendor format
0009_20051015_055919_Amundsen.all.mb56.gz 43.81MB Simrad multibeam vendor format
0009_20051018_085159_Amundsen.all.mb56.gz 20.98MB Simrad multibeam vendor format
0009_20051021_220257_Amundsen.all.mb56.gz 23.17MB Simrad multibeam vendor format
0009_20051024_161507_Amundsen.all.mb56.gz 38.91MB Simrad multibeam vendor format
0010_20050806_002630_ShipName.all.mb56.gz 23.10MB Simrad multibeam vendor format
0010_20050806_190303_ShipName.all.mb56.gz 27.44MB Simrad multibeam vendor format
0010_20050809_001641_Amundsen.all.mb56.gz 13.50MB Simrad multibeam vendor format
0010_20050810_050946_Amundsen.all.mb56.gz 8.58MB Simrad multibeam vendor format
0010_20050811_092940_Amundsen.all.mb56.gz 9.42MB Simrad multibeam vendor format
0010_20050817_122624_Amundsen.all.mb56.gz 14.48MB Simrad multibeam vendor format
0010_20050822_113035_Amundsen.all.mb56.gz 13.05MB Simrad multibeam vendor format
0010_20050825_145332_Amundsen.all.mb56.gz 26.62MB Simrad multibeam vendor format
0010_20050827_100001_Amundsen.all.mb56.gz 0.84MB Simrad multibeam vendor format
0010_20050830_220348_Amundsen.all.mb56.gz 38.25MB Simrad multibeam vendor format
0010_20050901_083423_Amundsen.all.mb56.gz 13.74MB Simrad multibeam vendor format
0010_20050903_172718_Amundsen.all.mb56.gz 12.09MB Simrad multibeam vendor format
0010_20050905_003018_Amundsen.all.mb56.gz 8.24MB Simrad multibeam vendor format
0010_20050907_051301_Amundsen.all.mb56.gz 16.72MB Simrad multibeam vendor format
0010_20050911_043244_Amundsen.all.mb56.gz 24.23MB Simrad multibeam vendor format
0010_20050914_062732_Amundsen.all.mb56.gz 23.97MB Simrad multibeam vendor format
0010_20050914_202052_Amundsen.all.mb56.gz 38.15MB Simrad multibeam vendor format
0010_20050916_052657_Amundsen.all.mb56.gz 36.44MB Simrad multibeam vendor format
0010_20050918_213850_Amundsen.all.mb56.gz 26.92MB Simrad multibeam vendor format
0010_20050921_012128_Amundsen.all.mb56.gz 22.59MB Simrad multibeam vendor format
0010_20050922_235415_Amundsen.all.mb56.gz 16.26MB Simrad multibeam vendor format
0010_20050927_012940_Amundsen.all.mb56.gz 27.29MB Simrad multibeam vendor format
0010_20051001_211730_Amundsen.all.mb56.gz 39.81MB Simrad multibeam vendor format
0010_20051005_220740_Amundsen.all.mb56.gz 46.85MB Simrad multibeam vendor format
0010_20051010_043402_Amundsen.all.mb56.gz 46.63MB Simrad multibeam vendor format
0010_20051015_062919_Amundsen.all.mb56.gz 31.64MB Simrad multibeam vendor format
0010_20051018_092159_Amundsen.all.mb56.gz 19.40MB Simrad multibeam vendor format
0010_20051021_223257_Amundsen.all.mb56.gz 4.22MB Simrad multibeam vendor format
0010_20051022_123052_Amundsen.all.mb56.gz 30.03MB Simrad multibeam vendor format
0010_20051024_164507_Amundsen.all.mb56.gz 41.19MB Simrad multibeam vendor format
0011_20050806_005630_ShipName.all.mb56.gz 24.02MB Simrad multibeam vendor format
0011_20050806_193303_ShipName.all.mb56.gz 29.33MB Simrad multibeam vendor format
0011_20050809_004641_Amundsen.all.mb56.gz 9.70MB Simrad multibeam vendor format
0011_20050810_053946_Amundsen.all.mb56.gz 8.67MB Simrad multibeam vendor format
0011_20050811_095940_Amundsen.all.mb56.gz 9.53MB Simrad multibeam vendor format
0011_20050817_125624_Amundsen.all.mb56.gz 14.77MB Simrad multibeam vendor format
0011_20050822_120035_Amundsen.all.mb56.gz 11.40MB Simrad multibeam vendor format
0011_20050825_152332_Amundsen.all.mb56.gz 26.07MB Simrad multibeam vendor format
0011_20050827_100041_Amundsen.all.mb56.gz 17.46MB Simrad multibeam vendor format
0011_20050830_223348_Amundsen.all.mb56.gz 34.87MB Simrad multibeam vendor format
0011_20050901_090423_Amundsen.all.mb56.gz 13.71MB Simrad multibeam vendor format
0011_20050903_175718_Amundsen.all.mb56.gz 13.63MB Simrad multibeam vendor format
0011_20050905_010018_Amundsen.all.mb56.gz 8.47MB Simrad multibeam vendor format
0011_20050907_054301_Amundsen.all.mb56.gz 15.48MB Simrad multibeam vendor format
0011_20050911_050244_Amundsen.all.mb56.gz 23.97MB Simrad multibeam vendor format
0011_20050914_065732_Amundsen.all.mb56.gz 18.65MB Simrad multibeam vendor format
0011_20050914_205052_Amundsen.all.mb56.gz 40.38MB Simrad multibeam vendor format
0011_20050916_055657_Amundsen.all.mb56.gz 29.77MB Simrad multibeam vendor format
0011_20050918_220850_Amundsen.all.mb56.gz 27.38MB Simrad multibeam vendor format
0011_20050921_015128_Amundsen.all.mb56.gz 19.33MB Simrad multibeam vendor format
0011_20050923_002415_Amundsen.all.mb56.gz 19.46MB Simrad multibeam vendor format
0011_20050927_015940_Amundsen.all.mb56.gz 28.16MB Simrad multibeam vendor format
0011_20051001_214730_Amundsen.all.mb56.gz 38.91MB Simrad multibeam vendor format
0011_20051005_223740_Amundsen.all.mb56.gz 43.82MB Simrad multibeam vendor format
0011_20051010_050402_Amundsen.all.mb56.gz 48.60MB Simrad multibeam vendor format
0011_20051015_065919_Amundsen.all.mb56.gz 26.53MB Simrad multibeam vendor format
0011_20051018_095159_Amundsen.all.mb56.gz 19.77MB Simrad multibeam vendor format
0011_20051021_223630_Amundsen.all.mb56.gz 14.30MB Simrad multibeam vendor format
0011_20051022_130052_Amundsen.all.mb56.gz 29.43MB Simrad multibeam vendor format
0011_20051024_171507_Amundsen.all.mb56.gz 37.62MB Simrad multibeam vendor format
0012_20050806_012630_ShipName.all.mb56.gz 25.54MB Simrad multibeam vendor format
0012_20050806_200303_ShipName.all.mb56.gz 31.36MB Simrad multibeam vendor format
0012_20050809_011641_Amundsen.all.mb56.gz 8.43MB Simrad multibeam vendor format
0012_20050810_060946_Amundsen.all.mb56.gz 5.46MB Simrad multibeam vendor format
0012_20050811_102940_Amundsen.all.mb56.gz 9.71MB Simrad multibeam vendor format
0012_20050817_132624_Amundsen.all.mb56.gz 8.52MB Simrad multibeam vendor format
0012_20050822_123035_Amundsen.all.mb56.gz 11.26MB Simrad multibeam vendor format
0012_20050825_155332_Amundsen.all.mb56.gz 25.12MB Simrad multibeam vendor format
0012_20050827_142351_Amundsen.all.mb56.gz 37.41MB Simrad multibeam vendor format
0012_20050830_230348_Amundsen.all.mb56.gz 32.31MB Simrad multibeam vendor format
0012_20050901_093423_Amundsen.all.mb56.gz 13.64MB Simrad multibeam vendor format
0012_20050903_182718_Amundsen.all.mb56.gz 13.66MB Simrad multibeam vendor format
0012_20050905_013018_Amundsen.all.mb56.gz 8.03MB Simrad multibeam vendor format
0012_20050907_061301_Amundsen.all.mb56.gz 14.55MB Simrad multibeam vendor format
0012_20050911_053244_Amundsen.all.mb56.gz 24.32MB Simrad multibeam vendor format
0012_20050914_072732_Amundsen.all.mb56.gz 17.14MB Simrad multibeam vendor format
0012_20050914_212052_Amundsen.all.mb56.gz 42.97MB Simrad multibeam vendor format
0012_20050916_062657_Amundsen.all.mb56.gz 25.01MB Simrad multibeam vendor format
0012_20050918_223850_Amundsen.all.mb56.gz 28.26MB Simrad multibeam vendor format
0012_20050921_022128_Amundsen.all.mb56.gz 21.47MB Simrad multibeam vendor format
0012_20050923_005415_Amundsen.all.mb56.gz 18.60MB Simrad multibeam vendor format
0012_20050927_022940_Amundsen.all.mb56.gz 27.64MB Simrad multibeam vendor format
0012_20051001_221730_Amundsen.all.mb56.gz 37.45MB Simrad multibeam vendor format
0012_20051005_230740_Amundsen.all.mb56.gz 39.72MB Simrad multibeam vendor format
0012_20051010_053402_Amundsen.all.mb56.gz 47.72MB Simrad multibeam vendor format
0012_20051015_072919_Amundsen.all.mb56.gz 17.97MB Simrad multibeam vendor format
0012_20051018_102159_Amundsen.all.mb56.gz 19.74MB Simrad multibeam vendor format
0012_20051021_225255_Amundsen.all.mb56.gz 19.61MB Simrad multibeam vendor format
0012_20051022_133052_Amundsen.all.mb56.gz 30.03MB Simrad multibeam vendor format
0012_20051024_174507_Amundsen.all.mb56.gz 38.83MB Simrad multibeam vendor format
0013_20050806_015630_ShipName.all.mb56.gz 26.57MB Simrad multibeam vendor format
0013_20050806_203303_ShipName.all.mb56.gz 27.97MB Simrad multibeam vendor format
0013_20050809_014641_Amundsen.all.mb56.gz 8.79MB Simrad multibeam vendor format
0013_20050810_062832_Amundsen.all.mb56.gz 7.86MB Simrad multibeam vendor format
0013_20050811_105940_Amundsen.all.mb56.gz 9.74MB Simrad multibeam vendor format
0013_20050818_014001_Amundsen.all.mb56.gz 15.13MB Simrad multibeam vendor format
0013_20050822_130035_Amundsen.all.mb56.gz 11.69MB Simrad multibeam vendor format
0013_20050825_162332_Amundsen.all.mb56.gz 26.13MB Simrad multibeam vendor format
0013_20050827_145351_Amundsen.all.mb56.gz 36.84MB Simrad multibeam vendor format
0013_20050830_233348_Amundsen.all.mb56.gz 37.00MB Simrad multibeam vendor format
0013_20050901_100423_Amundsen.all.mb56.gz 12.68MB Simrad multibeam vendor format
0013_20050903_185718_Amundsen.all.mb56.gz 15.05MB Simrad multibeam vendor format
0013_20050905_020018_Amundsen.all.mb56.gz 8.96MB Simrad multibeam vendor format
0013_20050907_064301_Amundsen.all.mb56.gz 9.32MB Simrad multibeam vendor format
0013_20050911_060244_Amundsen.all.mb56.gz 24.66MB Simrad multibeam vendor format
0013_20050914_075732_Amundsen.all.mb56.gz 18.12MB Simrad multibeam vendor format
0013_20050914_215052_Amundsen.all.mb56.gz 45.02MB Simrad multibeam vendor format
0013_20050916_065657_Amundsen.all.mb56.gz 23.76MB Simrad multibeam vendor format
0013_20050918_230850_Amundsen.all.mb56.gz 27.79MB Simrad multibeam vendor format
0013_20050921_025128_Amundsen.all.mb56.gz 30.52MB Simrad multibeam vendor format
0013_20050923_012415_Amundsen.all.mb56.gz 18.70MB Simrad multibeam vendor format
0013_20050927_025940_Amundsen.all.mb56.gz 26.14MB Simrad multibeam vendor format
0013_20051001_224730_Amundsen.all.mb56.gz 34.81MB Simrad multibeam vendor format
0013_20051005_233740_Amundsen.all.mb56.gz 42.41MB Simrad multibeam vendor format
0013_20051010_060402_Amundsen.all.mb56.gz 49.67MB Simrad multibeam vendor format
0013_20051015_075919_Amundsen.all.mb56.gz 24.72MB Simrad multibeam vendor format
0013_20051018_105159_Amundsen.all.mb56.gz 20.92MB Simrad multibeam vendor format
0013_20051021_232255_Amundsen.all.mb56.gz 1.09MB Simrad multibeam vendor format
0013_20051022_140052_Amundsen.all.mb56.gz 30.03MB Simrad multibeam vendor format
0013_20051024_181507_Amundsen.all.mb56.gz 36.63MB Simrad multibeam vendor format
0014_20050806_022630_ShipName.all.mb56.gz 17.51MB Simrad multibeam vendor format
0014_20050806_205612_ShipName.all.mb56.gz 36.76MB Simrad multibeam vendor format
0014_20050809_021641_Amundsen.all.mb56.gz 8.62MB Simrad multibeam vendor format
0014_20050810_065603_Amundsen.all.mb56.gz 8.24MB Simrad multibeam vendor format
0014_20050811_112940_Amundsen.all.mb56.gz 9.80MB Simrad multibeam vendor format
0014_20050818_021002_Amundsen.all.mb56.gz 15.22MB Simrad multibeam vendor format
0014_20050822_133035_Amundsen.all.mb56.gz 11.52MB Simrad multibeam vendor format
0014_20050825_165332_Amundsen.all.mb56.gz 25.84MB Simrad multibeam vendor format
0014_20050827_152351_Amundsen.all.mb56.gz 36.92MB Simrad multibeam vendor format
0014_20050831_000348_Amundsen.all.mb56.gz 32.73MB Simrad multibeam vendor format
0014_20050901_103423_Amundsen.all.mb56.gz 11.56MB Simrad multibeam vendor format
0014_20050903_192718_Amundsen.all.mb56.gz 14.41MB Simrad multibeam vendor format
0014_20050905_023018_Amundsen.all.mb56.gz 8.36MB Simrad multibeam vendor format
0014_20050907_072304_Amundsen.all.mb56.gz 0.56MB Simrad multibeam vendor format
0014_20050911_063244_Amundsen.all.mb56.gz 24.39MB Simrad multibeam vendor format
0014_20050914_082732_Amundsen.all.mb56.gz 23.46MB Simrad multibeam vendor format
0014_20050914_222052_Amundsen.all.mb56.gz 48.66MB Simrad multibeam vendor format
0014_20050916_072657_Amundsen.all.mb56.gz 27.00MB Simrad multibeam vendor format
0014_20050918_233850_Amundsen.all.mb56.gz 28.76MB Simrad multibeam vendor format
0014_20050921_032128_Amundsen.all.mb56.gz 18.74MB Simrad multibeam vendor format
0014_20050923_015415_Amundsen.all.mb56.gz 13.36MB Simrad multibeam vendor format
0014_20050927_032940_Amundsen.all.mb56.gz 23.88MB Simrad multibeam vendor format
0014_20051002_025434_Amundsen.all.mb56.gz 35.40MB Simrad multibeam vendor format
0014_20051006_000740_Amundsen.all.mb56.gz 23.81MB Simrad multibeam vendor format
0014_20051010_063402_Amundsen.all.mb56.gz 51.55MB Simrad multibeam vendor format
0014_20051015_082919_Amundsen.all.mb56.gz 25.01MB Simrad multibeam vendor format
0014_20051018_112159_Amundsen.all.mb56.gz 25.70MB Simrad multibeam vendor format
0014_20051021_232738_Amundsen.all.mb56.gz 17.18MB Simrad multibeam vendor format
0014_20051022_143052_Amundsen.all.mb56.gz 29.70MB Simrad multibeam vendor format
0014_20051024_184507_Amundsen.all.mb56.gz 35.21MB Simrad multibeam vendor format
0015_20050806_025630_ShipName.all.mb56.gz 17.18MB Simrad multibeam vendor format
0015_20050806_212612_ShipName.all.mb56.gz 31.78MB Simrad multibeam vendor format
0015_20050809_024641_Amundsen.all.mb56.gz 8.61MB Simrad multibeam vendor format
0015_20050810_072603_Amundsen.all.mb56.gz 8.18MB Simrad multibeam vendor format
0015_20050811_115940_Amundsen.all.mb56.gz 10.39MB Simrad multibeam vendor format
0015_20050818_024002_Amundsen.all.mb56.gz 15.37MB Simrad multibeam vendor format
0015_20050822_140035_Amundsen.all.mb56.gz 10.78MB Simrad multibeam vendor format
0015_20050825_172332_Amundsen.all.mb56.gz 31.16MB Simrad multibeam vendor format
0015_20050827_155351_Amundsen.all.mb56.gz 37.05MB Simrad multibeam vendor format
0015_20050831_003348_Amundsen.all.mb56.gz 36.52MB Simrad multibeam vendor format
0015_20050901_110423_Amundsen.all.mb56.gz 12.93MB Simrad multibeam vendor format
0015_20050903_195718_Amundsen.all.mb56.gz 14.56MB Simrad multibeam vendor format
0015_20050905_030018_Amundsen.all.mb56.gz 7.25MB Simrad multibeam vendor format
0015_20050907_110015_Amundsen.all.mb56.gz 15.75MB Simrad multibeam vendor format
0015_20050911_070244_Amundsen.all.mb56.gz 23.70MB Simrad multibeam vendor format
0015_20050914_085732_Amundsen.all.mb56.gz 23.54MB Simrad multibeam vendor format
0015_20050914_225052_Amundsen.all.mb56.gz 51.60MB Simrad multibeam vendor format
0015_20050916_075657_Amundsen.all.mb56.gz 29.38MB Simrad multibeam vendor format
0015_20050919_000850_Amundsen.all.mb56.gz 28.65MB Simrad multibeam vendor format
0015_20050921_035128_Amundsen.all.mb56.gz 10.59MB Simrad multibeam vendor format
0015_20050923_022415_Amundsen.all.mb56.gz 9.93MB Simrad multibeam vendor format
0015_20050927_035940_Amundsen.all.mb56.gz 22.37MB Simrad multibeam vendor format
0015_20051002_032434_Amundsen.all.mb56.gz 34.27MB Simrad multibeam vendor format
0015_20051006_003740_Amundsen.all.mb56.gz 10.74MB Simrad multibeam vendor format
0015_20051010_070402_Amundsen.all.mb56.gz 56.10MB Simrad multibeam vendor format
0015_20051015_085919_Amundsen.all.mb56.gz 21.23MB Simrad multibeam vendor format
0015_20051018_115159_Amundsen.all.mb56.gz 27.95MB Simrad multibeam vendor format
0015_20051021_235738_Amundsen.all.mb56.gz 20.42MB Simrad multibeam vendor format
0015_20051022_150052_Amundsen.all.mb56.gz 29.86MB Simrad multibeam vendor format
0015_20051024_191507_Amundsen.all.mb56.gz 32.68MB Simrad multibeam vendor format
0016_20050806_032630_ShipName.all.mb56.gz 16.26MB Simrad multibeam vendor format
0016_20050806_215612_ShipName.all.mb56.gz 29.08MB Simrad multibeam vendor format
0016_20050809_031641_Amundsen.all.mb56.gz 8.49MB Simrad multibeam vendor format
0016_20050810_075603_Amundsen.all.mb56.gz 8.30MB Simrad multibeam vendor format
0016_20050811_122940_Amundsen.all.mb56.gz 10.59MB Simrad multibeam vendor format
0016_20050818_031002_Amundsen.all.mb56.gz 15.59MB Simrad multibeam vendor format
0016_20050822_143035_Amundsen.all.mb56.gz 10.11MB Simrad multibeam vendor format
0016_20050825_175332_Amundsen.all.mb56.gz 26.07MB Simrad multibeam vendor format
0016_20050827_162351_Amundsen.all.mb56.gz 22.16MB Simrad multibeam vendor format
0016_20050831_010348_Amundsen.all.mb56.gz 39.75MB Simrad multibeam vendor format
0016_20050901_113423_Amundsen.all.mb56.gz 11.95MB Simrad multibeam vendor format
0016_20050903_202718_Amundsen.all.mb56.gz 14.30MB Simrad multibeam vendor format
0016_20050905_033018_Amundsen.all.mb56.gz 7.71MB Simrad multibeam vendor format
0016_20050907_113015_Amundsen.all.mb56.gz 16.62MB Simrad multibeam vendor format
0016_20050911_073244_Amundsen.all.mb56.gz 23.57MB Simrad multibeam vendor format
0016_20050914_092732_Amundsen.all.mb56.gz 19.24MB Simrad multibeam vendor format
0016_20050914_232052_Amundsen.all.mb56.gz 40.00MB Simrad multibeam vendor format
0016_20050916_082657_Amundsen.all.mb56.gz 33.33MB Simrad multibeam vendor format
0016_20050919_003850_Amundsen.all.mb56.gz 27.84MB Simrad multibeam vendor format
0016_20050921_042128_Amundsen.all.mb56.gz 11.66MB Simrad multibeam vendor format
0016_20050923_025415_Amundsen.all.mb56.gz 10.13MB Simrad multibeam vendor format
0016_20050927_042940_Amundsen.all.mb56.gz 22.33MB Simrad multibeam vendor format
0016_20051002_035434_Amundsen.all.mb56.gz 36.15MB Simrad multibeam vendor format
0016_20051006_034853_Amundsen.all.mb56.gz 38.82MB Simrad multibeam vendor format
0016_20051010_073402_Amundsen.all.mb56.gz 55.32MB Simrad multibeam vendor format
0016_20051015_092919_Amundsen.all.mb56.gz 18.89MB Simrad multibeam vendor format
0016_20051018_122159_Amundsen.all.mb56.gz 28.60MB Simrad multibeam vendor format
0016_20051022_153052_Amundsen.all.mb56.gz 28.87MB Simrad multibeam vendor format
0016_20051024_194507_Amundsen.all.mb56.gz 30.13MB Simrad multibeam vendor format
0017_20050806_035630_ShipName.all.mb56.gz 16.12MB Simrad multibeam vendor format
0017_20050806_222612_ShipName.all.mb56.gz 30.00MB Simrad multibeam vendor format
0017_20050809_034641_Amundsen.all.mb56.gz 8.20MB Simrad multibeam vendor format
0017_20050810_082603_Amundsen.all.mb56.gz 8.36MB Simrad multibeam vendor format
0017_20050811_125940_Amundsen.all.mb56.gz 10.69MB Simrad multibeam vendor format
0017_20050818_034002_Amundsen.all.mb56.gz 16.87MB Simrad multibeam vendor format
0017_20050822_150035_Amundsen.all.mb56.gz 9.02MB Simrad multibeam vendor format
0017_20050825_182332_Amundsen.all.mb56.gz 25.48MB Simrad multibeam vendor format
0017_20050827_164139_Amundsen.all.mb56.gz 12.33MB Simrad multibeam vendor format
0017_20050831_013348_Amundsen.all.mb56.gz 39.20MB Simrad multibeam vendor format
0017_20050901_120423_Amundsen.all.mb56.gz 12.69MB Simrad multibeam vendor format
0017_20050903_205718_Amundsen.all.mb56.gz 16.30MB Simrad multibeam vendor format
0017_20050905_040018_Amundsen.all.mb56.gz 8.22MB Simrad multibeam vendor format
0017_20050907_120015_Amundsen.all.mb56.gz 17.37MB Simrad multibeam vendor format
0017_20050911_080244_Amundsen.all.mb56.gz 24.20MB Simrad multibeam vendor format
0017_20050914_095732_Amundsen.all.mb56.gz 15.49MB Simrad multibeam vendor format
0017_20050914_235052_Amundsen.all.mb56.gz 36.87MB Simrad multibeam vendor format
0017_20050916_085657_Amundsen.all.mb56.gz 30.86MB Simrad multibeam vendor format
0017_20050919_010850_Amundsen.all.mb56.gz 26.22MB Simrad multibeam vendor format
0017_20050921_045128_Amundsen.all.mb56.gz 10.29MB Simrad multibeam vendor format
0017_20050923_032415_Amundsen.all.mb56.gz 12.01MB Simrad multibeam vendor format
0017_20050927_045940_Amundsen.all.mb56.gz 20.86MB Simrad multibeam vendor format
0017_20051002_042434_Amundsen.all.mb56.gz 34.17MB Simrad multibeam vendor format
0017_20051006_041853_Amundsen.all.mb56.gz 45.00MB Simrad multibeam vendor format
0017_20051010_080402_Amundsen.all.mb56.gz 51.19MB Simrad multibeam vendor format
0017_20051015_095919_Amundsen.all.mb56.gz 16.55MB Simrad multibeam vendor format
0017_20051018_125159_Amundsen.all.mb56.gz 31.81MB Simrad multibeam vendor format
0017_20051022_160052_Amundsen.all.mb56.gz 30.27MB Simrad multibeam vendor format
0017_20051024_201507_Amundsen.all.mb56.gz 31.41MB Simrad multibeam vendor format
0018_20050806_042630_ShipName.all.mb56.gz 16.93MB Simrad multibeam vendor format
0018_20050806_225612_ShipName.all.mb56.gz 30.18MB Simrad multibeam vendor format
0018_20050809_041641_Amundsen.all.mb56.gz 8.12MB Simrad multibeam vendor format
0018_20050810_085603_Amundsen.all.mb56.gz 8.29MB Simrad multibeam vendor format
0018_20050811_132940_Amundsen.all.mb56.gz 10.98MB Simrad multibeam vendor format
0018_20050818_041002_Amundsen.all.mb56.gz 17.50MB Simrad multibeam vendor format
0018_20050822_153035_Amundsen.all.mb56.gz 9.28MB Simrad multibeam vendor format
0018_20050825_185332_Amundsen.all.mb56.gz 24.49MB Simrad multibeam vendor format
0018_20050827_165125_Amundsen.all.mb56.gz 38.31MB Simrad multibeam vendor format
0018_20050831_020348_Amundsen.all.mb56.gz 38.73MB Simrad multibeam vendor format
0018_20050901_123423_Amundsen.all.mb56.gz 13.62MB Simrad multibeam vendor format
0018_20050903_212718_Amundsen.all.mb56.gz 17.24MB Simrad multibeam vendor format
0018_20050905_043018_Amundsen.all.mb56.gz 7.81MB Simrad multibeam vendor format
0018_20050907_123015_Amundsen.all.mb56.gz 23.70MB Simrad multibeam vendor format
0018_20050911_083244_Amundsen.all.mb56.gz 23.81MB Simrad multibeam vendor format
0018_20050914_102732_Amundsen.all.mb56.gz 15.37MB Simrad multibeam vendor format
0018_20050915_002052_Amundsen.all.mb56.gz 33.97MB Simrad multibeam vendor format
0018_20050916_092657_Amundsen.all.mb56.gz 27.83MB Simrad multibeam vendor format
0018_20050919_013850_Amundsen.all.mb56.gz 21.60MB Simrad multibeam vendor format
0018_20050921_052128_Amundsen.all.mb56.gz 9.90MB Simrad multibeam vendor format
0018_20050923_035415_Amundsen.all.mb56.gz 12.14MB Simrad multibeam vendor format
0018_20050927_052940_Amundsen.all.mb56.gz 19.64MB Simrad multibeam vendor format
0018_20051002_045434_Amundsen.all.mb56.gz 35.19MB Simrad multibeam vendor format
0018_20051006_044853_Amundsen.all.mb56.gz 42.49MB Simrad multibeam vendor format
0018_20051010_083402_Amundsen.all.mb56.gz 50.67MB Simrad multibeam vendor format
0018_20051015_102919_Amundsen.all.mb56.gz 27.79MB Simrad multibeam vendor format
0018_20051018_132159_Amundsen.all.mb56.gz 34.67MB Simrad multibeam vendor format
0018_20051022_163052_Amundsen.all.mb56.gz 29.99MB Simrad multibeam vendor format
0018_20051024_204508_Amundsen.all.mb56.gz 31.04MB Simrad multibeam vendor format
0019_20050806_045630_ShipName.all.mb56.gz 17.12MB Simrad multibeam vendor format
0019_20050806_232612_ShipName.all.mb56.gz 30.42MB Simrad multibeam vendor format
0019_20050809_044641_Amundsen.all.mb56.gz 8.02MB Simrad multibeam vendor format
0019_20050810_092603_Amundsen.all.mb56.gz 8.25MB Simrad multibeam vendor format
0019_20050811_135940_Amundsen.all.mb56.gz 10.39MB Simrad multibeam vendor format
0019_20050818_044002_Amundsen.all.mb56.gz 17.20MB Simrad multibeam vendor format
0019_20050822_155809_Amundsen.all.mb56.gz 10.53MB Simrad multibeam vendor format
0019_20050825_192332_Amundsen.all.mb56.gz 23.94MB Simrad multibeam vendor format
0019_20050827_172125_Amundsen.all.mb56.gz 37.52MB Simrad multibeam vendor format
0019_20050831_023348_Amundsen.all.mb56.gz 38.15MB Simrad multibeam vendor format
0019_20050901_130423_Amundsen.all.mb56.gz 14.17MB Simrad multibeam vendor format
0019_20050903_215718_Amundsen.all.mb56.gz 17.23MB Simrad multibeam vendor format
0019_20050905_050018_Amundsen.all.mb56.gz 7.63MB Simrad multibeam vendor format
0019_20050907_130015_Amundsen.all.mb56.gz 25.17MB Simrad multibeam vendor format
0019_20050911_090244_Amundsen.all.mb56.gz 24.26MB Simrad multibeam vendor format
0019_20050914_105732_Amundsen.all.mb56.gz 15.12MB Simrad multibeam vendor format
0019_20050915_005052_Amundsen.all.mb56.gz 33.75MB Simrad multibeam vendor format
0019_20050916_095657_Amundsen.all.mb56.gz 21.44MB Simrad multibeam vendor format
0019_20050919_020850_Amundsen.all.mb56.gz 20.61MB Simrad multibeam vendor format
0019_20050921_055128_Amundsen.all.mb56.gz 9.92MB Simrad multibeam vendor format
0019_20050923_042415_Amundsen.all.mb56.gz 12.88MB Simrad multibeam vendor format
0019_20050927_055940_Amundsen.all.mb56.gz 21.38MB Simrad multibeam vendor format
0019_20051002_052434_Amundsen.all.mb56.gz 32.09MB Simrad multibeam vendor format
0019_20051006_051853_Amundsen.all.mb56.gz 43.69MB Simrad multibeam vendor format
0019_20051010_090402_Amundsen.all.mb56.gz 50.54MB Simrad multibeam vendor format
0019_20051015_105919_Amundsen.all.mb56.gz 28.90MB Simrad multibeam vendor format
0019_20051018_135159_Amundsen.all.mb56.gz 32.15MB Simrad multibeam vendor format
0019_20051022_170052_Amundsen.all.mb56.gz 31.33MB Simrad multibeam vendor format
0019_20051024_211508_Amundsen.all.mb56.gz 32.89MB Simrad multibeam vendor format
0020_20050806_052630_ShipName.all.mb56.gz 16.37MB Simrad multibeam vendor format
0020_20050806_235612_ShipName.all.mb56.gz 27.01MB Simrad multibeam vendor format
0020_20050809_051641_Amundsen.all.mb56.gz 7.95MB Simrad multibeam vendor format
0020_20050810_095603_Amundsen.all.mb56.gz 8.38MB Simrad multibeam vendor format
0020_20050811_142940_Amundsen.all.mb56.gz 11.07MB Simrad multibeam vendor format
0020_20050818_051002_Amundsen.all.mb56.gz 17.44MB Simrad multibeam vendor format
0020_20050822_162809_Amundsen.all.mb56.gz 11.34MB Simrad multibeam vendor format
0020_20050825_195332_Amundsen.all.mb56.gz 23.29MB Simrad multibeam vendor format
0020_20050827_175125_Amundsen.all.mb56.gz 38.65MB Simrad multibeam vendor format
0020_20050831_030348_Amundsen.all.mb56.gz 35.37MB Simrad multibeam vendor format
0020_20050901_133423_Amundsen.all.mb56.gz 15.05MB Simrad multibeam vendor format
0020_20050903_222718_Amundsen.all.mb56.gz 18.36MB Simrad multibeam vendor format
0020_20050905_053018_Amundsen.all.mb56.gz 9.49MB Simrad multibeam vendor format
0020_20050907_133015_Amundsen.all.mb56.gz 25.53MB Simrad multibeam vendor format
0020_20050911_093244_Amundsen.all.mb56.gz 23.70MB Simrad multibeam vendor format
0020_20050914_112733_Amundsen.all.mb56.gz 15.08MB Simrad multibeam vendor format
0020_20050915_012052_Amundsen.all.mb56.gz 31.61MB Simrad multibeam vendor format
0020_20050916_102657_Amundsen.all.mb56.gz 21.77MB Simrad multibeam vendor format
0020_20050919_023850_Amundsen.all.mb56.gz 24.90MB Simrad multibeam vendor format
0020_20050921_062128_Amundsen.all.mb56.gz 10.22MB Simrad multibeam vendor format
0020_20050923_045415_Amundsen.all.mb56.gz 13.73MB Simrad multibeam vendor format
0020_20050927_062940_Amundsen.all.mb56.gz 21.53MB Simrad multibeam vendor format
0020_20051002_055434_Amundsen.all.mb56.gz 35.76MB Simrad multibeam vendor format
0020_20051006_054853_Amundsen.all.mb56.gz 50.96MB Simrad multibeam vendor format
0020_20051010_093402_Amundsen.all.mb56.gz 48.71MB Simrad multibeam vendor format
0020_20051015_112919_Amundsen.all.mb56.gz 30.12MB Simrad multibeam vendor format
0020_20051018_142159_Amundsen.all.mb56.gz 29.15MB Simrad multibeam vendor format
0020_20051022_173052_Amundsen.all.mb56.gz 30.72MB Simrad multibeam vendor format
0020_20051024_214508_Amundsen.all.mb56.gz 30.79MB Simrad multibeam vendor format
0021_20050806_055630_ShipName.all.mb56.gz 16.25MB Simrad multibeam vendor format
0021_20050807_002612_ShipName.all.mb56.gz 29.19MB Simrad multibeam vendor format
0021_20050809_054641_Amundsen.all.mb56.gz 7.80MB Simrad multibeam vendor format
0021_20050810_102603_Amundsen.all.mb56.gz 8.47MB Simrad multibeam vendor format
0021_20050811_145940_Amundsen.all.mb56.gz 13.52MB Simrad multibeam vendor format
0021_20050818_054002_Amundsen.all.mb56.gz 25.88MB Simrad multibeam vendor format
0021_20050822_165809_Amundsen.all.mb56.gz 12.47MB Simrad multibeam vendor format
0021_20050825_202332_Amundsen.all.mb56.gz 23.81MB Simrad multibeam vendor format
0021_20050827_182125_Amundsen.all.mb56.gz 38.58MB Simrad multibeam vendor format
0021_20050831_033348_Amundsen.all.mb56.gz 30.96MB Simrad multibeam vendor format
0021_20050901_140423_Amundsen.all.mb56.gz 19.99MB Simrad multibeam vendor format
0021_20050903_225718_Amundsen.all.mb56.gz 19.89MB Simrad multibeam vendor format
0021_20050905_060018_Amundsen.all.mb56.gz 7.94MB Simrad multibeam vendor format
0021_20050907_140015_Amundsen.all.mb56.gz 36.88MB Simrad multibeam vendor format
0021_20050911_100244_Amundsen.all.mb56.gz 23.89MB Simrad multibeam vendor format
0021_20050914_115733_Amundsen.all.mb56.gz 17.76MB Simrad multibeam vendor format
0021_20050915_015052_Amundsen.all.mb56.gz 25.99MB Simrad multibeam vendor format
0021_20050916_105657_Amundsen.all.mb56.gz 17.16MB Simrad multibeam vendor format
0021_20050919_030850_Amundsen.all.mb56.gz 25.31MB Simrad multibeam vendor format
0021_20050921_065128_Amundsen.all.mb56.gz 10.62MB Simrad multibeam vendor format
0021_20050923_052415_Amundsen.all.mb56.gz 14.46MB Simrad multibeam vendor format
0021_20050927_065940_Amundsen.all.mb56.gz 20.96MB Simrad multibeam vendor format
0021_20051002_062434_Amundsen.all.mb56.gz 35.43MB Simrad multibeam vendor format
0021_20051006_061853_Amundsen.all.mb56.gz 50.05MB Simrad multibeam vendor format
0021_20051010_100402_Amundsen.all.mb56.gz 47.79MB Simrad multibeam vendor format
0021_20051015_115919_Amundsen.all.mb56.gz 45.02MB Simrad multibeam vendor format
0021_20051018_145159_Amundsen.all.mb56.gz 31.38MB Simrad multibeam vendor format
0021_20051022_180052_Amundsen.all.mb56.gz 29.74MB Simrad multibeam vendor format
0021_20051024_221508_Amundsen.all.mb56.gz 28.17MB Simrad multibeam vendor format
0022_20050806_062630_ShipName.all.mb56.gz 16.28MB Simrad multibeam vendor format
0022_20050807_005612_ShipName.all.mb56.gz 30.89MB Simrad multibeam vendor format
0022_20050809_061641_Amundsen.all.mb56.gz 7.75MB Simrad multibeam vendor format
0022_20050810_105603_Amundsen.all.mb56.gz 8.68MB Simrad multibeam vendor format
0022_20050811_152940_Amundsen.all.mb56.gz 14.33MB Simrad multibeam vendor format
0022_20050818_061002_Amundsen.all.mb56.gz 28.91MB Simrad multibeam vendor format
0022_20050822_172809_Amundsen.all.mb56.gz 13.22MB Simrad multibeam vendor format
0022_20050825_205332_Amundsen.all.mb56.gz 23.39MB Simrad multibeam vendor format
0022_20050827_185125_Amundsen.all.mb56.gz 37.71MB Simrad multibeam vendor format
0022_20050831_040348_Amundsen.all.mb56.gz 30.73MB Simrad multibeam vendor format
0022_20050901_143423_Amundsen.all.mb56.gz 25.09MB Simrad multibeam vendor format
0022_20050903_232718_Amundsen.all.mb56.gz 22.86MB Simrad multibeam vendor format
0022_20050905_063018_Amundsen.all.mb56.gz 7.03MB Simrad multibeam vendor format
0022_20050907_143015_Amundsen.all.mb56.gz 38.16MB Simrad multibeam vendor format
0022_20050911_103244_Amundsen.all.mb56.gz 24.09MB Simrad multibeam vendor format
0022_20050914_122733_Amundsen.all.mb56.gz 16.77MB Simrad multibeam vendor format
0022_20050915_022052_Amundsen.all.mb56.gz 28.65MB Simrad multibeam vendor format
0022_20050916_112657_Amundsen.all.mb56.gz 23.54MB Simrad multibeam vendor format
0022_20050919_033850_Amundsen.all.mb56.gz 25.71MB Simrad multibeam vendor format
0022_20050921_072128_Amundsen.all.mb56.gz 11.06MB Simrad multibeam vendor format
0022_20050923_055415_Amundsen.all.mb56.gz 15.39MB Simrad multibeam vendor format
0022_20050927_072940_Amundsen.all.mb56.gz 21.55MB Simrad multibeam vendor format
0022_20051002_065434_Amundsen.all.mb56.gz 32.74MB Simrad multibeam vendor format
0022_20051006_064853_Amundsen.all.mb56.gz 42.19MB Simrad multibeam vendor format
0022_20051010_103402_Amundsen.all.mb56.gz 48.00MB Simrad multibeam vendor format
0022_20051015_122919_Amundsen.all.mb56.gz 59.91MB Simrad multibeam vendor format
0022_20051018_152159_Amundsen.all.mb56.gz 31.82MB Simrad multibeam vendor format
0022_20051022_183052_Amundsen.all.mb56.gz 30.14MB Simrad multibeam vendor format
0022_20051024_224508_Amundsen.all.mb56.gz 30.69MB Simrad multibeam vendor format
0023_20050806_065630_ShipName.all.mb56.gz 16.36MB Simrad multibeam vendor format
0023_20050807_012612_ShipName.all.mb56.gz 30.46MB Simrad multibeam vendor format
0023_20050809_064641_Amundsen.all.mb56.gz 7.80MB Simrad multibeam vendor format
0023_20050810_112603_Amundsen.all.mb56.gz 8.91MB Simrad multibeam vendor format
0023_20050811_155940_Amundsen.all.mb56.gz 14.11MB Simrad multibeam vendor format
0023_20050818_064002_Amundsen.all.mb56.gz 23.51MB Simrad multibeam vendor format
0023_20050822_175809_Amundsen.all.mb56.gz 13.23MB Simrad multibeam vendor format
0023_20050825_212332_Amundsen.all.mb56.gz 23.43MB Simrad multibeam vendor format
0023_20050827_192125_Amundsen.all.mb56.gz 37.82MB Simrad multibeam vendor format
0023_20050831_043348_Amundsen.all.mb56.gz 31.09MB Simrad multibeam vendor format
0023_20050901_150423_Amundsen.all.mb56.gz 27.00MB Simrad multibeam vendor format
0023_20050903_235718_Amundsen.all.mb56.gz 26.00MB Simrad multibeam vendor format
0023_20050905_070018_Amundsen.all.mb56.gz 8.14MB Simrad multibeam vendor format
0023_20050907_150015_Amundsen.all.mb56.gz 38.83MB Simrad multibeam vendor format
0023_20050911_110244_Amundsen.all.mb56.gz 23.74MB Simrad multibeam vendor format
0023_20050914_125733_Amundsen.all.mb56.gz 18.14MB Simrad multibeam vendor format
0023_20050915_025052_Amundsen.all.mb56.gz 37.84MB Simrad multibeam vendor format
0023_20050916_115657_Amundsen.all.mb56.gz 24.03MB Simrad multibeam vendor format
0023_20050919_040850_Amundsen.all.mb56.gz 22.87MB Simrad multibeam vendor format
0023_20050921_075128_Amundsen.all.mb56.gz 11.83MB Simrad multibeam vendor format
0023_20050923_062415_Amundsen.all.mb56.gz 16.50MB Simrad multibeam vendor format
0023_20050927_075940_Amundsen.all.mb56.gz 22.00MB Simrad multibeam vendor format
0023_20051002_072434_Amundsen.all.mb56.gz 35.25MB Simrad multibeam vendor format
0023_20051006_071853_Amundsen.all.mb56.gz 44.77MB Simrad multibeam vendor format
0023_20051010_110402_Amundsen.all.mb56.gz 47.38MB Simrad multibeam vendor format
0023_20051015_125919_Amundsen.all.mb56.gz 56.24MB Simrad multibeam vendor format
0023_20051018_155159_Amundsen.all.mb56.gz 31.78MB Simrad multibeam vendor format
0023_20051022_190052_Amundsen.all.mb56.gz 28.42MB Simrad multibeam vendor format
0023_20051024_231508_Amundsen.all.mb56.gz 31.65MB Simrad multibeam vendor format
0024_20050806_072630_ShipName.all.mb56.gz 16.19MB Simrad multibeam vendor format
0024_20050807_015612_ShipName.all.mb56.gz 31.08MB Simrad multibeam vendor format
0024_20050809_071641_Amundsen.all.mb56.gz 7.77MB Simrad multibeam vendor format
0024_20050810_115603_Amundsen.all.mb56.gz 5.80MB Simrad multibeam vendor format
0024_20050811_162940_Amundsen.all.mb56.gz 13.83MB Simrad multibeam vendor format
0024_20050818_070746_Amundsen.all.mb56.gz 26.21MB Simrad multibeam vendor format
0024_20050822_182809_Amundsen.all.mb56.gz 7.06MB Simrad multibeam vendor format
0024_20050825_215332_Amundsen.all.mb56.gz 21.54MB Simrad multibeam vendor format
0024_20050827_195125_Amundsen.all.mb56.gz 38.08MB Simrad multibeam vendor format
0024_20050831_050348_Amundsen.all.mb56.gz 28.92MB Simrad multibeam vendor format
0024_20050901_153423_Amundsen.all.mb56.gz 28.47MB Simrad multibeam vendor format
0024_20050904_002718_Amundsen.all.mb56.gz 31.29MB Simrad multibeam vendor format
0024_20050905_073018_Amundsen.all.mb56.gz 4.89MB Simrad multibeam vendor format
0024_20050907_153015_Amundsen.all.mb56.gz 39.44MB Simrad multibeam vendor format
0024_20050911_113244_Amundsen.all.mb56.gz 23.75MB Simrad multibeam vendor format
0024_20050914_132733_Amundsen.all.mb56.gz 26.38MB Simrad multibeam vendor format
0024_20050915_032052_Amundsen.all.mb56.gz 43.25MB Simrad multibeam vendor format
0024_20050916_122657_Amundsen.all.mb56.gz 3.60MB Simrad multibeam vendor format
0024_20050919_043850_Amundsen.all.mb56.gz 17.49MB Simrad multibeam vendor format
0024_20050921_082128_Amundsen.all.mb56.gz 12.61MB Simrad multibeam vendor format
0024_20050923_065415_Amundsen.all.mb56.gz 22.62MB Simrad multibeam vendor format
0024_20050927_082940_Amundsen.all.mb56.gz 18.49MB Simrad multibeam vendor format
0024_20051002_075434_Amundsen.all.mb56.gz 36.70MB Simrad multibeam vendor format
0024_20051006_074853_Amundsen.all.mb56.gz 50.40MB Simrad multibeam vendor format
0024_20051010_113402_Amundsen.all.mb56.gz 48.42MB Simrad multibeam vendor format
0024_20051015_132919_Amundsen.all.mb56.gz 58.19MB Simrad multibeam vendor format
0024_20051018_162159_Amundsen.all.mb56.gz 27.70MB Simrad multibeam vendor format
0024_20051022_193052_Amundsen.all.mb56.gz 29.90MB Simrad multibeam vendor format
0024_20051024_234508_Amundsen.all.mb56.gz 30.17MB Simrad multibeam vendor format
0025_20050806_075630_ShipName.all.mb56.gz 16.24MB Simrad multibeam vendor format
0025_20050807_022612_ShipName.all.mb56.gz 33.21MB Simrad multibeam vendor format
0025_20050809_074641_Amundsen.all.mb56.gz 7.78MB Simrad multibeam vendor format
0025_20050810_121508_Amundsen.all.mb56.gz 9.12MB Simrad multibeam vendor format
0025_20050811_165940_Amundsen.all.mb56.gz 13.67MB Simrad multibeam vendor format
0025_20050818_073746_Amundsen.all.mb56.gz 22.34MB Simrad multibeam vendor format
0025_20050822_184431_Amundsen.all.mb56.gz 11.17MB Simrad multibeam vendor format
0025_20050825_222332_Amundsen.all.mb56.gz 24.03MB Simrad multibeam vendor format
0025_20050827_202125_Amundsen.all.mb56.gz 38.09MB Simrad multibeam vendor format
0025_20050831_053348_Amundsen.all.mb56.gz 27.81MB Simrad multibeam vendor format
0025_20050901_160423_Amundsen.all.mb56.gz 25.31MB Simrad multibeam vendor format
0025_20050904_005718_Amundsen.all.mb56.gz 31.60MB Simrad multibeam vendor format
0025_20050905_074810_Amundsen.all.mb56.gz 8.22MB Simrad multibeam vendor format
0025_20050907_160015_Amundsen.all.mb56.gz 39.27MB Simrad multibeam vendor format
0025_20050911_120244_Amundsen.all.mb56.gz 23.81MB Simrad multibeam vendor format
0025_20050914_135733_Amundsen.all.mb56.gz 24.58MB Simrad multibeam vendor format
0025_20050915_035052_Amundsen.all.mb56.gz 17.08MB Simrad multibeam vendor format
0025_20050916_135254_Amundsen.all.mb56.gz 25.55MB Simrad multibeam vendor format
0025_20050919_050850_Amundsen.all.mb56.gz 15.89MB Simrad multibeam vendor format
0025_20050921_085128_Amundsen.all.mb56.gz 13.10MB Simrad multibeam vendor format
0025_20050923_072415_Amundsen.all.mb56.gz 22.60MB Simrad multibeam vendor format
0025_20050927_085940_Amundsen.all.mb56.gz 27.62MB Simrad multibeam vendor format
0025_20051002_082434_Amundsen.all.mb56.gz 37.26MB Simrad multibeam vendor format
0025_20051006_081853_Amundsen.all.mb56.gz 46.81MB Simrad multibeam vendor format
0025_20051010_120402_Amundsen.all.mb56.gz 0.53MB Simrad multibeam vendor format
0025_20051015_135919_Amundsen.all.mb56.gz 57.95MB Simrad multibeam vendor format
0025_20051018_165159_Amundsen.all.mb56.gz 28.05MB Simrad multibeam vendor format
0025_20051022_200052_Amundsen.all.mb56.gz 28.36MB Simrad multibeam vendor format
0025_20051025_001508_Amundsen.all.mb56.gz 32.08MB Simrad multibeam vendor format
0026_20050806_082630_ShipName.all.mb56.gz 16.21MB Simrad multibeam vendor format
0026_20050807_025612_ShipName.all.mb56.gz 33.22MB Simrad multibeam vendor format
0026_20050809_081641_Amundsen.all.mb56.gz 7.78MB Simrad multibeam vendor format
0026_20050810_124508_Amundsen.all.mb56.gz 9.28MB Simrad multibeam vendor format
0026_20050811_172940_Amundsen.all.mb56.gz 13.96MB Simrad multibeam vendor format
0026_20050818_080746_Amundsen.all.mb56.gz 16.69MB Simrad multibeam vendor format
0026_20050822_191431_Amundsen.all.mb56.gz 11.33MB Simrad multibeam vendor format
0026_20050825_225332_Amundsen.all.mb56.gz 24.09MB Simrad multibeam vendor format
0026_20050827_205125_Amundsen.all.mb56.gz 37.59MB Simrad multibeam vendor format
0026_20050831_060348_Amundsen.all.mb56.gz 30.27MB Simrad multibeam vendor format
0026_20050901_163423_Amundsen.all.mb56.gz 24.06MB Simrad multibeam vendor format
0026_20050904_012718_Amundsen.all.mb56.gz 22.80MB Simrad multibeam vendor format
0026_20050905_081810_Amundsen.all.mb56.gz 8.14MB Simrad multibeam vendor format
0026_20050907_163015_Amundsen.all.mb56.gz 39.25MB Simrad multibeam vendor format
0026_20050911_123244_Amundsen.all.mb56.gz 23.66MB Simrad multibeam vendor format
0026_20050914_142733_Amundsen.all.mb56.gz 27.22MB Simrad multibeam vendor format
0026_20050916_142254_Amundsen.all.mb56.gz 26.54MB Simrad multibeam vendor format
0026_20050919_053850_Amundsen.all.mb56.gz 15.58MB Simrad multibeam vendor format
0026_20050921_092128_Amundsen.all.mb56.gz 21.94MB Simrad multibeam vendor format
0026_20050923_075415_Amundsen.all.mb56.gz 22.07MB Simrad multibeam vendor format
0026_20050927_092940_Amundsen.all.mb56.gz 28.55MB Simrad multibeam vendor format
0026_20051002_085434_Amundsen.all.mb56.gz 33.97MB Simrad multibeam vendor format
0026_20051006_084853_Amundsen.all.mb56.gz 46.73MB Simrad multibeam vendor format
0026_20051010_165717_Amundsen.all.mb56.gz 49.35MB Simrad multibeam vendor format
0026_20051015_142919_Amundsen.all.mb56.gz 39.55MB Simrad multibeam vendor format
0026_20051018_172159_Amundsen.all.mb56.gz 28.33MB Simrad multibeam vendor format
0026_20051022_203052_Amundsen.all.mb56.gz 27.25MB Simrad multibeam vendor format
0026_20051025_004508_Amundsen.all.mb56.gz 31.13MB Simrad multibeam vendor format
0027_20050806_085630_ShipName.all.mb56.gz 16.09MB Simrad multibeam vendor format
0027_20050807_032612_ShipName.all.mb56.gz 31.49MB Simrad multibeam vendor format
0027_20050809_084641_Amundsen.all.mb56.gz 7.79MB Simrad multibeam vendor format
0027_20050810_131508_Amundsen.all.mb56.gz 358.6KB Simrad multibeam vendor format
0027_20050811_175940_Amundsen.all.mb56.gz 14.32MB Simrad multibeam vendor format
0027_20050818_083746_Amundsen.all.mb56.gz 7.91MB Simrad multibeam vendor format
0027_20050822_194431_Amundsen.all.mb56.gz 11.19MB Simrad multibeam vendor format
0027_20050825_232332_Amundsen.all.mb56.gz 22.69MB Simrad multibeam vendor format
0027_20050827_212125_Amundsen.all.mb56.gz 38.38MB Simrad multibeam vendor format
0027_20050831_063348_Amundsen.all.mb56.gz 33.48MB Simrad multibeam vendor format
0027_20050901_170423_Amundsen.all.mb56.gz 20.46MB Simrad multibeam vendor format
0027_20050904_015718_Amundsen.all.mb56.gz 16.53MB Simrad multibeam vendor format
0027_20050905_084810_Amundsen.all.mb56.gz 8.04MB Simrad multibeam vendor format
0027_20050907_170015_Amundsen.all.mb56.gz 41.33MB Simrad multibeam vendor format
0027_20050911_130244_Amundsen.all.mb56.gz 23.84MB Simrad multibeam vendor format
0027_20050914_145733_Amundsen.all.mb56.gz 30.34MB Simrad multibeam vendor format
0027_20050916_145254_Amundsen.all.mb56.gz 29.80MB Simrad multibeam vendor format
0027_20050919_060850_Amundsen.all.mb56.gz 15.56MB Simrad multibeam vendor format
0027_20050921_095128_Amundsen.all.mb56.gz 43.44MB Simrad multibeam vendor format
0027_20050923_082415_Amundsen.all.mb56.gz 23.27MB Simrad multibeam vendor format
0027_20050927_095941_Amundsen.all.mb56.gz 27.54MB Simrad multibeam vendor format
0027_20051002_092434_Amundsen.all.mb56.gz 34.58MB Simrad multibeam vendor format
0027_20051006_091853_Amundsen.all.mb56.gz 48.20MB Simrad multibeam vendor format
0027_20051010_172717_Amundsen.all.mb56.gz 50.42MB Simrad multibeam vendor format
0027_20051015_145919_Amundsen.all.mb56.gz 45.85MB Simrad multibeam vendor format
0027_20051018_175159_Amundsen.all.mb56.gz 28.67MB Simrad multibeam vendor format
0027_20051022_210052_Amundsen.all.mb56.gz 22.77MB Simrad multibeam vendor format
0027_20051025_011508_Amundsen.all.mb56.gz 29.79MB Simrad multibeam vendor format
0028_20050806_092630_ShipName.all.mb56.gz 16.12MB Simrad multibeam vendor format
0028_20050807_035612_ShipName.all.mb56.gz 30.03MB Simrad multibeam vendor format
0028_20050809_091641_Amundsen.all.mb56.gz 7.78MB Simrad multibeam vendor format
0028_20050810_131616_Amundsen.all.mb56.gz 9.48MB Simrad multibeam vendor format
0028_20050811_182940_Amundsen.all.mb56.gz 14.94MB Simrad multibeam vendor format
0028_20050818_193958_Amundsen.all.mb56.gz 16.35MB Simrad multibeam vendor format
0028_20050822_201431_Amundsen.all.mb56.gz 11.05MB Simrad multibeam vendor format
0028_20050825_235332_Amundsen.all.mb56.gz 17.24MB Simrad multibeam vendor format
0028_20050827_215125_Amundsen.all.mb56.gz 37.98MB Simrad multibeam vendor format
0028_20050831_070348_Amundsen.all.mb56.gz 35.92MB Simrad multibeam vendor format
0028_20050901_185510_Amundsen.all.mb56.gz 20.93MB Simrad multibeam vendor format
0028_20050904_022718_Amundsen.all.mb56.gz 15.76MB Simrad multibeam vendor format
0028_20050905_091810_Amundsen.all.mb56.gz 8.02MB Simrad multibeam vendor format
0028_20050907_173015_Amundsen.all.mb56.gz 40.50MB Simrad multibeam vendor format
0028_20050911_133244_Amundsen.all.mb56.gz 24.21MB Simrad multibeam vendor format
0028_20050914_152733_Amundsen.all.mb56.gz 23.56MB Simrad multibeam vendor format
0028_20050916_152254_Amundsen.all.mb56.gz 30.79MB Simrad multibeam vendor format
0028_20050919_063850_Amundsen.all.mb56.gz 15.64MB Simrad multibeam vendor format
0028_20050921_102128_Amundsen.all.mb56.gz 37.37MB Simrad multibeam vendor format
0028_20050923_085415_Amundsen.all.mb56.gz 22.31MB Simrad multibeam vendor format
0028_20050927_102940_Amundsen.all.mb56.gz 30.60MB Simrad multibeam vendor format
0028_20051002_095434_Amundsen.all.mb56.gz 34.59MB Simrad multibeam vendor format
0028_20051006_094853_Amundsen.all.mb56.gz 44.74MB Simrad multibeam vendor format
0028_20051010_175717_Amundsen.all.mb56.gz 53.59MB Simrad multibeam vendor format
0028_20051015_152919_Amundsen.all.mb56.gz 58.75MB Simrad multibeam vendor format
0028_20051018_182159_Amundsen.all.mb56.gz 27.91MB Simrad multibeam vendor format
0028_20051022_213052_Amundsen.all.mb56.gz 20.97MB Simrad multibeam vendor format
0028_20051025_014508_Amundsen.all.mb56.gz 29.23MB Simrad multibeam vendor format
0029_20050806_095630_ShipName.all.mb56.gz 16.28MB Simrad multibeam vendor format
0029_20050807_042612_ShipName.all.mb56.gz 29.55MB Simrad multibeam vendor format
0029_20050809_094641_Amundsen.all.mb56.gz 7.80MB Simrad multibeam vendor format
0029_20050810_134616_Amundsen.all.mb56.gz 9.20MB Simrad multibeam vendor format
0029_20050811_185940_Amundsen.all.mb56.gz 19.61MB Simrad multibeam vendor format
0029_20050818_200958_Amundsen.all.mb56.gz 16.26MB Simrad multibeam vendor format
0029_20050822_204431_Amundsen.all.mb56.gz 10.61MB Simrad multibeam vendor format
0029_20050826_002332_Amundsen.all.mb56.gz 16.29MB Simrad multibeam vendor format
0029_20050827_222125_Amundsen.all.mb56.gz 37.47MB Simrad multibeam vendor format
0029_20050831_073348_Amundsen.all.mb56.gz 37.37MB Simrad multibeam vendor format
0029_20050901_192510_Amundsen.all.mb56.gz 16.94MB Simrad multibeam vendor format
0029_20050904_025718_Amundsen.all.mb56.gz 16.45MB Simrad multibeam vendor format
0029_20050905_094810_Amundsen.all.mb56.gz 8.06MB Simrad multibeam vendor format
0029_20050907_180015_Amundsen.all.mb56.gz 41.94MB Simrad multibeam vendor format
0029_20050911_140244_Amundsen.all.mb56.gz 23.81MB Simrad multibeam vendor format
0029_20050916_155254_Amundsen.all.mb56.gz 32.64MB Simrad multibeam vendor format
0029_20050919_070850_Amundsen.all.mb56.gz 15.07MB Simrad multibeam vendor format
0029_20050921_105128_Amundsen.all.mb56.gz 39.27MB Simrad multibeam vendor format
0029_20050923_092415_Amundsen.all.mb56.gz 22.81MB Simrad multibeam vendor format
0029_20051002_102434_Amundsen.all.mb56.gz 36.44MB Simrad multibeam vendor format
0029_20051006_101853_Amundsen.all.mb56.gz 23.32MB Simrad multibeam vendor format
0029_20051010_182717_Amundsen.all.mb56.gz 496.6KB Simrad multibeam vendor format
0029_20051015_155919_Amundsen.all.mb56.gz 55.05MB Simrad multibeam vendor format
0029_20051018_185159_Amundsen.all.mb56.gz 25.69MB Simrad multibeam vendor format
0029_20051022_220052_Amundsen.all.mb56.gz 25.27MB Simrad multibeam vendor format
0029_20051025_021508_Amundsen.all.mb56.gz 30.52MB Simrad multibeam vendor format
0030_20050806_102630_ShipName.all.mb56.gz 17.05MB Simrad multibeam vendor format
0030_20050807_045612_ShipName.all.mb56.gz 29.06MB Simrad multibeam vendor format
0030_20050809_101641_Amundsen.all.mb56.gz 7.82MB Simrad multibeam vendor format
0030_20050810_141616_Amundsen.all.mb56.gz 8.91MB Simrad multibeam vendor format
0030_20050811_192940_Amundsen.all.mb56.gz 20.91MB Simrad multibeam vendor format
0030_20050818_203958_Amundsen.all.mb56.gz 16.44MB Simrad multibeam vendor format
0030_20050822_211431_Amundsen.all.mb56.gz 10.81MB Simrad multibeam vendor format
0030_20050826_005332_Amundsen.all.mb56.gz 15.99MB Simrad multibeam vendor format
0030_20050827_225125_Amundsen.all.mb56.gz 37.33MB Simrad multibeam vendor format
0030_20050831_080348_Amundsen.all.mb56.gz 35.61MB Simrad multibeam vendor format
0030_20050901_195510_Amundsen.all.mb56.gz 14.49MB Simrad multibeam vendor format
0030_20050904_032718_Amundsen.all.mb56.gz 16.38MB Simrad multibeam vendor format
0030_20050905_101810_Amundsen.all.mb56.gz 8.07MB Simrad multibeam vendor format
0030_20050907_183015_Amundsen.all.mb56.gz 42.60MB Simrad multibeam vendor format
0030_20050911_143244_Amundsen.all.mb56.gz 24.11MB Simrad multibeam vendor format
0030_20050916_162254_Amundsen.all.mb56.gz 32.30MB Simrad multibeam vendor format
0030_20050919_073850_Amundsen.all.mb56.gz 14.88MB Simrad multibeam vendor format
0030_20050921_112128_Amundsen.all.mb56.gz 46.65MB Simrad multibeam vendor format
0030_20050923_095415_Amundsen.all.mb56.gz 19.70MB Simrad multibeam vendor format
0030_20050927_112941_Amundsen.all.mb56.gz 27.49MB Simrad multibeam vendor format
0030_20051002_105434_Amundsen.all.mb56.gz 43.20MB Simrad multibeam vendor format
0030_20051006_104853_Amundsen.all.mb56.gz 3.24MB Simrad multibeam vendor format
0030_20051011_011151_Amundsen.all.mb56.gz 53.26MB Simrad multibeam vendor format
0030_20051015_162919_Amundsen.all.mb56.gz 57.62MB Simrad multibeam vendor format
0030_20051018_192159_Amundsen.all.mb56.gz 27.91MB Simrad multibeam vendor format
0030_20051022_223052_Amundsen.all.mb56.gz 26.71MB Simrad multibeam vendor format
0030_20051025_024508_Amundsen.all.mb56.gz 19.42MB Simrad multibeam vendor format
0031_20050806_105630_ShipName.all.mb56.gz 22.32MB Simrad multibeam vendor format
0031_20050807_052612_ShipName.all.mb56.gz 27.92MB Simrad multibeam vendor format
0031_20050809_104641_Amundsen.all.mb56.gz 7.79MB Simrad multibeam vendor format
0031_20050810_144616_Amundsen.all.mb56.gz 8.80MB Simrad multibeam vendor format
0031_20050811_195940_Amundsen.all.mb56.gz 16.73MB Simrad multibeam vendor format
0031_20050818_210958_Amundsen.all.mb56.gz 16.03MB Simrad multibeam vendor format
0031_20050822_214431_Amundsen.all.mb56.gz 10.67MB Simrad multibeam vendor format
0031_20050826_012332_Amundsen.all.mb56.gz 16.06MB Simrad multibeam vendor format
0031_20050827_232125_Amundsen.all.mb56.gz 37.13MB Simrad multibeam vendor format
0031_20050831_083348_Amundsen.all.mb56.gz 35.48MB Simrad multibeam vendor format
0031_20050901_202510_Amundsen.all.mb56.gz 16.78MB Simrad multibeam vendor format
0031_20050904_035718_Amundsen.all.mb56.gz 16.07MB Simrad multibeam vendor format
0031_20050905_104810_Amundsen.all.mb56.gz 7.99MB Simrad multibeam vendor format
0031_20050907_190015_Amundsen.all.mb56.gz 42.65MB Simrad multibeam vendor format
0031_20050911_150244_Amundsen.all.mb56.gz 24.14MB Simrad multibeam vendor format
0031_20050916_165254_Amundsen.all.mb56.gz 32.25MB Simrad multibeam vendor format
0031_20050919_080850_Amundsen.all.mb56.gz 14.80MB Simrad multibeam vendor format
0031_20050921_115128_Amundsen.all.mb56.gz 48.61MB Simrad multibeam vendor format
0031_20050923_102415_Amundsen.all.mb56.gz 20.93MB Simrad multibeam vendor format
0031_20050927_115940_Amundsen.all.mb56.gz 27.25MB Simrad multibeam vendor format
0031_20051002_112434_Amundsen.all.mb56.gz 42.11MB Simrad multibeam vendor format
0031_20051006_111853_Amundsen.all.mb56.gz 3.24MB Simrad multibeam vendor format
0031_20051011_014151_Amundsen.all.mb56.gz 53.11MB Simrad multibeam vendor format
0031_20051015_165919_Amundsen.all.mb56.gz 50.32MB Simrad multibeam vendor format
0031_20051018_195159_Amundsen.all.mb56.gz 28.64MB Simrad multibeam vendor format
0031_20051022_230052_Amundsen.all.mb56.gz 26.26MB Simrad multibeam vendor format
0031_20051025_030127_Amundsen.all.mb56.gz 34.71MB Simrad multibeam vendor format
0032_20050806_112630_ShipName.all.mb56.gz 23.96MB Simrad multibeam vendor format
0032_20050807_055612_ShipName.all.mb56.gz 27.79MB Simrad multibeam vendor format
0032_20050809_111641_Amundsen.all.mb56.gz 7.84MB Simrad multibeam vendor format
0032_20050810_151616_Amundsen.all.mb56.gz 8.82MB Simrad multibeam vendor format
0032_20050811_202940_Amundsen.all.mb56.gz 16.60MB Simrad multibeam vendor format
0032_20050818_213958_Amundsen.all.mb56.gz 1.86MB Simrad multibeam vendor format
0032_20050822_221431_Amundsen.all.mb56.gz 9.00MB Simrad multibeam vendor format
0032_20050826_015332_Amundsen.all.mb56.gz 17.88MB Simrad multibeam vendor format
0032_20050827_235125_Amundsen.all.mb56.gz 37.71MB Simrad multibeam vendor format
0032_20050831_090348_Amundsen.all.mb56.gz 23.90MB Simrad multibeam vendor format
0032_20050901_205510_Amundsen.all.mb56.gz 18.59MB Simrad multibeam vendor format
0032_20050904_042718_Amundsen.all.mb56.gz 15.67MB Simrad multibeam vendor format
0032_20050905_111810_Amundsen.all.mb56.gz 8.12MB Simrad multibeam vendor format
0032_20050907_193015_Amundsen.all.mb56.gz 42.28MB Simrad multibeam vendor format
0032_20050911_153244_Amundsen.all.mb56.gz 24.05MB Simrad multibeam vendor format
0032_20050916_172254_Amundsen.all.mb56.gz 34.73MB Simrad multibeam vendor format
0032_20050919_083850_Amundsen.all.mb56.gz 15.33MB Simrad multibeam vendor format
0032_20050921_122129_Amundsen.all.mb56.gz 35.01MB Simrad multibeam vendor format
0032_20050923_105415_Amundsen.all.mb56.gz 23.17MB Simrad multibeam vendor format
0032_20050927_122941_Amundsen.all.mb56.gz 28.66MB Simrad multibeam vendor format
0032_20051002_115434_Amundsen.all.mb56.gz 41.50MB Simrad multibeam vendor format
0032_20051006_114853_Amundsen.all.mb56.gz 3.24MB Simrad multibeam vendor format
0032_20051011_021151_Amundsen.all.mb56.gz 54.03MB Simrad multibeam vendor format
0032_20051015_172919_Amundsen.all.mb56.gz 51.66MB Simrad multibeam vendor format
0032_20051018_202159_Amundsen.all.mb56.gz 26.31MB Simrad multibeam vendor format
0032_20051022_233052_Amundsen.all.mb56.gz 24.92MB Simrad multibeam vendor format
0032_20051025_033127_Amundsen.all.mb56.gz 38.73MB Simrad multibeam vendor format
0033_20050806_115630_ShipName.all.mb56.gz 19.85MB Simrad multibeam vendor format
0033_20050807_062612_ShipName.all.mb56.gz 30.06MB Simrad multibeam vendor format
0033_20050809_114641_Amundsen.all.mb56.gz 7.79MB Simrad multibeam vendor format
0033_20050810_154616_Amundsen.all.mb56.gz 8.67MB Simrad multibeam vendor format
0033_20050811_205940_Amundsen.all.mb56.gz 16.65MB Simrad multibeam vendor format
0033_20050818_231730_Amundsen.all.mb56.gz 20.75MB Simrad multibeam vendor format
0033_20050823_020339_Amundsen.all.mb56.gz 8.63MB Simrad multibeam vendor format
0033_20050826_022332_Amundsen.all.mb56.gz 18.22MB Simrad multibeam vendor format
0033_20050828_002125_Amundsen.all.mb56.gz 37.56MB Simrad multibeam vendor format
0033_20050831_093348_Amundsen.all.mb56.gz 24.51MB Simrad multibeam vendor format
0033_20050901_212510_Amundsen.all.mb56.gz 22.34MB Simrad multibeam vendor format
0033_20050904_045718_Amundsen.all.mb56.gz 16.42MB Simrad multibeam vendor format
0033_20050905_114810_Amundsen.all.mb56.gz 8.58MB Simrad multibeam vendor format
0033_20050907_200015_Amundsen.all.mb56.gz 42.25MB Simrad multibeam vendor format
0033_20050911_160244_Amundsen.all.mb56.gz 24.24MB Simrad multibeam vendor format
0033_20050916_175254_Amundsen.all.mb56.gz 40.17MB Simrad multibeam vendor format
0033_20050919_090850_Amundsen.all.mb56.gz 15.43MB Simrad multibeam vendor format
0033_20050921_125129_Amundsen.all.mb56.gz 26.50MB Simrad multibeam vendor format
0033_20050923_112415_Amundsen.all.mb56.gz 19.00MB Simrad multibeam vendor format
0033_20050927_162244_Amundsen.all.mb56.gz 11.03MB Simrad multibeam vendor format
0033_20051002_122434_Amundsen.all.mb56.gz 42.64MB Simrad multibeam vendor format
0033_20051006_121853_Amundsen.all.mb56.gz 3.24MB Simrad multibeam vendor format
0033_20051011_024151_Amundsen.all.mb56.gz 50.73MB Simrad multibeam vendor format
0033_20051015_175919_Amundsen.all.mb56.gz 53.00MB Simrad multibeam vendor format
0033_20051019_025250_Amundsen.all.mb56.gz 32.77MB Simrad multibeam vendor format
0033_20051023_000052_Amundsen.all.mb56.gz 29.98MB Simrad multibeam vendor format
0033_20051025_040127_Amundsen.all.mb56.gz 37.32MB Simrad multibeam vendor format
0034_20050806_122630_ShipName.all.mb56.gz 18.05MB Simrad multibeam vendor format
0034_20050807_065612_ShipName.all.mb56.gz 32.95MB Simrad multibeam vendor format
0034_20050809_121641_Amundsen.all.mb56.gz 7.50MB Simrad multibeam vendor format
0034_20050810_161616_Amundsen.all.mb56.gz 8.73MB Simrad multibeam vendor format
0034_20050811_212940_Amundsen.all.mb56.gz 16.59MB Simrad multibeam vendor format
0034_20050818_234730_Amundsen.all.mb56.gz 18.44MB Simrad multibeam vendor format
0034_20050823_023339_Amundsen.all.mb56.gz 9.67MB Simrad multibeam vendor format
0034_20050826_025332_Amundsen.all.mb56.gz 22.66MB Simrad multibeam vendor format
0034_20050828_005125_Amundsen.all.mb56.gz 37.76MB Simrad multibeam vendor format
0034_20050831_100348_Amundsen.all.mb56.gz 24.79MB Simrad multibeam vendor format
0034_20050901_215510_Amundsen.all.mb56.gz 22.10MB Simrad multibeam vendor format
0034_20050904_052718_Amundsen.all.mb56.gz 21.79MB Simrad multibeam vendor format
0034_20050905_121810_Amundsen.all.mb56.gz 8.29MB Simrad multibeam vendor format
0034_20050907_203015_Amundsen.all.mb56.gz 42.20MB Simrad multibeam vendor format
0034_20050911_163244_Amundsen.all.mb56.gz 23.17MB Simrad multibeam vendor format
0034_20050916_182254_Amundsen.all.mb56.gz 40.24MB Simrad multibeam vendor format
0034_20050919_093850_Amundsen.all.mb56.gz 15.17MB Simrad multibeam vendor format
0034_20050921_132129_Amundsen.all.mb56.gz 25.16MB Simrad multibeam vendor format
0034_20050923_115415_Amundsen.all.mb56.gz 22.26MB Simrad multibeam vendor format
0034_20050927_185701_Amundsen.all.mb56.gz 33.98MB Simrad multibeam vendor format
0034_20051002_125434_Amundsen.all.mb56.gz 41.03MB Simrad multibeam vendor format
0034_20051006_124853_Amundsen.all.mb56.gz 0.60MB Simrad multibeam vendor format
0034_20051011_031151_Amundsen.all.mb56.gz 49.78MB Simrad multibeam vendor format
0034_20051015_182919_Amundsen.all.mb56.gz 47.95MB Simrad multibeam vendor format
0034_20051019_032250_Amundsen.all.mb56.gz 22.90MB Simrad multibeam vendor format
0034_20051023_003052_Amundsen.all.mb56.gz 20.96MB Simrad multibeam vendor format
0034_20051025_043127_Amundsen.all.mb56.gz 41.21MB Simrad multibeam vendor format
0035_20050806_125630_ShipName.all.mb56.gz 18.99MB Simrad multibeam vendor format
0035_20050807_072612_ShipName.all.mb56.gz 38.56MB Simrad multibeam vendor format
0035_20050809_140229_Amundsen.all.mb56.gz 7.76MB Simrad multibeam vendor format
0035_20050810_164616_Amundsen.all.mb56.gz 8.66MB Simrad multibeam vendor format
0035_20050811_215940_Amundsen.all.mb56.gz 16.86MB Simrad multibeam vendor format
0035_20050819_001223_Amundsen.all.mb56.gz 21.06MB Simrad multibeam vendor format
0035_20050823_030339_Amundsen.all.mb56.gz 9.54MB Simrad multibeam vendor format
0035_20050826_032332_Amundsen.all.mb56.gz 22.34MB Simrad multibeam vendor format
0035_20050828_012125_Amundsen.all.mb56.gz 38.24MB Simrad multibeam vendor format
0035_20050831_103348_Amundsen.all.mb56.gz 2.40MB Simrad multibeam vendor format
0035_20050901_222510_Amundsen.all.mb56.gz 23.59MB Simrad multibeam vendor format
0035_20050904_055718_Amundsen.all.mb56.gz 19.49MB Simrad multibeam vendor format
0035_20050905_124810_Amundsen.all.mb56.gz 3.57MB Simrad multibeam vendor format
0035_20050907_210015_Amundsen.all.mb56.gz 42.06MB Simrad multibeam vendor format
0035_20050911_170244_Amundsen.all.mb56.gz 24.44MB Simrad multibeam vendor format
0035_20050916_185254_Amundsen.all.mb56.gz 40.60MB Simrad multibeam vendor format
0035_20050919_100850_Amundsen.all.mb56.gz 14.73MB Simrad multibeam vendor format
0035_20050921_135129_Amundsen.all.mb56.gz 26.25MB Simrad multibeam vendor format
0035_20050923_122415_Amundsen.all.mb56.gz 22.10MB Simrad multibeam vendor format
0035_20050927_192701_Amundsen.all.mb56.gz 38.43MB Simrad multibeam vendor format
0035_20051002_132434_Amundsen.all.mb56.gz 43.30MB Simrad multibeam vendor format
0035_20051007_024257_Amundsen.all.mb56.gz 28.17MB Simrad multibeam vendor format
0035_20051011_034151_Amundsen.all.mb56.gz 48.98MB Simrad multibeam vendor format
0035_20051015_185919_Amundsen.all.mb56.gz 52.39MB Simrad multibeam vendor format
0035_20051019_035250_Amundsen.all.mb56.gz 21.47MB Simrad multibeam vendor format
0035_20051023_010052_Amundsen.all.mb56.gz 25.72MB Simrad multibeam vendor format
0035_20051025_050127_Amundsen.all.mb56.gz 36.90MB Simrad multibeam vendor format
0036_20050806_132630_ShipName.all.mb56.gz 23.85MB Simrad multibeam vendor format
0036_20050807_075612_ShipName.all.mb56.gz 35.90MB Simrad multibeam vendor format
0036_20050809_143229_Amundsen.all.mb56.gz 7.79MB Simrad multibeam vendor format
0036_20050810_171616_Amundsen.all.mb56.gz 8.84MB Simrad multibeam vendor format
0036_20050811_222940_Amundsen.all.mb56.gz 18.75MB Simrad multibeam vendor format
0036_20050819_004223_Amundsen.all.mb56.gz 24.88MB Simrad multibeam vendor format
0036_20050823_033339_Amundsen.all.mb56.gz 10.05MB Simrad multibeam vendor format
0036_20050826_035332_Amundsen.all.mb56.gz 22.60MB Simrad multibeam vendor format
0036_20050828_015125_Amundsen.all.mb56.gz 37.99MB Simrad multibeam vendor format
0036_20050831_110502_Amundsen.all.mb56.gz 25.44MB Simrad multibeam vendor format
0036_20050901_225510_Amundsen.all.mb56.gz 24.70MB Simrad multibeam vendor format
0036_20050904_062718_Amundsen.all.mb56.gz 18.87MB Simrad multibeam vendor format
0036_20050905_130202_Amundsen.all.mb56.gz 6.91MB Simrad multibeam vendor format
0036_20050907_213015_Amundsen.all.mb56.gz 41.14MB Simrad multibeam vendor format
0036_20050911_173244_Amundsen.all.mb56.gz 24.29MB Simrad multibeam vendor format
0036_20050916_192254_Amundsen.all.mb56.gz 40.82MB Simrad multibeam vendor format
0036_20050919_103850_Amundsen.all.mb56.gz 13.83MB Simrad multibeam vendor format
0036_20050921_142129_Amundsen.all.mb56.gz 28.87MB Simrad multibeam vendor format
0036_20050923_125415_Amundsen.all.mb56.gz 1.69MB Simrad multibeam vendor format
0036_20050927_195701_Amundsen.all.mb56.gz 40.52MB Simrad multibeam vendor format
0036_20051002_135434_Amundsen.all.mb56.gz 47.13MB Simrad multibeam vendor format
0036_20051007_031258_Amundsen.all.mb56.gz 27.64MB Simrad multibeam vendor format
0036_20051011_041151_Amundsen.all.mb56.gz 49.17MB Simrad multibeam vendor format
0036_20051015_192919_Amundsen.all.mb56.gz 52.10MB Simrad multibeam vendor format
0036_20051019_042250_Amundsen.all.mb56.gz 21.01MB Simrad multibeam vendor format
0036_20051023_013052_Amundsen.all.mb56.gz 30.06MB Simrad multibeam vendor format
0036_20051025_053127_Amundsen.all.mb56.gz 32.88MB Simrad multibeam vendor format
0037_20050806_135630_ShipName.all.mb56.gz 24.17MB Simrad multibeam vendor format
0037_20050807_082612_ShipName.all.mb56.gz 30.49MB Simrad multibeam vendor format
0037_20050809_150229_Amundsen.all.mb56.gz 7.82MB Simrad multibeam vendor format
0037_20050810_174616_Amundsen.all.mb56.gz 8.84MB Simrad multibeam vendor format
0037_20050811_233004_Amundsen.all.mb56.gz 20.54MB Simrad multibeam vendor format
0037_20050819_011223_Amundsen.all.mb56.gz 27.91MB Simrad multibeam vendor format
0037_20050823_040339_Amundsen.all.mb56.gz 10.08MB Simrad multibeam vendor format
0037_20050826_042332_Amundsen.all.mb56.gz 18.25MB Simrad multibeam vendor format
0037_20050828_022125_Amundsen.all.mb56.gz 40.13MB Simrad multibeam vendor format
0037_20050831_113502_Amundsen.all.mb56.gz 27.80MB Simrad multibeam vendor format
0037_20050901_232510_Amundsen.all.mb56.gz 23.06MB Simrad multibeam vendor format
0037_20050904_065718_Amundsen.all.mb56.gz 15.98MB Simrad multibeam vendor format
0037_20050905_133202_Amundsen.all.mb56.gz 1.97MB Simrad multibeam vendor format
0037_20050907_220015_Amundsen.all.mb56.gz 40.75MB Simrad multibeam vendor format
0037_20050911_180244_Amundsen.all.mb56.gz 24.63MB Simrad multibeam vendor format
0037_20050916_195254_Amundsen.all.mb56.gz 40.51MB Simrad multibeam vendor format
0037_20050919_110850_Amundsen.all.mb56.gz 13.28MB Simrad multibeam vendor format
0037_20050921_145129_Amundsen.all.mb56.gz 48.87MB Simrad multibeam vendor format
0037_20050923_134453_Amundsen.all.mb56.gz 33.57MB Simrad multibeam vendor format
0037_20050927_202701_Amundsen.all.mb56.gz 41.90MB Simrad multibeam vendor format
0037_20051002_142434_Amundsen.all.mb56.gz 41.72MB Simrad multibeam vendor format
0037_20051007_034258_Amundsen.all.mb56.gz 27.53MB Simrad multibeam vendor format
0037_20051011_044151_Amundsen.all.mb56.gz 49.02MB Simrad multibeam vendor format
0037_20051015_195919_Amundsen.all.mb56.gz 50.71MB Simrad multibeam vendor format
0037_20051019_045250_Amundsen.all.mb56.gz 21.26MB Simrad multibeam vendor format
0037_20051023_020052_Amundsen.all.mb56.gz 33.40MB Simrad multibeam vendor format
0037_20051025_060127_Amundsen.all.mb56.gz 31.05MB Simrad multibeam vendor format
0038_20050806_142630_ShipName.all.mb56.gz 17.32MB Simrad multibeam vendor format
0038_20050807_085612_ShipName.all.mb56.gz 27.58MB Simrad multibeam vendor format
0038_20050809_153229_Amundsen.all.mb56.gz 7.90MB Simrad multibeam vendor format
0038_20050810_181616_Amundsen.all.mb56.gz 8.89MB Simrad multibeam vendor format
0038_20050811_235842_Amundsen.all.mb56.gz 13.15MB Simrad multibeam vendor format
0038_20050819_014223_Amundsen.all.mb56.gz 31.72MB Simrad multibeam vendor format
0038_20050823_043339_Amundsen.all.mb56.gz 10.27MB Simrad multibeam vendor format
0038_20050826_045332_Amundsen.all.mb56.gz 16.12MB Simrad multibeam vendor format
0038_20050828_025125_Amundsen.all.mb56.gz 38.27MB Simrad multibeam vendor format
0038_20050831_120502_Amundsen.all.mb56.gz 29.76MB Simrad multibeam vendor format
0038_20050901_235510_Amundsen.all.mb56.gz 15.71MB Simrad multibeam vendor format
0038_20050904_072718_Amundsen.all.mb56.gz 15.84MB Simrad multibeam vendor format
0038_20050905_164000_Amundsen.all.mb56.gz 7.90MB Simrad multibeam vendor format
0038_20050907_223015_Amundsen.all.mb56.gz 36.43MB Simrad multibeam vendor format
0038_20050911_183244_Amundsen.all.mb56.gz 24.19MB Simrad multibeam vendor format
0038_20050916_202254_Amundsen.all.mb56.gz 37.00MB Simrad multibeam vendor format
0038_20050919_113850_Amundsen.all.mb56.gz 12.88MB Simrad multibeam vendor format
0038_20050921_152129_Amundsen.all.mb56.gz 46.00MB Simrad multibeam vendor format
0038_20050923_141453_Amundsen.all.mb56.gz 32.14MB Simrad multibeam vendor format
0038_20050927_205701_Amundsen.all.mb56.gz 42.44MB Simrad multibeam vendor format
0038_20051002_153445_Amundsen.all.mb56.gz 46.26MB Simrad multibeam vendor format
0038_20051007_041258_Amundsen.all.mb56.gz 27.59MB Simrad multibeam vendor format
0038_20051011_051151_Amundsen.all.mb56.gz 48.57MB Simrad multibeam vendor format
0038_20051015_202919_Amundsen.all.mb56.gz 49.17MB Simrad multibeam vendor format
0038_20051019_052250_Amundsen.all.mb56.gz 21.16MB Simrad multibeam vendor format
0038_20051023_023052_Amundsen.all.mb56.gz 33.26MB Simrad multibeam vendor format
0038_20051025_063127_Amundsen.all.mb56.gz 31.47MB Simrad multibeam vendor format
0039_20050806_145912_ShipName.all.mb56.gz 3.11MB Simrad multibeam vendor format
0039_20050807_092612_ShipName.all.mb56.gz 24.52MB Simrad multibeam vendor format
0039_20050809_160229_Amundsen.all.mb56.gz 7.94MB Simrad multibeam vendor format
0039_20050810_184616_Amundsen.all.mb56.gz 3.07MB Simrad multibeam vendor format
0039_20050812_002510_Amundsen.all.mb56.gz 182.6KB Simrad multibeam vendor format
0039_20050819_021223_Amundsen.all.mb56.gz 28.90MB Simrad multibeam vendor format
0039_20050823_050339_Amundsen.all.mb56.gz 9.36MB Simrad multibeam vendor format
0039_20050826_052332_Amundsen.all.mb56.gz 16.69MB Simrad multibeam vendor format
0039_20050828_032125_Amundsen.all.mb56.gz 38.22MB Simrad multibeam vendor format
0039_20050831_123502_Amundsen.all.mb56.gz 32.22MB Simrad multibeam vendor format
0039_20050902_002510_Amundsen.all.mb56.gz 9.90MB Simrad multibeam vendor format
0039_20050904_075718_Amundsen.all.mb56.gz 14.71MB Simrad multibeam vendor format
0039_20050905_171000_Amundsen.all.mb56.gz 8.20MB Simrad multibeam vendor format
0039_20050907_230015_Amundsen.all.mb56.gz 28.12MB Simrad multibeam vendor format
0039_20050911_190244_Amundsen.all.mb56.gz 24.25MB Simrad multibeam vendor format
0039_20050916_205254_Amundsen.all.mb56.gz 34.25MB Simrad multibeam vendor format
0039_20050919_120850_Amundsen.all.mb56.gz 13.42MB Simrad multibeam vendor format
0039_20050921_155129_Amundsen.all.mb56.gz 48.23MB Simrad multibeam vendor format
0039_20050923_144453_Amundsen.all.mb56.gz 29.88MB Simrad multibeam vendor format
0039_20050927_212701_Amundsen.all.mb56.gz 41.72MB Simrad multibeam vendor format
0039_20051002_160445_Amundsen.all.mb56.gz 47.53MB Simrad multibeam vendor format
0039_20051007_044258_Amundsen.all.mb56.gz 27.41MB Simrad multibeam vendor format
0039_20051011_054151_Amundsen.all.mb56.gz 43.04MB Simrad multibeam vendor format
0039_20051015_205919_Amundsen.all.mb56.gz 48.12MB Simrad multibeam vendor format
0039_20051019_055250_Amundsen.all.mb56.gz 23.66MB Simrad multibeam vendor format
0039_20051023_030052_Amundsen.all.mb56.gz 31.73MB Simrad multibeam vendor format
0039_20051025_070127_Amundsen.all.mb56.gz 28.49MB Simrad multibeam vendor format
0040_20050807_095612_ShipName.all.mb56.gz 23.76MB Simrad multibeam vendor format
0040_20050809_163229_Amundsen.all.mb56.gz 7.94MB Simrad multibeam vendor format
0040_20050810_185639_Amundsen.all.mb56.gz 6.11MB Simrad multibeam vendor format
0040_20050812_002550_Amundsen.all.mb56.gz 4.90MB Simrad multibeam vendor format
0040_20050819_024223_Amundsen.all.mb56.gz 24.88MB Simrad multibeam vendor format
0040_20050823_053339_Amundsen.all.mb56.gz 8.52MB Simrad multibeam vendor format
0040_20050826_055332_Amundsen.all.mb56.gz 17.64MB Simrad multibeam vendor format
0040_20050828_035125_Amundsen.all.mb56.gz 38.19MB Simrad multibeam vendor format
0040_20050831_130502_Amundsen.all.mb56.gz 35.07MB Simrad multibeam vendor format
0040_20050902_005510_Amundsen.all.mb56.gz 10.84MB Simrad multibeam vendor format
0040_20050904_082718_Amundsen.all.mb56.gz 14.32MB Simrad multibeam vendor format
0040_20050905_174000_Amundsen.all.mb56.gz 8.43MB Simrad multibeam vendor format
0040_20050907_233015_Amundsen.all.mb56.gz 25.01MB Simrad multibeam vendor format
0040_20050911_193244_Amundsen.all.mb56.gz 24.16MB Simrad multibeam vendor format
0040_20050916_212254_Amundsen.all.mb56.gz 39.57MB Simrad multibeam vendor format
0040_20050919_123850_Amundsen.all.mb56.gz 15.65MB Simrad multibeam vendor format
0040_20050921_162129_Amundsen.all.mb56.gz 48.05MB Simrad multibeam vendor format
0040_20050923_151453_Amundsen.all.mb56.gz 28.99MB Simrad multibeam vendor format
0040_20050927_215701_Amundsen.all.mb56.gz 39.01MB Simrad multibeam vendor format
0040_20051002_163445_Amundsen.all.mb56.gz 30.73MB Simrad multibeam vendor format
0040_20051007_051258_Amundsen.all.mb56.gz 27.55MB Simrad multibeam vendor format
0040_20051011_061151_Amundsen.all.mb56.gz 36.02MB Simrad multibeam vendor format
0040_20051015_212919_Amundsen.all.mb56.gz 48.96MB Simrad multibeam vendor format
0040_20051019_062250_Amundsen.all.mb56.gz 24.41MB Simrad multibeam vendor format
0040_20051023_033052_Amundsen.all.mb56.gz 27.79MB Simrad multibeam vendor format
0040_20051025_073127_Amundsen.all.mb56.gz 30.45MB Simrad multibeam vendor format
0041_20050807_102612_ShipName.all.mb56.gz 24.36MB Simrad multibeam vendor format
0041_20050809_170229_Amundsen.all.mb56.gz 8.36MB Simrad multibeam vendor format
0041_20050810_191731_Amundsen.all.mb56.gz 8.45MB Simrad multibeam vendor format
0041_20050812_003316_Amundsen.all.mb56.gz 0.63MB Simrad multibeam vendor format
0041_20050819_031223_Amundsen.all.mb56.gz 18.81MB Simrad multibeam vendor format
0041_20050823_060339_Amundsen.all.mb56.gz 10.33MB Simrad multibeam vendor format
0041_20050826_062332_Amundsen.all.mb56.gz 22.39MB Simrad multibeam vendor format
0041_20050828_042125_Amundsen.all.mb56.gz 37.79MB Simrad multibeam vendor format
0041_20050831_133502_Amundsen.all.mb56.gz 44.78MB Simrad multibeam vendor format
0041_20050902_012510_Amundsen.all.mb56.gz 12.20MB Simrad multibeam vendor format
0041_20050904_085718_Amundsen.all.mb56.gz 14.22MB Simrad multibeam vendor format
0041_20050905_181000_Amundsen.all.mb56.gz 8.07MB Simrad multibeam vendor format
0041_20050908_000015_Amundsen.all.mb56.gz 23.27MB Simrad multibeam vendor format
0041_20050911_200244_Amundsen.all.mb56.gz 24.23MB Simrad multibeam vendor format
0041_20050916_215254_Amundsen.all.mb56.gz 35.63MB Simrad multibeam vendor format
0041_20050919_130850_Amundsen.all.mb56.gz 15.32MB Simrad multibeam vendor format
0041_20050921_165129_Amundsen.all.mb56.gz 45.28MB Simrad multibeam vendor format
0041_20050923_154453_Amundsen.all.mb56.gz 29.12MB Simrad multibeam vendor format
0041_20050927_222701_Amundsen.all.mb56.gz 35.57MB Simrad multibeam vendor format
0041_20051003_025328_Amundsen.all.mb56.gz 39.58MB Simrad multibeam vendor format
0041_20051007_054258_Amundsen.all.mb56.gz 27.88MB Simrad multibeam vendor format
0041_20051011_064151_Amundsen.all.mb56.gz 25.50MB Simrad multibeam vendor format
0041_20051015_215919_Amundsen.all.mb56.gz 43.86MB Simrad multibeam vendor format
0041_20051019_065250_Amundsen.all.mb56.gz 21.81MB Simrad multibeam vendor format
0041_20051023_040052_Amundsen.all.mb56.gz 25.09MB Simrad multibeam vendor format
0041_20051025_080127_Amundsen.all.mb56.gz 39.91MB Simrad multibeam vendor format
0042_20050807_105612_ShipName.all.mb56.gz 23.58MB Simrad multibeam vendor format
0042_20050809_173229_Amundsen.all.mb56.gz 9.04MB Simrad multibeam vendor format
0042_20050810_194731_Amundsen.all.mb56.gz 8.34MB Simrad multibeam vendor format
0042_20050812_003553_Amundsen.all.mb56.gz 1.00MB Simrad multibeam vendor format
0042_20050819_034223_Amundsen.all.mb56.gz 14.45MB Simrad multibeam vendor format
0042_20050823_063339_Amundsen.all.mb56.gz 10.11MB Simrad multibeam vendor format
0042_20050826_065332_Amundsen.all.mb56.gz 17.85MB Simrad multibeam vendor format
0042_20050828_045125_Amundsen.all.mb56.gz 38.52MB Simrad multibeam vendor format
0042_20050831_140502_Amundsen.all.mb56.gz 43.12MB Simrad multibeam vendor format
0042_20050902_015510_Amundsen.all.mb56.gz 16.35MB Simrad multibeam vendor format
0042_20050904_092718_Amundsen.all.mb56.gz 15.53MB Simrad multibeam vendor format
0042_20050905_184000_Amundsen.all.mb56.gz 3.03MB Simrad multibeam vendor format
0042_20050908_003015_Amundsen.all.mb56.gz 22.13MB Simrad multibeam vendor format
0042_20050911_203244_Amundsen.all.mb56.gz 18.50MB Simrad multibeam vendor format
0042_20050916_222254_Amundsen.all.mb56.gz 36.23MB Simrad multibeam vendor format
0042_20050919_133850_Amundsen.all.mb56.gz 15.07MB Simrad multibeam vendor format
0042_20050921_172129_Amundsen.all.mb56.gz 42.62MB Simrad multibeam vendor format
0042_20050923_161453_Amundsen.all.mb56.gz 7.20MB Simrad multibeam vendor format
0042_20050927_225701_Amundsen.all.mb56.gz 33.60MB Simrad multibeam vendor format
0042_20051003_032328_Amundsen.all.mb56.gz 44.27MB Simrad multibeam vendor format
0042_20051007_061258_Amundsen.all.mb56.gz 27.53MB Simrad multibeam vendor format
0042_20051011_071151_Amundsen.all.mb56.gz 39.15MB Simrad multibeam vendor format
0042_20051015_222919_Amundsen.all.mb56.gz 44.82MB Simrad multibeam vendor format
0042_20051019_072250_Amundsen.all.mb56.gz 23.01MB Simrad multibeam vendor format
0042_20051023_043052_Amundsen.all.mb56.gz 25.44MB Simrad multibeam vendor format
0042_20051025_083127_Amundsen.all.mb56.gz 29.72MB Simrad multibeam vendor format
0043_20050807_112612_ShipName.all.mb56.gz 4.15MB Simrad multibeam vendor format
0043_20050809_180229_Amundsen.all.mb56.gz 8.37MB Simrad multibeam vendor format
0043_20050810_201731_Amundsen.all.mb56.gz 1.62MB Simrad multibeam vendor format
0043_20050812_003802_Amundsen.all.mb56.gz 158.9KB Simrad multibeam vendor format
0043_20050819_041223_Amundsen.all.mb56.gz 8.37MB Simrad multibeam vendor format
0043_20050823_070339_Amundsen.all.mb56.gz 10.26MB Simrad multibeam vendor format
0043_20050826_072332_Amundsen.all.mb56.gz 20.85MB Simrad multibeam vendor format
0043_20050828_052125_Amundsen.all.mb56.gz 39.51MB Simrad multibeam vendor format
0043_20050831_143502_Amundsen.all.mb56.gz 41.23MB Simrad multibeam vendor format
0043_20050902_022510_Amundsen.all.mb56.gz 18.76MB Simrad multibeam vendor format
0043_20050904_095718_Amundsen.all.mb56.gz 16.93MB Simrad multibeam vendor format
0043_20050908_010015_Amundsen.all.mb56.gz 21.95MB Simrad multibeam vendor format
0043_20050911_210244_Amundsen.all.mb56.gz 22.64MB Simrad multibeam vendor format
0043_20050916_225254_Amundsen.all.mb56.gz 40.88MB Simrad multibeam vendor format
0043_20050919_140850_Amundsen.all.mb56.gz 16.03MB Simrad multibeam vendor format
0043_20050921_175129_Amundsen.all.mb56.gz 44.68MB Simrad multibeam vendor format
0043_20050923_170611_Amundsen.all.mb56.gz 26.08MB Simrad multibeam vendor format
0043_20050927_232701_Amundsen.all.mb56.gz 33.08MB Simrad multibeam vendor format
0043_20051003_035328_Amundsen.all.mb56.gz 47.83MB Simrad multibeam vendor format
0043_20051007_064258_Amundsen.all.mb56.gz 28.57MB Simrad multibeam vendor format
0043_20051011_074151_Amundsen.all.mb56.gz 37.76MB Simrad multibeam vendor format
0043_20051015_225919_Amundsen.all.mb56.gz 46.32MB Simrad multibeam vendor format
0043_20051019_075250_Amundsen.all.mb56.gz 23.75MB Simrad multibeam vendor format
0043_20051023_050052_Amundsen.all.mb56.gz 29.59MB Simrad multibeam vendor format
0043_20051025_090127_Amundsen.all.mb56.gz 31.26MB Simrad multibeam vendor format
0044_20050807_113458_ShipName.all.mb56.gz 304.0KB Simrad multibeam vendor format
0044_20050809_183229_Amundsen.all.mb56.gz 8.33MB Simrad multibeam vendor format
0044_20050810_202547_Amundsen.all.mb56.gz 0.58MB Simrad multibeam vendor format
0044_20050812_003830_Amundsen.all.mb56.gz 22.23MB Simrad multibeam vendor format
0044_20050819_043053_Amundsen.all.mb56.gz 12.40MB Simrad multibeam vendor format
0044_20050823_073339_Amundsen.all.mb56.gz 9.99MB Simrad multibeam vendor format
0044_20050826_075332_Amundsen.all.mb56.gz 20.87MB Simrad multibeam vendor format
0044_20050828_055125_Amundsen.all.mb56.gz 40.03MB Simrad multibeam vendor format
0044_20050831_150502_Amundsen.all.mb56.gz 39.93MB Simrad multibeam vendor format
0044_20050902_025510_Amundsen.all.mb56.gz 22.07MB Simrad multibeam vendor format
0044_20050904_102718_Amundsen.all.mb56.gz 15.65MB Simrad multibeam vendor format
0044_20050908_031842_Amundsen.all.mb56.gz 19.60MB Simrad multibeam vendor format
0044_20050911_213244_Amundsen.all.mb56.gz 24.14MB Simrad multibeam vendor format
0044_20050916_232254_Amundsen.all.mb56.gz 41.13MB Simrad multibeam vendor format
0044_20050919_143850_Amundsen.all.mb56.gz 16.63MB Simrad multibeam vendor format
0044_20050921_182129_Amundsen.all.mb56.gz 42.01MB Simrad multibeam vendor format
0044_20050923_174319_Amundsen.all.mb56.gz 4.18MB Simrad multibeam vendor format
0044_20050927_235701_Amundsen.all.mb56.gz 34.10MB Simrad multibeam vendor format
0044_20051003_042328_Amundsen.all.mb56.gz 44.07MB Simrad multibeam vendor format
0044_20051007_071258_Amundsen.all.mb56.gz 28.09MB Simrad multibeam vendor format
0044_20051011_081151_Amundsen.all.mb56.gz 36.03MB Simrad multibeam vendor format
0044_20051015_232919_Amundsen.all.mb56.gz 44.50MB Simrad multibeam vendor format
0044_20051019_082250_Amundsen.all.mb56.gz 25.80MB Simrad multibeam vendor format
0044_20051023_053052_Amundsen.all.mb56.gz 27.46MB Simrad multibeam vendor format
0044_20051025_093127_Amundsen.all.mb56.gz 35.87MB Simrad multibeam vendor format
0045_20050807_113709_ShipName.all.mb56.gz 23.47MB Simrad multibeam vendor format
0045_20050809_190229_Amundsen.all.mb56.gz 8.35MB Simrad multibeam vendor format
0045_20050810_204048_Amundsen.all.mb56.gz 4.77MB Simrad multibeam vendor format
0045_20050812_010828_Amundsen.all.mb56.gz 18.89MB Simrad multibeam vendor format
0045_20050819_050053_Amundsen.all.mb56.gz 11.47MB Simrad multibeam vendor format
0045_20050823_080339_Amundsen.all.mb56.gz 9.64MB Simrad multibeam vendor format
0045_20050826_082332_Amundsen.all.mb56.gz 20.43MB Simrad multibeam vendor format
0045_20050828_062125_Amundsen.all.mb56.gz 40.16MB Simrad multibeam vendor format
0045_20050831_153502_Amundsen.all.mb56.gz 38.66MB Simrad multibeam vendor format
0045_20050902_032510_Amundsen.all.mb56.gz 17.90MB Simrad multibeam vendor format
0045_20050904_105718_Amundsen.all.mb56.gz 15.11MB Simrad multibeam vendor format
0045_20050908_034842_Amundsen.all.mb56.gz 17.03MB Simrad multibeam vendor format
0045_20050911_220244_Amundsen.all.mb56.gz 24.09MB Simrad multibeam vendor format
0045_20050916_235254_Amundsen.all.mb56.gz 40.24MB Simrad multibeam vendor format
0045_20050919_150850_Amundsen.all.mb56.gz 16.98MB Simrad multibeam vendor format
0045_20050921_185129_Amundsen.all.mb56.gz 39.46MB Simrad multibeam vendor format
0045_20050923_182721_Amundsen.all.mb56.gz 27.09MB Simrad multibeam vendor format
0045_20050928_002701_Amundsen.all.mb56.gz 34.27MB Simrad multibeam vendor format
0045_20051003_045328_Amundsen.all.mb56.gz 47.06MB Simrad multibeam vendor format
0045_20051007_074258_Amundsen.all.mb56.gz 28.35MB Simrad multibeam vendor format
0045_20051011_084151_Amundsen.all.mb56.gz 34.81MB Simrad multibeam vendor format
0045_20051015_235919_Amundsen.all.mb56.gz 45.93MB Simrad multibeam vendor format
0045_20051019_085250_Amundsen.all.mb56.gz 25.97MB Simrad multibeam vendor format
0045_20051023_060052_Amundsen.all.mb56.gz 35.12MB Simrad multibeam vendor format
0045_20051025_100127_Amundsen.all.mb56.gz 38.92MB Simrad multibeam vendor format
0046_20050807_120709_ShipName.all.mb56.gz 23.85MB Simrad multibeam vendor format
0046_20050809_193229_Amundsen.all.mb56.gz 8.15MB Simrad multibeam vendor format
0046_20050810_210420_Amundsen.all.mb56.gz 8.32MB Simrad multibeam vendor format
0046_20050812_013828_Amundsen.all.mb56.gz 16.37MB Simrad multibeam vendor format
0046_20050819_053053_Amundsen.all.mb56.gz 11.33MB Simrad multibeam vendor format
0046_20050823_083339_Amundsen.all.mb56.gz 10.18MB Simrad multibeam vendor format
0046_20050826_085332_Amundsen.all.mb56.gz 20.30MB Simrad multibeam vendor format
0046_20050828_065125_Amundsen.all.mb56.gz 39.33MB Simrad multibeam vendor format
0046_20050831_160502_Amundsen.all.mb56.gz 35.83MB Simrad multibeam vendor format
0046_20050902_035510_Amundsen.all.mb56.gz 22.86MB Simrad multibeam vendor format
0046_20050904_112718_Amundsen.all.mb56.gz 16.05MB Simrad multibeam vendor format
0046_20050908_041842_Amundsen.all.mb56.gz 16.47MB Simrad multibeam vendor format
0046_20050911_223244_Amundsen.all.mb56.gz 24.55MB Simrad multibeam vendor format
0046_20050917_002254_Amundsen.all.mb56.gz 37.65MB Simrad multibeam vendor format
0046_20050919_153850_Amundsen.all.mb56.gz 23.29MB Simrad multibeam vendor format
0046_20050921_192129_Amundsen.all.mb56.gz 40.73MB Simrad multibeam vendor format
0046_20050923_185721_Amundsen.all.mb56.gz 21.70MB Simrad multibeam vendor format
0046_20050928_005701_Amundsen.all.mb56.gz 34.85MB Simrad multibeam vendor format
0046_20051003_052328_Amundsen.all.mb56.gz 45.67MB Simrad multibeam vendor format
0046_20051007_081258_Amundsen.all.mb56.gz 28.37MB Simrad multibeam vendor format
0046_20051011_091151_Amundsen.all.mb56.gz 32.35MB Simrad multibeam vendor format
0046_20051016_002919_Amundsen.all.mb56.gz 52.64MB Simrad multibeam vendor format
0046_20051019_092250_Amundsen.all.mb56.gz 23.67MB Simrad multibeam vendor format
0046_20051023_063052_Amundsen.all.mb56.gz 27.97MB Simrad multibeam vendor format
0046_20051025_103127_Amundsen.all.mb56.gz 38.39MB Simrad multibeam vendor format
0047_20050807_123709_ShipName.all.mb56.gz 23.88MB Simrad multibeam vendor format
0047_20050809_200229_Amundsen.all.mb56.gz 8.22MB Simrad multibeam vendor format
0047_20050810_213421_Amundsen.all.mb56.gz 8.18MB Simrad multibeam vendor format
0047_20050812_020828_Amundsen.all.mb56.gz 16.29MB Simrad multibeam vendor format
0047_20050819_060053_Amundsen.all.mb56.gz 11.39MB Simrad multibeam vendor format
0047_20050823_090339_Amundsen.all.mb56.gz 10.63MB Simrad multibeam vendor format
0047_20050826_092332_Amundsen.all.mb56.gz 19.20MB Simrad multibeam vendor format
0047_20050828_072125_Amundsen.all.mb56.gz 34.59MB Simrad multibeam vendor format
0047_20050831_163502_Amundsen.all.mb56.gz 35.56MB Simrad multibeam vendor format
0047_20050902_042510_Amundsen.all.mb56.gz 24.66MB Simrad multibeam vendor format
0047_20050904_115718_Amundsen.all.mb56.gz 14.89MB Simrad multibeam vendor format
0047_20050908_044842_Amundsen.all.mb56.gz 0.93MB Simrad multibeam vendor format
0047_20050911_230245_Amundsen.all.mb56.gz 24.08MB Simrad multibeam vendor format
0047_20050917_005254_Amundsen.all.mb56.gz 37.76MB Simrad multibeam vendor format
0047_20050919_160850_Amundsen.all.mb56.gz 1.47MB Simrad multibeam vendor format
0047_20050921_195129_Amundsen.all.mb56.gz 40.20MB Simrad multibeam vendor format
0047_20050923_194844_Amundsen.all.mb56.gz 29.79MB Simrad multibeam vendor format
0047_20050928_012701_Amundsen.all.mb56.gz 35.49MB Simrad multibeam vendor format
0047_20051003_055328_Amundsen.all.mb56.gz 46.27MB Simrad multibeam vendor format
0047_20051007_084258_Amundsen.all.mb56.gz 27.82MB Simrad multibeam vendor format
0047_20051011_094151_Amundsen.all.mb56.gz 35.26MB Simrad multibeam vendor format
0047_20051016_005919_Amundsen.all.mb56.gz 52.04MB Simrad multibeam vendor format
0047_20051019_095250_Amundsen.all.mb56.gz 25.58MB Simrad multibeam vendor format
0047_20051023_070052_Amundsen.all.mb56.gz 30.50MB Simrad multibeam vendor format
0047_20051025_110127_Amundsen.all.mb56.gz 36.42MB Simrad multibeam vendor format
0048_20050807_130709_ShipName.all.mb56.gz 22.79MB Simrad multibeam vendor format
0048_20050809_203229_Amundsen.all.mb56.gz 8.81MB Simrad multibeam vendor format
0048_20050810_220421_Amundsen.all.mb56.gz 8.20MB Simrad multibeam vendor format
0048_20050812_023828_Amundsen.all.mb56.gz 16.17MB Simrad multibeam vendor format
0048_20050819_063053_Amundsen.all.mb56.gz 11.47MB Simrad multibeam vendor format
0048_20050823_093339_Amundsen.all.mb56.gz 10.01MB Simrad multibeam vendor format
0048_20050826_095332_Amundsen.all.mb56.gz 24.63MB Simrad multibeam vendor format
0048_20050828_075125_Amundsen.all.mb56.gz 31.31MB Simrad multibeam vendor format
0048_20050831_170502_Amundsen.all.mb56.gz 32.60MB Simrad multibeam vendor format
0048_20050902_045510_Amundsen.all.mb56.gz 24.76MB Simrad multibeam vendor format
0048_20050904_122718_Amundsen.all.mb56.gz 17.07MB Simrad multibeam vendor format
0048_20050908_045025_Amundsen.all.mb56.gz 15.96MB Simrad multibeam vendor format
0048_20050911_233245_Amundsen.all.mb56.gz 23.70MB Simrad multibeam vendor format
0048_20050917_012254_Amundsen.all.mb56.gz 36.23MB Simrad multibeam vendor format
0048_20050919_172306_Amundsen.all.mb56.gz 21.92MB Simrad multibeam vendor format
0048_20050921_202129_Amundsen.all.mb56.gz 39.79MB Simrad multibeam vendor format
0048_20050923_201844_Amundsen.all.mb56.gz 27.59MB Simrad multibeam vendor format
0048_20050928_015701_Amundsen.all.mb56.gz 36.11MB Simrad multibeam vendor format
0048_20051003_062328_Amundsen.all.mb56.gz 48.84MB Simrad multibeam vendor format
0048_20051007_091258_Amundsen.all.mb56.gz 27.77MB Simrad multibeam vendor format
0048_20051011_101151_Amundsen.all.mb56.gz 33.63MB Simrad multibeam vendor format
0048_20051016_012919_Amundsen.all.mb56.gz 53.22MB Simrad multibeam vendor format
0048_20051019_102250_Amundsen.all.mb56.gz 25.60MB Simrad multibeam vendor format
0048_20051023_073052_Amundsen.all.mb56.gz 32.97MB Simrad multibeam vendor format
0048_20051025_113127_Amundsen.all.mb56.gz 33.24MB Simrad multibeam vendor format
0049_20050807_133709_ShipName.all.mb56.gz 25.37MB Simrad multibeam vendor format
0049_20050809_210229_Amundsen.all.mb56.gz 8.40MB Simrad multibeam vendor format
0049_20050810_223421_Amundsen.all.mb56.gz 4.52MB Simrad multibeam vendor format
0049_20050812_030828_Amundsen.all.mb56.gz 16.18MB Simrad multibeam vendor format
0049_20050819_070053_Amundsen.all.mb56.gz 13.31MB Simrad multibeam vendor format
0049_20050823_100339_Amundsen.all.mb56.gz 9.52MB Simrad multibeam vendor format
0049_20050826_102332_Amundsen.all.mb56.gz 25.77MB Simrad multibeam vendor format
0049_20050828_082125_Amundsen.all.mb56.gz 30.95MB Simrad multibeam vendor format
0049_20050831_173502_Amundsen.all.mb56.gz 32.00MB Simrad multibeam vendor format
0049_20050902_052510_Amundsen.all.mb56.gz 26.41MB Simrad multibeam vendor format
0049_20050904_125718_Amundsen.all.mb56.gz 17.26MB Simrad multibeam vendor format
0049_20050908_052025_Amundsen.all.mb56.gz 4.91MB Simrad multibeam vendor format
0049_20050912_000245_Amundsen.all.mb56.gz 23.89MB Simrad multibeam vendor format
0049_20050917_015254_Amundsen.all.mb56.gz 13.91MB Simrad multibeam vendor format
0049_20050919_175306_Amundsen.all.mb56.gz 17.79MB Simrad multibeam vendor format
0049_20050921_205129_Amundsen.all.mb56.gz 38.93MB Simrad multibeam vendor format
0049_20050923_204844_Amundsen.all.mb56.gz 30.03MB Simrad multibeam vendor format
0049_20050928_022701_Amundsen.all.mb56.gz 35.94MB Simrad multibeam vendor format
0049_20051003_065328_Amundsen.all.mb56.gz 51.08MB Simrad multibeam vendor format
0049_20051007_094258_Amundsen.all.mb56.gz 27.67MB Simrad multibeam vendor format
0049_20051011_104151_Amundsen.all.mb56.gz 40.52MB Simrad multibeam vendor format
0049_20051016_015919_Amundsen.all.mb56.gz 40.35MB Simrad multibeam vendor format
0049_20051019_105250_Amundsen.all.mb56.gz 25.87MB Simrad multibeam vendor format
0049_20051023_080052_Amundsen.all.mb56.gz 24.72MB Simrad multibeam vendor format
0049_20051025_120127_Amundsen.all.mb56.gz 29.01MB Simrad multibeam vendor format
0050_20050807_140709_ShipName.all.mb56.gz 29.27MB Simrad multibeam vendor format
0050_20050809_213229_Amundsen.all.mb56.gz 8.19MB Simrad multibeam vendor format
0050_20050810_225135_Amundsen.all.mb56.gz 8.32MB Simrad multibeam vendor format
0050_20050812_033828_Amundsen.all.mb56.gz 16.19MB Simrad multibeam vendor format
0050_20050819_073053_Amundsen.all.mb56.gz 16.57MB Simrad multibeam vendor format
0050_20050823_103339_Amundsen.all.mb56.gz 10.11MB Simrad multibeam vendor format
0050_20050826_105332_Amundsen.all.mb56.gz 32.23MB Simrad multibeam vendor format
0050_20050828_085125_Amundsen.all.mb56.gz 32.25MB Simrad multibeam vendor format
0050_20050831_180502_Amundsen.all.mb56.gz 27.58MB Simrad multibeam vendor format
0050_20050902_055510_Amundsen.all.mb56.gz 25.20MB Simrad multibeam vendor format
0050_20050904_132718_Amundsen.all.mb56.gz 16.01MB Simrad multibeam vendor format
0050_20050908_052935_Amundsen.all.mb56.gz 15.59MB Simrad multibeam vendor format
0050_20050912_003245_Amundsen.all.mb56.gz 24.16MB Simrad multibeam vendor format
0050_20050917_023651_Amundsen.all.mb56.gz 34.60MB Simrad multibeam vendor format
0050_20050919_182306_Amundsen.all.mb56.gz 20.14MB Simrad multibeam vendor format
0050_20050921_212129_Amundsen.all.mb56.gz 32.36MB Simrad multibeam vendor format
0050_20050923_211844_Amundsen.all.mb56.gz 28.10MB Simrad multibeam vendor format
0050_20050928_025701_Amundsen.all.mb56.gz 35.54MB Simrad multibeam vendor format
0050_20051003_072328_Amundsen.all.mb56.gz 49.79MB Simrad multibeam vendor format
0050_20051007_101258_Amundsen.all.mb56.gz 28.11MB Simrad multibeam vendor format
0050_20051011_111151_Amundsen.all.mb56.gz 41.06MB Simrad multibeam vendor format
0050_20051016_043040_Amundsen.all.mb56.gz 46.09MB Simrad multibeam vendor format
0050_20051019_112250_Amundsen.all.mb56.gz 14.37MB Simrad multibeam vendor format
0050_20051023_083052_Amundsen.all.mb56.gz 27.33MB Simrad multibeam vendor format
0050_20051025_123127_Amundsen.all.mb56.gz 27.98MB Simrad multibeam vendor format
0051_20050807_143709_ShipName.all.mb56.gz 36.25MB Simrad multibeam vendor format
0051_20050809_220229_Amundsen.all.mb56.gz 8.06MB Simrad multibeam vendor format
0051_20050810_232135_Amundsen.all.mb56.gz 8.67MB Simrad multibeam vendor format
0051_20050812_040828_Amundsen.all.mb56.gz 2.27MB Simrad multibeam vendor format
0051_20050819_080053_Amundsen.all.mb56.gz 13.14MB Simrad multibeam vendor format
0051_20050823_110339_Amundsen.all.mb56.gz 9.60MB Simrad multibeam vendor format
0051_20050826_112332_Amundsen.all.mb56.gz 36.09MB Simrad multibeam vendor format
0051_20050828_092125_Amundsen.all.mb56.gz 32.02MB Simrad multibeam vendor format
0051_20050831_183502_Amundsen.all.mb56.gz 28.24MB Simrad multibeam vendor format
0051_20050902_062510_Amundsen.all.mb56.gz 27.30MB Simrad multibeam vendor format
0051_20050904_135718_Amundsen.all.mb56.gz 16.91MB Simrad multibeam vendor format
0051_20050908_055935_Amundsen.all.mb56.gz 15.60MB Simrad multibeam vendor format
0051_20050912_010245_Amundsen.all.mb56.gz 24.90MB Simrad multibeam vendor format
0051_20050917_030651_Amundsen.all.mb56.gz 34.51MB Simrad multibeam vendor format
0051_20050919_185306_Amundsen.all.mb56.gz 17.65MB Simrad multibeam vendor format
0051_20050921_215129_Amundsen.all.mb56.gz 29.77MB Simrad multibeam vendor format
0051_20050923_214844_Amundsen.all.mb56.gz 17.31MB Simrad multibeam vendor format
0051_20050928_032701_Amundsen.all.mb56.gz 33.96MB Simrad multibeam vendor format
0051_20051003_075328_Amundsen.all.mb56.gz 41.30MB Simrad multibeam vendor format
0051_20051007_104258_Amundsen.all.mb56.gz 25.42MB Simrad multibeam vendor format
0051_20051011_114151_Amundsen.all.mb56.gz 37.35MB Simrad multibeam vendor format
0051_20051016_050040_Amundsen.all.mb56.gz 36.73MB Simrad multibeam vendor format
0051_20051019_115250_Amundsen.all.mb56.gz 22.39MB Simrad multibeam vendor format
0051_20051023_090052_Amundsen.all.mb56.gz 25.81MB Simrad multibeam vendor format
0051_20051025_130127_Amundsen.all.mb56.gz 27.16MB Simrad multibeam vendor format
0052_20050807_150709_ShipName.all.mb56.gz 38.32MB Simrad multibeam vendor format
0052_20050809_223229_Amundsen.all.mb56.gz 8.09MB Simrad multibeam vendor format
0052_20050810_235135_Amundsen.all.mb56.gz 8.64MB Simrad multibeam vendor format
0052_20050812_041253_Amundsen.all.mb56.gz 16.43MB Simrad multibeam vendor format
0052_20050819_083053_Amundsen.all.mb56.gz 12.46MB Simrad multibeam vendor format
0052_20050823_113339_Amundsen.all.mb56.gz 8.94MB Simrad multibeam vendor format
0052_20050826_115332_Amundsen.all.mb56.gz 37.97MB Simrad multibeam vendor format
0052_20050828_095125_Amundsen.all.mb56.gz 32.48MB Simrad multibeam vendor format
0052_20050831_190502_Amundsen.all.mb56.gz 28.67MB Simrad multibeam vendor format
0052_20050902_065510_Amundsen.all.mb56.gz 31.25MB Simrad multibeam vendor format
0052_20050904_142718_Amundsen.all.mb56.gz 15.00MB Simrad multibeam vendor format
0052_20050908_062935_Amundsen.all.mb56.gz 16.00MB Simrad multibeam vendor format
0052_20050912_013245_Amundsen.all.mb56.gz 26.22MB Simrad multibeam vendor format
0052_20050917_033651_Amundsen.all.mb56.gz 33.84MB Simrad multibeam vendor format
0052_20050919_192306_Amundsen.all.mb56.gz 17.25MB Simrad multibeam vendor format
0052_20050921_222129_Amundsen.all.mb56.gz 27.61MB Simrad multibeam vendor format
0052_20050924_052210_Amundsen.all.mb56.gz 29.43MB Simrad multibeam vendor format
0052_20050928_035701_Amundsen.all.mb56.gz 32.66MB Simrad multibeam vendor format
0052_20051003_082328_Amundsen.all.mb56.gz 40.17MB Simrad multibeam vendor format
0052_20051007_111258_Amundsen.all.mb56.gz 29.79MB Simrad multibeam vendor format
0052_20051011_121151_Amundsen.all.mb56.gz 38.39MB Simrad multibeam vendor format
0052_20051016_053040_Amundsen.all.mb56.gz 53.60MB Simrad multibeam vendor format
0052_20051019_122250_Amundsen.all.mb56.gz 19.22MB Simrad multibeam vendor format
0052_20051023_093052_Amundsen.all.mb56.gz 28.75MB Simrad multibeam vendor format
0052_20051025_133127_Amundsen.all.mb56.gz 27.07MB Simrad multibeam vendor format
0053_20050807_153709_ShipName.all.mb56.gz 39.49MB Simrad multibeam vendor format
0053_20050809_230229_Amundsen.all.mb56.gz 7.95MB Simrad multibeam vendor format
0053_20050811_002135_Amundsen.all.mb56.gz 8.92MB Simrad multibeam vendor format
0053_20050812_044250_Amundsen.all.mb56.gz 16.01MB Simrad multibeam vendor format
0053_20050819_090053_Amundsen.all.mb56.gz 11.63MB Simrad multibeam vendor format
0053_20050823_120339_Amundsen.all.mb56.gz 9.48MB Simrad multibeam vendor format
0053_20050826_122332_Amundsen.all.mb56.gz 16.96MB Simrad multibeam vendor format
0053_20050828_102125_Amundsen.all.mb56.gz 32.47MB Simrad multibeam vendor format
0053_20050831_193502_Amundsen.all.mb56.gz 24.56MB Simrad multibeam vendor format
0053_20050902_072510_Amundsen.all.mb56.gz 32.60MB Simrad multibeam vendor format
0053_20050904_145718_Amundsen.all.mb56.gz 13.59MB Simrad multibeam vendor format
0053_20050908_065935_Amundsen.all.mb56.gz 19.67MB Simrad multibeam vendor format
0053_20050912_020245_Amundsen.all.mb56.gz 38.18MB Simrad multibeam vendor format
0053_20050917_040651_Amundsen.all.mb56.gz 32.77MB Simrad multibeam vendor format
0053_20050919_195306_Amundsen.all.mb56.gz 23.58MB Simrad multibeam vendor format
0053_20050921_225129_Amundsen.all.mb56.gz 25.78MB Simrad multibeam vendor format
0053_20050924_055210_Amundsen.all.mb56.gz 25.91MB Simrad multibeam vendor format
0053_20050928_042701_Amundsen.all.mb56.gz 32.21MB Simrad multibeam vendor format
0053_20051003_085328_Amundsen.all.mb56.gz 35.40MB Simrad multibeam vendor format
0053_20051007_114258_Amundsen.all.mb56.gz 44.16MB Simrad multibeam vendor format
0053_20051011_124151_Amundsen.all.mb56.gz 34.69MB Simrad multibeam vendor format
0053_20051016_060040_Amundsen.all.mb56.gz 51.59MB Simrad multibeam vendor format
0053_20051019_125250_Amundsen.all.mb56.gz 22.70MB Simrad multibeam vendor format
0053_20051023_100052_Amundsen.all.mb56.gz 20.94MB Simrad multibeam vendor format
0053_20051025_140127_Amundsen.all.mb56.gz 29.39MB Simrad multibeam vendor format
0054_20050807_160709_ShipName.all.mb56.gz 38.67MB Simrad multibeam vendor format
0054_20050809_233229_Amundsen.all.mb56.gz 8.51MB Simrad multibeam vendor format
0054_20050811_005135_Amundsen.all.mb56.gz 2.72MB Simrad multibeam vendor format
0054_20050812_051250_Amundsen.all.mb56.gz 15.76MB Simrad multibeam vendor format
0054_20050819_093042_Amundsen.all.mb56.gz 11.74MB Simrad multibeam vendor format
0054_20050823_123339_Amundsen.all.mb56.gz 10.09MB Simrad multibeam vendor format
0054_20050828_105125_Amundsen.all.mb56.gz 31.66MB Simrad multibeam vendor format
0054_20050831_200502_Amundsen.all.mb56.gz 26.94MB Simrad multibeam vendor format
0054_20050902_075510_Amundsen.all.mb56.gz 35.55MB Simrad multibeam vendor format
0054_20050904_152718_Amundsen.all.mb56.gz 16.25MB Simrad multibeam vendor format
0054_20050908_072935_Amundsen.all.mb56.gz 16.57MB Simrad multibeam vendor format
0054_20050912_023245_Amundsen.all.mb56.gz 38.21MB Simrad multibeam vendor format
0054_20050917_043651_Amundsen.all.mb56.gz 34.02MB Simrad multibeam vendor format
0054_20050919_202306_Amundsen.all.mb56.gz 24.67MB Simrad multibeam vendor format
0054_20050921_232129_Amundsen.all.mb56.gz 27.75MB Simrad multibeam vendor format
0054_20050924_062210_Amundsen.all.mb56.gz 30.97MB Simrad multibeam vendor format
0054_20050928_045701_Amundsen.all.mb56.gz 32.49MB Simrad multibeam vendor format
0054_20051003_092328_Amundsen.all.mb56.gz 41.40MB Simrad multibeam vendor format
0054_20051007_121258_Amundsen.all.mb56.gz 47.69MB Simrad multibeam vendor format
0054_20051011_131152_Amundsen.all.mb56.gz 32.10MB Simrad multibeam vendor format
0054_20051016_063040_Amundsen.all.mb56.gz 48.93MB Simrad multibeam vendor format
0054_20051019_132250_Amundsen.all.mb56.gz 23.30MB Simrad multibeam vendor format
0054_20051023_103052_Amundsen.all.mb56.gz 22.74MB Simrad multibeam vendor format
0054_20051025_143127_Amundsen.all.mb56.gz 30.90MB Simrad multibeam vendor format
0055_20050807_163709_ShipName.all.mb56.gz 38.65MB Simrad multibeam vendor format
0055_20050810_000229_Amundsen.all.mb56.gz 466.1KB Simrad multibeam vendor format
0055_20050811_010733_Amundsen.all.mb56.gz 8.19MB Simrad multibeam vendor format
0055_20050812_054250_Amundsen.all.mb56.gz 15.62MB Simrad multibeam vendor format
0055_20050819_100042_Amundsen.all.mb56.gz 11.03MB Simrad multibeam vendor format
0055_20050823_130339_Amundsen.all.mb56.gz 10.29MB Simrad multibeam vendor format
0055_20050828_112125_Amundsen.all.mb56.gz 34.74MB Simrad multibeam vendor format
0055_20050831_203502_Amundsen.all.mb56.gz 22.75MB Simrad multibeam vendor format
0055_20050902_082510_Amundsen.all.mb56.gz 36.63MB Simrad multibeam vendor format
0055_20050904_155718_Amundsen.all.mb56.gz 14.55MB Simrad multibeam vendor format
0055_20050908_075935_Amundsen.all.mb56.gz 16.57MB Simrad multibeam vendor format
0055_20050912_030245_Amundsen.all.mb56.gz 43.92MB Simrad multibeam vendor format
0055_20050917_050651_Amundsen.all.mb56.gz 41.49MB Simrad multibeam vendor format
0055_20050919_205306_Amundsen.all.mb56.gz 27.27MB Simrad multibeam vendor format
0055_20050921_235129_Amundsen.all.mb56.gz 32.48MB Simrad multibeam vendor format
0055_20050924_065210_Amundsen.all.mb56.gz 29.34MB Simrad multibeam vendor format
0055_20050928_052701_Amundsen.all.mb56.gz 31.75MB Simrad multibeam vendor format
0055_20051003_095328_Amundsen.all.mb56.gz 43.51MB Simrad multibeam vendor format
0055_20051007_124258_Amundsen.all.mb56.gz 50.17MB Simrad multibeam vendor format
0055_20051011_134152_Amundsen.all.mb56.gz 32.89MB Simrad multibeam vendor format
0055_20051016_070040_Amundsen.all.mb56.gz 47.27MB Simrad multibeam vendor format
0055_20051019_135250_Amundsen.all.mb56.gz 25.08MB Simrad multibeam vendor format
0055_20051023_110052_Amundsen.all.mb56.gz 19.09MB Simrad multibeam vendor format
0055_20051025_150127_Amundsen.all.mb56.gz 36.21MB Simrad multibeam vendor format
0056_20050807_170709_ShipName.all.mb56.gz 37.99MB Simrad multibeam vendor format
0056_20050811_013542_Amundsen.all.mb56.gz 9.75MB Simrad multibeam vendor format
0056_20050812_061250_Amundsen.all.mb56.gz 15.34MB Simrad multibeam vendor format
0056_20050819_103042_Amundsen.all.mb56.gz 11.33MB Simrad multibeam vendor format
0056_20050823_133339_Amundsen.all.mb56.gz 10.49MB Simrad multibeam vendor format
0056_20050828_115125_Amundsen.all.mb56.gz 33.07MB Simrad multibeam vendor format
0056_20050831_210502_Amundsen.all.mb56.gz 18.89MB Simrad multibeam vendor format
0056_20050902_085510_Amundsen.all.mb56.gz 31.01MB Simrad multibeam vendor format
0056_20050904_162718_Amundsen.all.mb56.gz 12.79MB Simrad multibeam vendor format
0056_20050908_082935_Amundsen.all.mb56.gz 15.87MB Simrad multibeam vendor format
0056_20050912_033245_Amundsen.all.mb56.gz 30.72MB Simrad multibeam vendor format
0056_20050917_053651_Amundsen.all.mb56.gz 44.21MB Simrad multibeam vendor format
0056_20050919_212306_Amundsen.all.mb56.gz 28.16MB Simrad multibeam vendor format
0056_20050922_002129_Amundsen.all.mb56.gz 50.59MB Simrad multibeam vendor format
0056_20050924_072210_Amundsen.all.mb56.gz 29.12MB Simrad multibeam vendor format
0056_20050928_055701_Amundsen.all.mb56.gz 31.41MB Simrad multibeam vendor format
0056_20051003_102328_Amundsen.all.mb56.gz 45.04MB Simrad multibeam vendor format
0056_20051007_131258_Amundsen.all.mb56.gz 51.20MB Simrad multibeam vendor format
0056_20051011_141152_Amundsen.all.mb56.gz 32.54MB Simrad multibeam vendor format
0056_20051016_073040_Amundsen.all.mb56.gz 45.93MB Simrad multibeam vendor format
0056_20051019_142250_Amundsen.all.mb56.gz 25.65MB Simrad multibeam vendor format
0056_20051023_113052_Amundsen.all.mb56.gz 19.06MB Simrad multibeam vendor format
0056_20051025_153127_Amundsen.all.mb56.gz 30.26MB Simrad multibeam vendor format
0057_20050807_173709_ShipName.all.mb56.gz 38.83MB Simrad multibeam vendor format
0057_20050811_020542_Amundsen.all.mb56.gz 9.83MB Simrad multibeam vendor format
0057_20050812_064250_Amundsen.all.mb56.gz 15.03MB Simrad multibeam vendor format
0057_20050819_110042_Amundsen.all.mb56.gz 11.57MB Simrad multibeam vendor format
0057_20050823_140346_Amundsen.all.mb56.gz 272.8KB Simrad multibeam vendor format
0057_20050828_122125_Amundsen.all.mb56.gz 33.71MB Simrad multibeam vendor format
0057_20050831_213502_Amundsen.all.mb56.gz 18.44MB Simrad multibeam vendor format
0057_20050902_092510_Amundsen.all.mb56.gz 37.55MB Simrad multibeam vendor format
0057_20050904_165718_Amundsen.all.mb56.gz 12.43MB Simrad multibeam vendor format
0057_20050908_085935_Amundsen.all.mb56.gz 15.41MB Simrad multibeam vendor format
0057_20050912_040245_Amundsen.all.mb56.gz 25.55MB Simrad multibeam vendor format
0057_20050917_060651_Amundsen.all.mb56.gz 44.08MB Simrad multibeam vendor format
0057_20050919_215306_Amundsen.all.mb56.gz 21.74MB Simrad multibeam vendor format
0057_20050922_005129_Amundsen.all.mb56.gz 31.10MB Simrad multibeam vendor format
0057_20050924_075210_Amundsen.all.mb56.gz 30.73MB Simrad multibeam vendor format
0057_20050928_062701_Amundsen.all.mb56.gz 30.16MB Simrad multibeam vendor format
0057_20051003_105328_Amundsen.all.mb56.gz 44.54MB Simrad multibeam vendor format
0057_20051007_134258_Amundsen.all.mb56.gz 50.90MB Simrad multibeam vendor format
0057_20051011_144152_Amundsen.all.mb56.gz 31.44MB Simrad multibeam vendor format
0057_20051016_080040_Amundsen.all.mb56.gz 45.10MB Simrad multibeam vendor format
0057_20051019_145250_Amundsen.all.mb56.gz 26.88MB Simrad multibeam vendor format
0057_20051023_120052_Amundsen.all.mb56.gz 18.14MB Simrad multibeam vendor format
0057_20051025_160127_Amundsen.all.mb56.gz 24.14MB Simrad multibeam vendor format
0058_20050807_180709_ShipName.all.mb56.gz 40.27MB Simrad multibeam vendor format
0058_20050811_023542_Amundsen.all.mb56.gz 9.32MB Simrad multibeam vendor format
0058_20050812_071250_Amundsen.all.mb56.gz 14.78MB Simrad multibeam vendor format
0058_20050819_113042_Amundsen.all.mb56.gz 12.65MB Simrad multibeam vendor format
0058_20050823_140432_Amundsen.all.mb56.gz 10.78MB Simrad multibeam vendor format
0058_20050828_125125_Amundsen.all.mb56.gz 36.40MB Simrad multibeam vendor format
0058_20050831_220502_Amundsen.all.mb56.gz 18.86MB Simrad multibeam vendor format
0058_20050902_095510_Amundsen.all.mb56.gz 38.31MB Simrad multibeam vendor format
0058_20050904_172719_Amundsen.all.mb56.gz 11.68MB Simrad multibeam vendor format
0058_20050908_092935_Amundsen.all.mb56.gz 15.34MB Simrad multibeam vendor format
0058_20050912_043245_Amundsen.all.mb56.gz 25.94MB Simrad multibeam vendor format
0058_20050917_063651_Amundsen.all.mb56.gz 44.26MB Simrad multibeam vendor format
0058_20050919_234653_Amundsen.all.mb56.gz 15.48MB Simrad multibeam vendor format
0058_20050922_012129_Amundsen.all.mb56.gz 30.53MB Simrad multibeam vendor format
0058_20050924_082210_Amundsen.all.mb56.gz 29.24MB Simrad multibeam vendor format
0058_20050928_065701_Amundsen.all.mb56.gz 28.19MB Simrad multibeam vendor format
0058_20051003_112328_Amundsen.all.mb56.gz 44.94MB Simrad multibeam vendor format
0058_20051007_141258_Amundsen.all.mb56.gz 57.87MB Simrad multibeam vendor format
0058_20051011_151152_Amundsen.all.mb56.gz 32.34MB Simrad multibeam vendor format
0058_20051016_083040_Amundsen.all.mb56.gz 47.04MB Simrad multibeam vendor format
0058_20051019_152250_Amundsen.all.mb56.gz 24.13MB Simrad multibeam vendor format
0058_20051023_123052_Amundsen.all.mb56.gz 18.17MB Simrad multibeam vendor format
0058_20051025_163127_Amundsen.all.mb56.gz 23.03MB Simrad multibeam vendor format
0059_20050807_183709_ShipName.all.mb56.gz 38.61MB Simrad multibeam vendor format
0059_20050811_030542_Amundsen.all.mb56.gz 9.36MB Simrad multibeam vendor format
0059_20050812_074250_Amundsen.all.mb56.gz 14.57MB Simrad multibeam vendor format
0059_20050819_120042_Amundsen.all.mb56.gz 11.62MB Simrad multibeam vendor format
0059_20050823_143432_Amundsen.all.mb56.gz 11.27MB Simrad multibeam vendor format
0059_20050828_132125_Amundsen.all.mb56.gz 38.42MB Simrad multibeam vendor format
0059_20050831_223502_Amundsen.all.mb56.gz 17.16MB Simrad multibeam vendor format
0059_20050902_102510_Amundsen.all.mb56.gz 26.33MB Simrad multibeam vendor format
0059_20050904_175719_Amundsen.all.mb56.gz 11.39MB Simrad multibeam vendor format
0059_20050908_095935_Amundsen.all.mb56.gz 15.41MB Simrad multibeam vendor format
0059_20050912_050245_Amundsen.all.mb56.gz 27.51MB Simrad multibeam vendor format
0059_20050917_070651_Amundsen.all.mb56.gz 41.15MB Simrad multibeam vendor format
0059_20050920_001653_Amundsen.all.mb56.gz 16.70MB Simrad multibeam vendor format
0059_20050922_015129_Amundsen.all.mb56.gz 28.74MB Simrad multibeam vendor format
0059_20050924_085210_Amundsen.all.mb56.gz 28.83MB Simrad multibeam vendor format
0059_20050928_072701_Amundsen.all.mb56.gz 26.32MB Simrad multibeam vendor format
0059_20051003_115328_Amundsen.all.mb56.gz 59.89MB Simrad multibeam vendor format
0059_20051007_144258_Amundsen.all.mb56.gz 63.21MB Simrad multibeam vendor format
0059_20051011_154152_Amundsen.all.mb56.gz 31.15MB Simrad multibeam vendor format
0059_20051016_090040_Amundsen.all.mb56.gz 45.25MB Simrad multibeam vendor format
0059_20051019_155250_Amundsen.all.mb56.gz 26.43MB Simrad multibeam vendor format
0059_20051023_130052_Amundsen.all.mb56.gz 20.44MB Simrad multibeam vendor format
0059_20051025_170127_Amundsen.all.mb56.gz 18.14MB Simrad multibeam vendor format
0060_20050807_190709_ShipName.all.mb56.gz 37.26MB Simrad multibeam vendor format
0060_20050811_033542_Amundsen.all.mb56.gz 9.19MB Simrad multibeam vendor format
0060_20050812_081250_Amundsen.all.mb56.gz 14.44MB Simrad multibeam vendor format
0060_20050819_123042_Amundsen.all.mb56.gz 11.79MB Simrad multibeam vendor format
0060_20050823_150432_Amundsen.all.mb56.gz 12.27MB Simrad multibeam vendor format
0060_20050828_135125_Amundsen.all.mb56.gz 39.98MB Simrad multibeam vendor format
0060_20050831_230502_Amundsen.all.mb56.gz 16.70MB Simrad multibeam vendor format
0060_20050902_105510_Amundsen.all.mb56.gz 19.49MB Simrad multibeam vendor format
0060_20050904_182719_Amundsen.all.mb56.gz 11.20MB Simrad multibeam vendor format
0060_20050908_102935_Amundsen.all.mb56.gz 15.18MB Simrad multibeam vendor format
0060_20050912_053245_Amundsen.all.mb56.gz 27.60MB Simrad multibeam vendor format
0060_20050917_073651_Amundsen.all.mb56.gz 37.77MB Simrad multibeam vendor format
0060_20050920_004653_Amundsen.all.mb56.gz 16.34MB Simrad multibeam vendor format
0060_20050922_022129_Amundsen.all.mb56.gz 31.40MB Simrad multibeam vendor format
0060_20050924_092210_Amundsen.all.mb56.gz 29.94MB Simrad multibeam vendor format
0060_20050928_075701_Amundsen.all.mb56.gz 24.48MB Simrad multibeam vendor format
0060_20051003_122328_Amundsen.all.mb56.gz 69.18MB Simrad multibeam vendor format
0060_20051007_151258_Amundsen.all.mb56.gz 74.55MB Simrad multibeam vendor format
0060_20051011_161152_Amundsen.all.mb56.gz 7.79MB Simrad multibeam vendor format
0060_20051016_093040_Amundsen.all.mb56.gz 42.91MB Simrad multibeam vendor format
0060_20051019_162250_Amundsen.all.mb56.gz 26.26MB Simrad multibeam vendor format
0060_20051023_133052_Amundsen.all.mb56.gz 23.72MB Simrad multibeam vendor format
0060_20051025_173127_Amundsen.all.mb56.gz 18.14MB Simrad multibeam vendor format
0061_20050807_193709_ShipName.all.mb56.gz 38.50MB Simrad multibeam vendor format
0061_20050811_040542_Amundsen.all.mb56.gz 9.08MB Simrad multibeam vendor format
0061_20050812_084250_Amundsen.all.mb56.gz 14.84MB Simrad multibeam vendor format
0061_20050819_130042_Amundsen.all.mb56.gz 11.70MB Simrad multibeam vendor format
0061_20050823_153432_Amundsen.all.mb56.gz 11.96MB Simrad multibeam vendor format
0061_20050828_142125_Amundsen.all.mb56.gz 38.88MB Simrad multibeam vendor format
0061_20050831_233502_Amundsen.all.mb56.gz 13.13MB Simrad multibeam vendor format
0061_20050902_141359_Amundsen.all.mb56.gz 37.91MB Simrad multibeam vendor format
0061_20050904_185719_Amundsen.all.mb56.gz 12.91MB Simrad multibeam vendor format
0061_20050908_105935_Amundsen.all.mb56.gz 0.50MB Simrad multibeam vendor format
0061_20050912_060245_Amundsen.all.mb56.gz 32.37MB Simrad multibeam vendor format
0061_20050917_080651_Amundsen.all.mb56.gz 32.17MB Simrad multibeam vendor format
0061_20050920_011653_Amundsen.all.mb56.gz 15.34MB Simrad multibeam vendor format
0061_20050922_025129_Amundsen.all.mb56.gz 38.79MB Simrad multibeam vendor format
0061_20050924_095210_Amundsen.all.mb56.gz 34.94MB Simrad multibeam vendor format
0061_20050928_082701_Amundsen.all.mb56.gz 21.37MB Simrad multibeam vendor format
0061_20051003_125328_Amundsen.all.mb56.gz 50.47MB Simrad multibeam vendor format
0061_20051007_154258_Amundsen.all.mb56.gz 63.80MB Simrad multibeam vendor format
0061_20051012_013813_Amundsen.all.mb56.gz 44.30MB Simrad multibeam vendor format
0061_20051016_100040_Amundsen.all.mb56.gz 41.03MB Simrad multibeam vendor format
0061_20051019_165250_Amundsen.all.mb56.gz 21.45MB Simrad multibeam vendor format
0061_20051023_140052_Amundsen.all.mb56.gz 30.43MB Simrad multibeam vendor format
0061_20051025_180127_Amundsen.all.mb56.gz 17.32MB Simrad multibeam vendor format
0062_20050807_200709_ShipName.all.mb56.gz 40.59MB Simrad multibeam vendor format
0062_20050811_043542_Amundsen.all.mb56.gz 8.84MB Simrad multibeam vendor format
0062_20050812_091250_Amundsen.all.mb56.gz 15.62MB Simrad multibeam vendor format
0062_20050819_133042_Amundsen.all.mb56.gz 11.27MB Simrad multibeam vendor format
0062_20050823_160432_Amundsen.all.mb56.gz 11.63MB Simrad multibeam vendor format
0062_20050828_145125_Amundsen.all.mb56.gz 38.48MB Simrad multibeam vendor format
0062_20050901_000502_Amundsen.all.mb56.gz 13.72MB Simrad multibeam vendor format
0062_20050902_144359_Amundsen.all.mb56.gz 38.51MB Simrad multibeam vendor format
0062_20050904_192719_Amundsen.all.mb56.gz 13.18MB Simrad multibeam vendor format
0062_20050908_112645_Amundsen.all.mb56.gz 15.83MB Simrad multibeam vendor format
0062_20050912_063245_Amundsen.all.mb56.gz 32.17MB Simrad multibeam vendor format
0062_20050917_083651_Amundsen.all.mb56.gz 18.47MB Simrad multibeam vendor format
0062_20050920_014653_Amundsen.all.mb56.gz 13.42MB Simrad multibeam vendor format
0062_20050922_032129_Amundsen.all.mb56.gz 41.69MB Simrad multibeam vendor format
0062_20050924_102210_Amundsen.all.mb56.gz 36.49MB Simrad multibeam vendor format
0062_20050928_085701_Amundsen.all.mb56.gz 24.58MB Simrad multibeam vendor format
0062_20051003_131749_Amundsen.all.mb56.gz 43.77MB Simrad multibeam vendor format
0062_20051007_161258_Amundsen.all.mb56.gz 64.99MB Simrad multibeam vendor format
0062_20051012_020813_Amundsen.all.mb56.gz 44.65MB Simrad multibeam vendor format
0062_20051016_103040_Amundsen.all.mb56.gz 40.11MB Simrad multibeam vendor format
0062_20051019_172250_Amundsen.all.mb56.gz 19.97MB Simrad multibeam vendor format
0062_20051023_143052_Amundsen.all.mb56.gz 34.78MB Simrad multibeam vendor format
0062_20051025_183127_Amundsen.all.mb56.gz 16.99MB Simrad multibeam vendor format
0063_20050807_203709_ShipName.all.mb56.gz 9.08MB Simrad multibeam vendor format
0063_20050811_050542_Amundsen.all.mb56.gz 9.04MB Simrad multibeam vendor format
0063_20050812_094250_Amundsen.all.mb56.gz 16.15MB Simrad multibeam vendor format
0063_20050819_140042_Amundsen.all.mb56.gz 11.53MB Simrad multibeam vendor format
0063_20050823_163432_Amundsen.all.mb56.gz 10.40MB Simrad multibeam vendor format
0063_20050828_152125_Amundsen.all.mb56.gz 38.98MB Simrad multibeam vendor format
0063_20050901_003502_Amundsen.all.mb56.gz 15.08MB Simrad multibeam vendor format
0063_20050902_151359_Amundsen.all.mb56.gz 39.58MB Simrad multibeam vendor format
0063_20050904_195719_Amundsen.all.mb56.gz 1.10MB Simrad multibeam vendor format
0063_20050908_115645_Amundsen.all.mb56.gz 14.80MB Simrad multibeam vendor format
0063_20050912_070245_Amundsen.all.mb56.gz 25.07MB Simrad multibeam vendor format
0063_20050917_124509_Amundsen.all.mb56.gz 44.35MB Simrad multibeam vendor format
0063_20050920_021653_Amundsen.all.mb56.gz 15.56MB Simrad multibeam vendor format
0063_20050922_035129_Amundsen.all.mb56.gz 42.97MB Simrad multibeam vendor format
0063_20050924_105210_Amundsen.all.mb56.gz 39.87MB Simrad multibeam vendor format
0063_20050928_092701_Amundsen.all.mb56.gz 29.15MB Simrad multibeam vendor format
0063_20051003_134749_Amundsen.all.mb56.gz 42.29MB Simrad multibeam vendor format
0063_20051007_164258_Amundsen.all.mb56.gz 72.48MB Simrad multibeam vendor format
0063_20051012_023813_Amundsen.all.mb56.gz 43.90MB Simrad multibeam vendor format
0063_20051016_110040_Amundsen.all.mb56.gz 40.19MB Simrad multibeam vendor format
0063_20051019_175250_Amundsen.all.mb56.gz 22.19MB Simrad multibeam vendor format
0063_20051023_150052_Amundsen.all.mb56.gz 32.68MB Simrad multibeam vendor format
0063_20051025_190127_Amundsen.all.mb56.gz 17.16MB Simrad multibeam vendor format
0064_20050807_204404_ShipName.all.mb56.gz 40.55MB Simrad multibeam vendor format
0064_20050811_053542_Amundsen.all.mb56.gz 9.53MB Simrad multibeam vendor format
0064_20050812_101250_Amundsen.all.mb56.gz 20.49MB Simrad multibeam vendor format
0064_20050819_143042_Amundsen.all.mb56.gz 11.27MB Simrad multibeam vendor format
0064_20050823_170432_Amundsen.all.mb56.gz 11.26MB Simrad multibeam vendor format
0064_20050828_155125_Amundsen.all.mb56.gz 35.78MB Simrad multibeam vendor format
0064_20050901_010502_Amundsen.all.mb56.gz 16.35MB Simrad multibeam vendor format
0064_20050902_154359_Amundsen.all.mb56.gz 39.95MB Simrad multibeam vendor format
0064_20050908_122645_Amundsen.all.mb56.gz 4.44MB Simrad multibeam vendor format
0064_20050912_073245_Amundsen.all.mb56.gz 19.31MB Simrad multibeam vendor format
0064_20050917_131509_Amundsen.all.mb56.gz 43.75MB Simrad multibeam vendor format
0064_20050920_024654_Amundsen.all.mb56.gz 13.93MB Simrad multibeam vendor format
0064_20050922_042129_Amundsen.all.mb56.gz 46.12MB Simrad multibeam vendor format
0064_20050924_112210_Amundsen.all.mb56.gz 41.56MB Simrad multibeam vendor format
0064_20050928_095701_Amundsen.all.mb56.gz 20.83MB Simrad multibeam vendor format
0064_20051003_141749_Amundsen.all.mb56.gz 42.39MB Simrad multibeam vendor format
0064_20051007_171258_Amundsen.all.mb56.gz 43.13MB Simrad multibeam vendor format
0064_20051012_030813_Amundsen.all.mb56.gz 40.21MB Simrad multibeam vendor format
0064_20051016_113040_Amundsen.all.mb56.gz 40.21MB Simrad multibeam vendor format
0064_20051019_182250_Amundsen.all.mb56.gz 31.18MB Simrad multibeam vendor format
0064_20051023_153052_Amundsen.all.mb56.gz 33.45MB Simrad multibeam vendor format
0064_20051025_193127_Amundsen.all.mb56.gz 17.59MB Simrad multibeam vendor format
0065_20050807_211404_ShipName.all.mb56.gz 40.85MB Simrad multibeam vendor format
0065_20050811_060542_Amundsen.all.mb56.gz 9.55MB Simrad multibeam vendor format
0065_20050812_104250_Amundsen.all.mb56.gz 28.08MB Simrad multibeam vendor format
0065_20050819_150042_Amundsen.all.mb56.gz 11.39MB Simrad multibeam vendor format
0065_20050823_173432_Amundsen.all.mb56.gz 12.15MB Simrad multibeam vendor format
0065_20050828_162125_Amundsen.all.mb56.gz 37.33MB Simrad multibeam vendor format
0065_20050901_013502_Amundsen.all.mb56.gz 15.57MB Simrad multibeam vendor format
0065_20050902_161359_Amundsen.all.mb56.gz 21.00MB Simrad multibeam vendor format
0065_20050908_123501_Amundsen.all.mb56.gz 15.81MB Simrad multibeam vendor format
0065_20050912_080245_Amundsen.all.mb56.gz 16.03MB Simrad multibeam vendor format
0065_20050917_134509_Amundsen.all.mb56.gz 10.46MB Simrad multibeam vendor format
0065_20050920_031654_Amundsen.all.mb56.gz 16.36MB Simrad multibeam vendor format
0065_20050922_045129_Amundsen.all.mb56.gz 48.73MB Simrad multibeam vendor format
0065_20050924_115210_Amundsen.all.mb56.gz 53.92MB Simrad multibeam vendor format
0065_20050928_102701_Amundsen.all.mb56.gz 26.04MB Simrad multibeam vendor format
0065_20051003_144749_Amundsen.all.mb56.gz 42.66MB Simrad multibeam vendor format
0065_20051007_174258_Amundsen.all.mb56.gz 48.76MB Simrad multibeam vendor format
0065_20051012_033813_Amundsen.all.mb56.gz 40.47MB Simrad multibeam vendor format
0065_20051016_120040_Amundsen.all.mb56.gz 40.36MB Simrad multibeam vendor format
0065_20051019_185250_Amundsen.all.mb56.gz 49.15MB Simrad multibeam vendor format
0065_20051023_160052_Amundsen.all.mb56.gz 34.96MB Simrad multibeam vendor format
0065_20051025_200127_Amundsen.all.mb56.gz 21.24MB Simrad multibeam vendor format
0066_20050807_214404_ShipName.all.mb56.gz 35.99MB Simrad multibeam vendor format
0066_20050811_063542_Amundsen.all.mb56.gz 5.42MB Simrad multibeam vendor format
0066_20050812_111250_Amundsen.all.mb56.gz 28.05MB Simrad multibeam vendor format
0066_20050819_153042_Amundsen.all.mb56.gz 11.70MB Simrad multibeam vendor format
0066_20050823_180432_Amundsen.all.mb56.gz 11.47MB Simrad multibeam vendor format
0066_20050828_165125_Amundsen.all.mb56.gz 39.05MB Simrad multibeam vendor format
0066_20050901_020502_Amundsen.all.mb56.gz 15.33MB Simrad multibeam vendor format
0066_20050902_163010_Amundsen.all.mb56.gz 38.47MB Simrad multibeam vendor format
0066_20050908_130501_Amundsen.all.mb56.gz 1.34MB Simrad multibeam vendor format
0066_20050912_083245_Amundsen.all.mb56.gz 14.94MB Simrad multibeam vendor format
0066_20050917_145946_Amundsen.all.mb56.gz 39.16MB Simrad multibeam vendor format
0066_20050920_034654_Amundsen.all.mb56.gz 21.24MB Simrad multibeam vendor format
0066_20050922_052129_Amundsen.all.mb56.gz 48.49MB Simrad multibeam vendor format
0066_20050924_122210_Amundsen.all.mb56.gz 43.85MB Simrad multibeam vendor format
0066_20050928_105701_Amundsen.all.mb56.gz 21.17MB Simrad multibeam vendor format
0066_20051003_151749_Amundsen.all.mb56.gz 42.90MB Simrad multibeam vendor format
0066_20051007_181258_Amundsen.all.mb56.gz 48.51MB Simrad multibeam vendor format
0066_20051012_040813_Amundsen.all.mb56.gz 40.79MB Simrad multibeam vendor format
0066_20051016_123040_Amundsen.all.mb56.gz 40.40MB Simrad multibeam vendor format
0066_20051019_192250_Amundsen.all.mb56.gz 31.62MB Simrad multibeam vendor format
0066_20051023_163052_Amundsen.all.mb56.gz 31.06MB Simrad multibeam vendor format
0066_20051025_203127_Amundsen.all.mb56.gz 20.88MB Simrad multibeam vendor format
0067_20050807_221404_ShipName.all.mb56.gz 31.87MB Simrad multibeam vendor format
0067_20050812_114250_Amundsen.all.mb56.gz 28.31MB Simrad multibeam vendor format
0067_20050819_160042_Amundsen.all.mb56.gz 12.41MB Simrad multibeam vendor format
0067_20050823_183432_Amundsen.all.mb56.gz 11.38MB Simrad multibeam vendor format
0067_20050828_172125_Amundsen.all.mb56.gz 38.45MB Simrad multibeam vendor format
0067_20050901_023502_Amundsen.all.mb56.gz 15.41MB Simrad multibeam vendor format
0067_20050902_170010_Amundsen.all.mb56.gz 33.09MB Simrad multibeam vendor format
0067_20050908_130733_Amundsen.all.mb56.gz 15.69MB Simrad multibeam vendor format
0067_20050912_090245_Amundsen.all.mb56.gz 14.42MB Simrad multibeam vendor format
0067_20050917_152946_Amundsen.all.mb56.gz 18.22MB Simrad multibeam vendor format
0067_20050920_041654_Amundsen.all.mb56.gz 16.80MB Simrad multibeam vendor format
0067_20050922_055129_Amundsen.all.mb56.gz 48.00MB Simrad multibeam vendor format
0067_20050924_125210_Amundsen.all.mb56.gz 49.53MB Simrad multibeam vendor format
0067_20050928_112701_Amundsen.all.mb56.gz 5.04MB Simrad multibeam vendor format
0067_20051003_154749_Amundsen.all.mb56.gz 43.17MB Simrad multibeam vendor format
0067_20051007_184258_Amundsen.all.mb56.gz 49.16MB Simrad multibeam vendor format
0067_20051012_043813_Amundsen.all.mb56.gz 40.82MB Simrad multibeam vendor format
0067_20051016_130040_Amundsen.all.mb56.gz 25.33MB Simrad multibeam vendor format
0067_20051019_195250_Amundsen.all.mb56.gz 27.41MB Simrad multibeam vendor format
0067_20051023_170052_Amundsen.all.mb56.gz 29.31MB Simrad multibeam vendor format
0067_20051025_210127_Amundsen.all.mb56.gz 22.17MB Simrad multibeam vendor format
0068_20050807_224404_ShipName.all.mb56.gz 28.17MB Simrad multibeam vendor format
0068_20050812_121250_Amundsen.all.mb56.gz 18.41MB Simrad multibeam vendor format
0068_20050819_163042_Amundsen.all.mb56.gz 11.44MB Simrad multibeam vendor format
0068_20050823_190432_Amundsen.all.mb56.gz 11.25MB Simrad multibeam vendor format
0068_20050828_175125_Amundsen.all.mb56.gz 37.68MB Simrad multibeam vendor format
0068_20050901_030502_Amundsen.all.mb56.gz 14.90MB Simrad multibeam vendor format
0068_20050902_173010_Amundsen.all.mb56.gz 25.73MB Simrad multibeam vendor format
0068_20050908_133733_Amundsen.all.mb56.gz 11.09MB Simrad multibeam vendor format
0068_20050912_093245_Amundsen.all.mb56.gz 1.00MB Simrad multibeam vendor format
0068_20050917_191500_Amundsen.all.mb56.gz 32.02MB Simrad multibeam vendor format
0068_20050920_044654_Amundsen.all.mb56.gz 15.25MB Simrad multibeam vendor format
0068_20050922_062129_Amundsen.all.mb56.gz 48.12MB Simrad multibeam vendor format
0068_20050924_132210_Amundsen.all.mb56.gz 57.86MB Simrad multibeam vendor format
0068_20050928_151710_Amundsen.all.mb56.gz 10.93MB Simrad multibeam vendor format
0068_20051003_161749_Amundsen.all.mb56.gz 43.34MB Simrad multibeam vendor format
0068_20051007_191258_Amundsen.all.mb56.gz 50.84MB Simrad multibeam vendor format
0068_20051012_050813_Amundsen.all.mb56.gz 41.02MB Simrad multibeam vendor format
0068_20051017_001552_Amundsen.all.mb56.gz 29.86MB Simrad multibeam vendor format
0068_20051019_202250_Amundsen.all.mb56.gz 41.95MB Simrad multibeam vendor format
0068_20051023_173052_Amundsen.all.mb56.gz 33.58MB Simrad multibeam vendor format
0068_20051025_213127_Amundsen.all.mb56.gz 22.86MB Simrad multibeam vendor format
0069_20050807_231404_ShipName.all.mb56.gz 53.95MB Simrad multibeam vendor format
0069_20050812_124250_Amundsen.all.mb56.gz 12.10MB Simrad multibeam vendor format
0069_20050819_170042_Amundsen.all.mb56.gz 12.01MB Simrad multibeam vendor format
0069_20050823_193432_Amundsen.all.mb56.gz 11.89MB Simrad multibeam vendor format
0069_20050828_182125_Amundsen.all.mb56.gz 37.31MB Simrad multibeam vendor format
0069_20050901_033502_Amundsen.all.mb56.gz 9.59MB Simrad multibeam vendor format
0069_20050902_180010_Amundsen.all.mb56.gz 17.32MB Simrad multibeam vendor format
0069_20050908_135817_Amundsen.all.mb56.gz 5.47MB Simrad multibeam vendor format
0069_20050912_093451_Amundsen.all.mb56.gz 11.56MB Simrad multibeam vendor format
0069_20050917_194500_Amundsen.all.mb56.gz 29.04MB Simrad multibeam vendor format
0069_20050920_051654_Amundsen.all.mb56.gz 14.26MB Simrad multibeam vendor format
0069_20050922_065129_Amundsen.all.mb56.gz 46.65MB Simrad multibeam vendor format
0069_20050924_135210_Amundsen.all.mb56.gz 37.88MB Simrad multibeam vendor format
0069_20050928_171913_Amundsen.all.mb56.gz 57.44MB Simrad multibeam vendor format
0069_20051003_164749_Amundsen.all.mb56.gz 43.57MB Simrad multibeam vendor format
0069_20051007_194258_Amundsen.all.mb56.gz 52.14MB Simrad multibeam vendor format
0069_20051012_053813_Amundsen.all.mb56.gz 41.84MB Simrad multibeam vendor format
0069_20051017_004552_Amundsen.all.mb56.gz 29.35MB Simrad multibeam vendor format
0069_20051019_205250_Amundsen.all.mb56.gz 50.74MB Simrad multibeam vendor format
0069_20051023_180052_Amundsen.all.mb56.gz 34.01MB Simrad multibeam vendor format
0069_20051025_220127_Amundsen.all.mb56.gz 24.27MB Simrad multibeam vendor format
0070_20050807_234404_ShipName.all.mb56.gz 35.91MB Simrad multibeam vendor format
0070_20050812_131250_Amundsen.all.mb56.gz 10.67MB Simrad multibeam vendor format
0070_20050819_173042_Amundsen.all.mb56.gz 12.87MB Simrad multibeam vendor format
0070_20050823_200432_Amundsen.all.mb56.gz 12.03MB Simrad multibeam vendor format
0070_20050828_185125_Amundsen.all.mb56.gz 38.44MB Simrad multibeam vendor format
0070_20050902_183010_Amundsen.all.mb56.gz 16.95MB Simrad multibeam vendor format
0070_20050908_144953_Amundsen.all.mb56.gz 16.11MB Simrad multibeam vendor format
0070_20050912_095954_Amundsen.all.mb56.gz 2.81MB Simrad multibeam vendor format
0070_20050917_201500_Amundsen.all.mb56.gz 24.83MB Simrad multibeam vendor format
0070_20050920_054654_Amundsen.all.mb56.gz 14.63MB Simrad multibeam vendor format
0070_20050922_072129_Amundsen.all.mb56.gz 45.06MB Simrad multibeam vendor format
0070_20050924_142210_Amundsen.all.mb56.gz 33.36MB Simrad multibeam vendor format
0070_20050928_174914_Amundsen.all.mb56.gz 19.09MB Simrad multibeam vendor format
0070_20051003_171749_Amundsen.all.mb56.gz 44.02MB Simrad multibeam vendor format
0070_20051007_201258_Amundsen.all.mb56.gz 9.55MB Simrad multibeam vendor format
0070_20051012_060813_Amundsen.all.mb56.gz 42.83MB Simrad multibeam vendor format
0070_20051017_011552_Amundsen.all.mb56.gz 31.57MB Simrad multibeam vendor format
0070_20051019_212250_Amundsen.all.mb56.gz 51.37MB Simrad multibeam vendor format
0070_20051023_183052_Amundsen.all.mb56.gz 35.84MB Simrad multibeam vendor format
0070_20051025_223127_Amundsen.all.mb56.gz 23.58MB Simrad multibeam vendor format
0071_20050808_001404_ShipName.all.mb56.gz 29.22MB Simrad multibeam vendor format
0071_20050812_134250_Amundsen.all.mb56.gz 10.86MB Simrad multibeam vendor format
0071_20050819_180042_Amundsen.all.mb56.gz 11.30MB Simrad multibeam vendor format
0071_20050823_203432_Amundsen.all.mb56.gz 12.72MB Simrad multibeam vendor format
0071_20050828_192125_Amundsen.all.mb56.gz 41.51MB Simrad multibeam vendor format
0071_20050902_190010_Amundsen.all.mb56.gz 16.80MB Simrad multibeam vendor format
0071_20050908_151954_Amundsen.all.mb56.gz 485.1KB Simrad multibeam vendor format
0071_20050912_100547_Amundsen.all.mb56.gz 10.33MB Simrad multibeam vendor format
0071_20050917_223251_Amundsen.all.mb56.gz 30.10MB Simrad multibeam vendor format
0071_20050920_061654_Amundsen.all.mb56.gz 21.43MB Simrad multibeam vendor format
0071_20050922_075129_Amundsen.all.mb56.gz 39.44MB Simrad multibeam vendor format
0071_20050924_145210_Amundsen.all.mb56.gz 33.61MB Simrad multibeam vendor format
0071_20050928_184157_Amundsen.all.mb56.gz 53.84MB Simrad multibeam vendor format
0071_20051003_174749_Amundsen.all.mb56.gz 60.72MB Simrad multibeam vendor format
0071_20051007_231828_Amundsen.all.mb56.gz 51.52MB Simrad multibeam vendor format
0071_20051012_063813_Amundsen.all.mb56.gz 43.95MB Simrad multibeam vendor format
0071_20051017_014552_Amundsen.all.mb56.gz 32.10MB Simrad multibeam vendor format
0071_20051019_215250_Amundsen.all.mb56.gz 53.73MB Simrad multibeam vendor format
0071_20051023_190052_Amundsen.all.mb56.gz 36.43MB Simrad multibeam vendor format
0071_20051025_230127_Amundsen.all.mb56.gz 19.91MB Simrad multibeam vendor format
0072_20050808_004404_ShipName.all.mb56.gz 19.52MB Simrad multibeam vendor format
0072_20050812_141250_Amundsen.all.mb56.gz 9.33MB Simrad multibeam vendor format
0072_20050819_183042_Amundsen.all.mb56.gz 13.31MB Simrad multibeam vendor format
0072_20050823_210432_Amundsen.all.mb56.gz 13.17MB Simrad multibeam vendor format
0072_20050828_195125_Amundsen.all.mb56.gz 41.82MB Simrad multibeam vendor format
0072_20050902_193010_Amundsen.all.mb56.gz 16.66MB Simrad multibeam vendor format
0072_20050908_180803_Amundsen.all.mb56.gz 21.07MB Simrad multibeam vendor format
0072_20050912_102741_Amundsen.all.mb56.gz 3.03MB Simrad multibeam vendor format
0072_20050917_230251_Amundsen.all.mb56.gz 28.38MB Simrad multibeam vendor format
0072_20050920_064654_Amundsen.all.mb56.gz 33.16MB Simrad multibeam vendor format
0072_20050922_082129_Amundsen.all.mb56.gz 31.56MB Simrad multibeam vendor format
0072_20050924_152210_Amundsen.all.mb56.gz 33.70MB Simrad multibeam vendor format
0072_20050928_191157_Amundsen.all.mb56.gz 58.06MB Simrad multibeam vendor format
0072_20051003_181749_Amundsen.all.mb56.gz 70.61MB Simrad multibeam vendor format
0072_20051007_234828_Amundsen.all.mb56.gz 48.68MB Simrad multibeam vendor format
0072_20051012_070813_Amundsen.all.mb56.gz 47.13MB Simrad multibeam vendor format
0072_20051017_021552_Amundsen.all.mb56.gz 2.22MB Simrad multibeam vendor format
0072_20051019_222250_Amundsen.all.mb56.gz 54.18MB Simrad multibeam vendor format
0072_20051023_193052_Amundsen.all.mb56.gz 27.82MB Simrad multibeam vendor format
0072_20051025_233127_Amundsen.all.mb56.gz 15.38MB Simrad multibeam vendor format
0073_20050808_011404_ShipName.all.mb56.gz 23.16MB Simrad multibeam vendor format
0073_20050812_144250_Amundsen.all.mb56.gz 10.17MB Simrad multibeam vendor format
0073_20050819_190042_Amundsen.all.mb56.gz 6.11MB Simrad multibeam vendor format
0073_20050823_213432_Amundsen.all.mb56.gz 13.37MB Simrad multibeam vendor format
0073_20050828_202125_Amundsen.all.mb56.gz 49.97MB Simrad multibeam vendor format
0073_20050902_200010_Amundsen.all.mb56.gz 16.73MB Simrad multibeam vendor format
0073_20050908_183803_Amundsen.all.mb56.gz 20.91MB Simrad multibeam vendor format
0073_20050912_103425_Amundsen.all.mb56.gz 11.85MB Simrad multibeam vendor format
0073_20050917_233251_Amundsen.all.mb56.gz 27.98MB Simrad multibeam vendor format
0073_20050920_071654_Amundsen.all.mb56.gz 37.99MB Simrad multibeam vendor format
0073_20050922_085129_Amundsen.all.mb56.gz 26.54MB Simrad multibeam vendor format
0073_20050924_155210_Amundsen.all.mb56.gz 32.30MB Simrad multibeam vendor format
0073_20050928_194157_Amundsen.all.mb56.gz 50.55MB Simrad multibeam vendor format
0073_20051003_184749_Amundsen.all.mb56.gz 12.99MB Simrad multibeam vendor format
0073_20051008_001828_Amundsen.all.mb56.gz 48.80MB Simrad multibeam vendor format
0073_20051012_073813_Amundsen.all.mb56.gz 50.11MB Simrad multibeam vendor format
0073_20051017_021815_Amundsen.all.mb56.gz 32.06MB Simrad multibeam vendor format
0073_20051019_225250_Amundsen.all.mb56.gz 52.43MB Simrad multibeam vendor format
0073_20051023_200052_Amundsen.all.mb56.gz 20.93MB Simrad multibeam vendor format
0073_20051026_000128_Amundsen.all.mb56.gz 19.64MB Simrad multibeam vendor format
0074_20050808_014404_ShipName.all.mb56.gz 32.60MB Simrad multibeam vendor format
0074_20050812_151250_Amundsen.all.mb56.gz 10.03MB Simrad multibeam vendor format
0074_20050819_224049_Amundsen.all.mb56.gz 1.68MB Simrad multibeam vendor format
0074_20050823_220432_Amundsen.all.mb56.gz 13.59MB Simrad multibeam vendor format
0074_20050828_205125_Amundsen.all.mb56.gz 35.65MB Simrad multibeam vendor format
0074_20050902_203010_Amundsen.all.mb56.gz 21.14MB Simrad multibeam vendor format
0074_20050908_190803_Amundsen.all.mb56.gz 22.05MB Simrad multibeam vendor format
0074_20050912_105931_Amundsen.all.mb56.gz 3.55MB Simrad multibeam vendor format
0074_20050918_000251_Amundsen.all.mb56.gz 27.87MB Simrad multibeam vendor format
0074_20050920_074654_Amundsen.all.mb56.gz 36.57MB Simrad multibeam vendor format
0074_20050922_092129_Amundsen.all.mb56.gz 22.04MB Simrad multibeam vendor format
0074_20050924_162210_Amundsen.all.mb56.gz 32.31MB Simrad multibeam vendor format
0074_20050928_201157_Amundsen.all.mb56.gz 47.45MB Simrad multibeam vendor format
0074_20051003_201212_Amundsen.all.mb56.gz 70.67MB Simrad multibeam vendor format
0074_20051008_004828_Amundsen.all.mb56.gz 48.15MB Simrad multibeam vendor format
0074_20051012_080813_Amundsen.all.mb56.gz 51.62MB Simrad multibeam vendor format
0074_20051017_024815_Amundsen.all.mb56.gz 32.13MB Simrad multibeam vendor format
0074_20051019_232250_Amundsen.all.mb56.gz 52.47MB Simrad multibeam vendor format
0074_20051023_203052_Amundsen.all.mb56.gz 22.23MB Simrad multibeam vendor format
0074_20051026_003127_Amundsen.all.mb56.gz 19.51MB Simrad multibeam vendor format
0075_20050808_021404_ShipName.all.mb56.gz 31.30MB Simrad multibeam vendor format
0075_20050812_154250_Amundsen.all.mb56.gz 9.75MB Simrad multibeam vendor format
0075_20050819_232657_Amundsen.all.mb56.gz 13.67MB Simrad multibeam vendor format
0075_20050823_223432_Amundsen.all.mb56.gz 13.40MB Simrad multibeam vendor format
0075_20050828_212125_Amundsen.all.mb56.gz 37.35MB Simrad multibeam vendor format
0075_20050902_210010_Amundsen.all.mb56.gz 8.95MB Simrad multibeam vendor format
0075_20050908_193803_Amundsen.all.mb56.gz 21.04MB Simrad multibeam vendor format
0075_20050912_110725_Amundsen.all.mb56.gz 10.45MB Simrad multibeam vendor format
0075_20050918_003251_Amundsen.all.mb56.gz 27.24MB Simrad multibeam vendor format
0075_20050920_081654_Amundsen.all.mb56.gz 32.05MB Simrad multibeam vendor format
0075_20050922_095129_Amundsen.all.mb56.gz 21.67MB Simrad multibeam vendor format
0075_20050924_165210_Amundsen.all.mb56.gz 32.43MB Simrad multibeam vendor format
0075_20050928_204157_Amundsen.all.mb56.gz 55.59MB Simrad multibeam vendor format
0075_20051003_204212_Amundsen.all.mb56.gz 47.40MB Simrad multibeam vendor format
0075_20051008_011828_Amundsen.all.mb56.gz 48.03MB Simrad multibeam vendor format
0075_20051012_083813_Amundsen.all.mb56.gz 47.01MB Simrad multibeam vendor format
0075_20051017_031815_Amundsen.all.mb56.gz 32.31MB Simrad multibeam vendor format
0075_20051019_235250_Amundsen.all.mb56.gz 54.28MB Simrad multibeam vendor format
0075_20051023_210052_Amundsen.all.mb56.gz 24.45MB Simrad multibeam vendor format
0075_20051026_010127_Amundsen.all.mb56.gz 20.20MB Simrad multibeam vendor format
0076_20050808_024404_ShipName.all.mb56.gz 35.74MB Simrad multibeam vendor format
0076_20050812_161250_Amundsen.all.mb56.gz 9.37MB Simrad multibeam vendor format
0076_20050819_235657_Amundsen.all.mb56.gz 12.82MB Simrad multibeam vendor format
0076_20050823_230432_Amundsen.all.mb56.gz 14.00MB Simrad multibeam vendor format
0076_20050828_215125_Amundsen.all.mb56.gz 39.49MB Simrad multibeam vendor format
0076_20050902_211933_Amundsen.all.mb56.gz 24.46MB Simrad multibeam vendor format
0076_20050908_200803_Amundsen.all.mb56.gz 1.46MB Simrad multibeam vendor format
0076_20050912_113105_Amundsen.all.mb56.gz 13.20MB Simrad multibeam vendor format
0076_20050918_010251_Amundsen.all.mb56.gz 9.71MB Simrad multibeam vendor format
0076_20050920_084654_Amundsen.all.mb56.gz 25.64MB Simrad multibeam vendor format
0076_20050922_102129_Amundsen.all.mb56.gz 30.90MB Simrad multibeam vendor format
0076_20050924_172210_Amundsen.all.mb56.gz 35.74MB Simrad multibeam vendor format
0076_20050928_211157_Amundsen.all.mb56.gz 46.91MB Simrad multibeam vendor format
0076_20051003_211212_Amundsen.all.mb56.gz 44.80MB Simrad multibeam vendor format
0076_20051008_014828_Amundsen.all.mb56.gz 44.48MB Simrad multibeam vendor format
0076_20051012_090813_Amundsen.all.mb56.gz 45.09MB Simrad multibeam vendor format
0076_20051017_034815_Amundsen.all.mb56.gz 31.77MB Simrad multibeam vendor format
0076_20051020_002250_Amundsen.all.mb56.gz 55.32MB Simrad multibeam vendor format
0076_20051023_213052_Amundsen.all.mb56.gz 24.53MB Simrad multibeam vendor format
0076_20051026_013128_Amundsen.all.mb56.gz 19.85MB Simrad multibeam vendor format
0077_20050808_031404_ShipName.all.mb56.gz 35.25MB Simrad multibeam vendor format
0077_20050812_164250_Amundsen.all.mb56.gz 9.40MB Simrad multibeam vendor format
0077_20050820_002657_Amundsen.all.mb56.gz 12.63MB Simrad multibeam vendor format
0077_20050823_233432_Amundsen.all.mb56.gz 2.70MB Simrad multibeam vendor format
0077_20050828_222125_Amundsen.all.mb56.gz 40.28MB Simrad multibeam vendor format
0077_20050902_214933_Amundsen.all.mb56.gz 24.13MB Simrad multibeam vendor format
0077_20050908_201410_Amundsen.all.mb56.gz 439.0KB Simrad multibeam vendor format
0077_20050912_120105_Amundsen.all.mb56.gz 13.83MB Simrad multibeam vendor format
0077_20050918_013005_Amundsen.all.mb56.gz 28.90MB Simrad multibeam vendor format
0077_20050920_091654_Amundsen.all.mb56.gz 23.20MB Simrad multibeam vendor format
0077_20050922_105129_Amundsen.all.mb56.gz 34.00MB Simrad multibeam vendor format
0077_20050924_175210_Amundsen.all.mb56.gz 35.47MB Simrad multibeam vendor format
0077_20050928_214157_Amundsen.all.mb56.gz 48.18MB Simrad multibeam vendor format
0077_20051003_214212_Amundsen.all.mb56.gz 44.48MB Simrad multibeam vendor format
0077_20051008_021828_Amundsen.all.mb56.gz 45.81MB Simrad multibeam vendor format
0077_20051012_093813_Amundsen.all.mb56.gz 44.19MB Simrad multibeam vendor format
0077_20051017_041815_Amundsen.all.mb56.gz 31.72MB Simrad multibeam vendor format
0077_20051020_005250_Amundsen.all.mb56.gz 55.63MB Simrad multibeam vendor format
0077_20051023_220052_Amundsen.all.mb56.gz 27.47MB Simrad multibeam vendor format
0077_20051026_020127_Amundsen.all.mb56.gz 22.03MB Simrad multibeam vendor format
0078_20050808_034404_ShipName.all.mb56.gz 37.10MB Simrad multibeam vendor format
0078_20050812_171250_Amundsen.all.mb56.gz 8.21MB Simrad multibeam vendor format
0078_20050820_005657_Amundsen.all.mb56.gz 11.43MB Simrad multibeam vendor format
0078_20050823_234023_Amundsen.all.mb56.gz 14.21MB Simrad multibeam vendor format
0078_20050828_225125_Amundsen.all.mb56.gz 14.20MB Simrad multibeam vendor format
0078_20050902_221933_Amundsen.all.mb56.gz 24.76MB Simrad multibeam vendor format
0078_20050908_204005_Amundsen.all.mb56.gz 337.9KB Simrad multibeam vendor format
0078_20050912_123105_Amundsen.all.mb56.gz 13.87MB Simrad multibeam vendor format
0078_20050918_020005_Amundsen.all.mb56.gz 32.71MB Simrad multibeam vendor format
0078_20050920_094654_Amundsen.all.mb56.gz 14.43MB Simrad multibeam vendor format
0078_20050922_112129_Amundsen.all.mb56.gz 32.90MB Simrad multibeam vendor format
0078_20050924_182210_Amundsen.all.mb56.gz 35.44MB Simrad multibeam vendor format
0078_20050928_221157_Amundsen.all.mb56.gz 55.96MB Simrad multibeam vendor format
0078_20051003_221212_Amundsen.all.mb56.gz 44.54MB Simrad multibeam vendor format
0078_20051008_024828_Amundsen.all.mb56.gz 42.36MB Simrad multibeam vendor format
0078_20051012_100813_Amundsen.all.mb56.gz 46.36MB Simrad multibeam vendor format
0078_20051017_044815_Amundsen.all.mb56.gz 31.89MB Simrad multibeam vendor format
0078_20051020_012250_Amundsen.all.mb56.gz 55.59MB Simrad multibeam vendor format
0078_20051023_223052_Amundsen.all.mb56.gz 35.21MB Simrad multibeam vendor format
0078_20051026_023128_Amundsen.all.mb56.gz 23.66MB Simrad multibeam vendor format
0079_20050808_041404_ShipName.all.mb56.gz 36.38MB Simrad multibeam vendor format
0079_20050812_174250_Amundsen.all.mb56.gz 9.16MB Simrad multibeam vendor format
0079_20050820_012657_Amundsen.all.mb56.gz 4.22MB Simrad multibeam vendor format
0079_20050824_001023_Amundsen.all.mb56.gz 14.80MB Simrad multibeam vendor format
0079_20050829_222250_Amundsen.all.mb56.gz 55.03MB Simrad multibeam vendor format
0079_20050902_224933_Amundsen.all.mb56.gz 24.14MB Simrad multibeam vendor format
0079_20050908_204255_Amundsen.all.mb56.gz 478.6KB Simrad multibeam vendor format
0079_20050912_130105_Amundsen.all.mb56.gz 14.32MB Simrad multibeam vendor format
0079_20050918_023005_Amundsen.all.mb56.gz 30.87MB Simrad multibeam vendor format
0079_20050920_101654_Amundsen.all.mb56.gz 13.66MB Simrad multibeam vendor format
0079_20050922_115129_Amundsen.all.mb56.gz 30.89MB Simrad multibeam vendor format
0079_20050924_185210_Amundsen.all.mb56.gz 36.99MB Simrad multibeam vendor format
0079_20050928_224157_Amundsen.all.mb56.gz 60.93MB Simrad multibeam vendor format
0079_20051003_224212_Amundsen.all.mb56.gz 44.09MB Simrad multibeam vendor format
0079_20051008_031828_Amundsen.all.mb56.gz 39.95MB Simrad multibeam vendor format
0079_20051012_103813_Amundsen.all.mb56.gz 50.05MB Simrad multibeam vendor format
0079_20051017_051815_Amundsen.all.mb56.gz 32.73MB Simrad multibeam vendor format
0079_20051020_015250_Amundsen.all.mb56.gz 57.15MB Simrad multibeam vendor format
0079_20051023_230052_Amundsen.all.mb56.gz 36.80MB Simrad multibeam vendor format
0079_20051026_030127_Amundsen.all.mb56.gz 26.10MB Simrad multibeam vendor format
0080_20050808_044404_ShipName.all.mb56.gz 33.21MB Simrad multibeam vendor format
0080_20050812_181250_Amundsen.all.mb56.gz 8.85MB Simrad multibeam vendor format
0080_20050820_014828_Amundsen.all.mb56.gz 11.80MB Simrad multibeam vendor format
0080_20050824_004023_Amundsen.all.mb56.gz 15.18MB Simrad multibeam vendor format
0080_20050829_225250_Amundsen.all.mb56.gz 47.62MB Simrad multibeam vendor format
0080_20050902_231933_Amundsen.all.mb56.gz 23.80MB Simrad multibeam vendor format
0080_20050908_204358_Amundsen.all.mb56.gz 2.92MB Simrad multibeam vendor format
0080_20050912_133105_Amundsen.all.mb56.gz 13.60MB Simrad multibeam vendor format
0080_20050918_030005_Amundsen.all.mb56.gz 35.00MB Simrad multibeam vendor format
0080_20050920_104654_Amundsen.all.mb56.gz 20.88MB Simrad multibeam vendor format
0080_20050922_122129_Amundsen.all.mb56.gz 29.15MB Simrad multibeam vendor format
0080_20050924_192210_Amundsen.all.mb56.gz 33.19MB Simrad multibeam vendor format
0080_20050928_231157_Amundsen.all.mb56.gz 52.40MB Simrad multibeam vendor format
0080_20051003_231212_Amundsen.all.mb56.gz 43.56MB Simrad multibeam vendor format
0080_20051008_034828_Amundsen.all.mb56.gz 40.17MB Simrad multibeam vendor format
0080_20051012_110813_Amundsen.all.mb56.gz 51.61MB Simrad multibeam vendor format
0080_20051017_054815_Amundsen.all.mb56.gz 33.31MB Simrad multibeam vendor format
0080_20051020_022250_Amundsen.all.mb56.gz 58.26MB Simrad multibeam vendor format
0080_20051023_233052_Amundsen.all.mb56.gz 32.02MB Simrad multibeam vendor format
0080_20051026_033127_Amundsen.all.mb56.gz 26.20MB Simrad multibeam vendor format
0081_20050808_051404_ShipName.all.mb56.gz 32.12MB Simrad multibeam vendor format
0081_20050812_184250_Amundsen.all.mb56.gz 9.10MB Simrad multibeam vendor format
0081_20050820_021828_Amundsen.all.mb56.gz 11.64MB Simrad multibeam vendor format
0081_20050824_011023_Amundsen.all.mb56.gz 15.14MB Simrad multibeam vendor format
0081_20050829_232250_Amundsen.all.mb56.gz 39.89MB Simrad multibeam vendor format
0081_20050902_234933_Amundsen.all.mb56.gz 23.20MB Simrad multibeam vendor format
0081_20050908_204930_Amundsen.all.mb56.gz 7.06MB Simrad multibeam vendor format
0081_20050912_140105_Amundsen.all.mb56.gz 14.02MB Simrad multibeam vendor format
0081_20050918_033005_Amundsen.all.mb56.gz 37.95MB Simrad multibeam vendor format
0081_20050920_111654_Amundsen.all.mb56.gz 16.35MB Simrad multibeam vendor format
0081_20050922_125129_Amundsen.all.mb56.gz 2.10MB Simrad multibeam vendor format
0081_20050924_195210_Amundsen.all.mb56.gz 31.38MB Simrad multibeam vendor format
0081_20050928_234158_Amundsen.all.mb56.gz 55.55MB Simrad multibeam vendor format
0081_20051003_234212_Amundsen.all.mb56.gz 42.98MB Simrad multibeam vendor format
0081_20051008_041828_Amundsen.all.mb56.gz 39.69MB Simrad multibeam vendor format
0081_20051012_113813_Amundsen.all.mb56.gz 52.81MB Simrad multibeam vendor format
0081_20051017_061815_Amundsen.all.mb56.gz 33.57MB Simrad multibeam vendor format
0081_20051020_025250_Amundsen.all.mb56.gz 42.33MB Simrad multibeam vendor format
0081_20051024_000052_Amundsen.all.mb56.gz 35.04MB Simrad multibeam vendor format
0081_20051026_040127_Amundsen.all.mb56.gz 22.29MB Simrad multibeam vendor format
0082_20050808_054404_ShipName.all.mb56.gz 34.50MB Simrad multibeam vendor format
0082_20050812_191250_Amundsen.all.mb56.gz 9.57MB Simrad multibeam vendor format
0082_20050820_024828_Amundsen.all.mb56.gz 11.37MB Simrad multibeam vendor format
0082_20050824_014023_Amundsen.all.mb56.gz 15.65MB Simrad multibeam vendor format
0082_20050829_235250_Amundsen.all.mb56.gz 39.34MB Simrad multibeam vendor format
0082_20050903_001933_Amundsen.all.mb56.gz 23.65MB Simrad multibeam vendor format
0082_20050908_2